[[{"header":{"parameterUnit":"m.s-1","parameterCategory":1,"la1":30.6,"la2":28.766,"lo1":-90.7593,"lo2":-88.6598,"dy":0.0162,"dx":0.0183,"nx":116,"ny":114,"refTime":"2024-06-29T06:00:00:Z","depth":0,"parameterNumber":2,"parameterNumberName":"U-component_of_WINDS"},"data":[0.0,0.0,0.0,0.0,0.0,0.0,0.0,0.0,0.0,0.0,0.0,0.0,0.0,0.0,0.0,0.0,0.0,0.0,0.0,0.0,0.0,0.0,0.0,0.0,0.0,0.0,0.0,0.0,0.0,0.0,0.0,0.0,0.0,0.0,0.0,0.0,0.0,0.0,0.0,0.0,0.0,0.0,0.0,0.0,0.0,0.0,0.0,0.0,0.0,0.0,0.0,0.0,0.0,0.0,0.0,0.0,0.0,0.0,0.0,0.0,0.0,0.0,0.0,0.0,0.0,0.0,0.0,0.0,0.0,0.0,0.0,0.0,0.0,0.0,0.0,0.0,0.0,0.0,0.0,0.0,0.0,0.0,0.0,0.0,0.0,0.0,0.0,0.0,0.0,0.0,0.0,0.0,0.0,0.0,0.0,0.0,0.0,0.0,0.0,0.0,0.0,0.0,0.0,0.0,0.0,0.0,0.0,0.0,0.0,0.0,0.0,0.0,0.0,0.0,0.0,0.0,0.0,0.0,0.0,0.0,0.0,0.0,0.0,0.0,0.0,0.0,0.0,0.0,0.0,0.0,0.0,0.0,0.0,0.0,0.0,0.0,0.0,0.0,0.0,0.0,0.0,0.0,0.0,0.0,0.0,0.0,0.0,0.0,0.0,0.0,0.0,0.0,0.0,0.0,0.0,0.0,0.0,0.0,0.0,0.0,0.0,0.0,0.0,0.0,0.0,0.0,0.0,0.0,0.0,0.0,0.0,0.0,0.0,0.0,0.0,0.0,0.0,0.0,0.0,0.0,0.0,0.0,0.0,0.0,0.0,0.0,0.0,0.0,0.0,0.0,0.0,0.0,0.0,0.0,0.0,0.0,0.0,0.0,0.0,0.0,0.0,0.0,0.0,0.0,0.0,0.0,0.0,0.0,0.0,0.0,0.0,0.0,0.0,0.0,0.0,0.0,0.0,0.0,0.0,0.0,0.0,0.0,0.0,0.0,0.0,0.0,0.0,0.0,0.0,0.0,0.0,0.0,0.0,0.0,0.0,0.0,0.0,0.0,0.0,0.0,0.0,0.0,0.0,0.0,0.0,0.0,0.0,0.0,0.0,0.0,0.0,0.0,0.0,0.0,0.0,0.0,0.0,0.0,0.0,0.0,0.0,0.0,0.0,0.0,0.0,0.0,0.0,0.0,0.0,0.0,0.0,0.0,0.0,0.0,0.0,0.0,0.0,0.0,0.0,0.0,0.0,0.0,0.0,0.0,0.0,0.0,0.0,0.0,0.0,0.0,0.0,0.0,0.0,0.0,0.0,0.0,0.0,0.0,0.0,0.0,0.0,0.0,0.0,0.0,0.0,0.0,0.0,0.0,0.0,0.0,0.0,0.0,0.0,0.0,0.0,0.0,0.0,0.0,0.0,0.0,0.0,0.0,0.0,0.0,0.0,0.0,0.0,0.0,0.0,0.0,0.0,0.0,0.0,0.0,0.0,0.0,0.0,0.0,0.0,0.0,0.0,0.0,0.0,0.0,0.0,0.0,0.0,0.0,0.0,0.0,0.0,0.0,0.0,0.0,0.0,0.0,0.0,0.0,0.0,0.0,0.0,0.0,0.0,0.0,0.0,0.0,0.0,0.0,0.0,0.0,0.0,0.0,0.0,0.0,0.0,0.0,0.0,0.0,0.0,0.0,0.0,0.0,0.0,0.0,0.0,0.0,0.0,0.0,0.0,0.0,0.0,0.0,0.0,0.0,0.0,0.0,0.0,0.0,0.0,0.0,0.0,0.0,0.0,0.0,0.0,0.0,0.0,0.0,0.0,0.0,0.0,0.0,0.0,0.0,0.0,0.0,0.0,0.0,0.0,0.0,0.0,0.0,0.0,0.0,0.0,0.0,0.0,0.0,0.0,0.0,0.0,0.0,0.0,0.0,0.0,0.0,0.0,0.0,0.0,0.0,0.0,0.0,0.0,0.0,0.0,0.0,0.0,0.0,0.0,0.0,0.0,0.0,0.0,0.0,0.0,0.0,0.0,0.0,0.0,0.0,0.0,0.0,0.0,0.0,0.0,0.0,0.0,0.0,0.0,0.0,0.0,0.0,0.0,0.0,0.0,0.0,0.0,0.0,0.0,0.0,0.0,0.0,0.0,0.0,0.0,0.0,0.0,0.0,0.0,0.0,0.0,0.0,0.0,0.0,0.0,0.0,0.0,0.0,0.0,0.0,0.0,0.0,0.0,0.0,0.0,0.0,0.0,0.0,0.0,0.0,0.0,0.0,0.0,0.0,0.0,0.0,0.0,0.0,0.0,0.0,0.0,0.0,0.0,0.0,0.0,0.0,0.0,0.0,0.0,0.0,0.0,0.0,0.0,0.0,0.0,0.0,0.0,0.0,0.0,0.0,0.0,0.0,0.0,0.0,0.0,0.0,0.0,0.0,0.0,0.0,0.0,0.0,0.0,0.0,0.0,0.0,0.0,0.0,0.0,0.0,0.0,0.0,0.0,0.0,0.0,0.0,0.0,0.0,0.0,0.0,0.0,0.0,0.0,0.0,0.0,0.0,0.0,0.0,0.0,0.0,0.0,0.0,0.0,0.0,0.0,0.0,0.0,0.0,0.0,0.0,0.0,0.0,0.0,0.0,0.0,0.0,0.0,0.0,0.0,0.0,0.0,0.0,0.0,0.0,0.0,0.0,0.0,0.0,0.0,0.0,0.0,0.0,0.0,0.0,0.0,0.0,0.0,0.0,0.0,0.0,0.0,0.0,0.0,0.0,0.0,0.0,0.0,0.0,0.0,0.0,0.0,0.0,0.0,0.0,0.0,0.0,0.0,0.0,0.0,0.0,0.0,0.0,0.0,0.0,0.0,0.0,0.0,0.0,0.0,0.0,0.0,0.0,0.0,0.0,0.0,0.0,0.0,0.0,0.0,0.0,0.0,0.0,0.0,0.0,0.0,0.0,0.0,0.0,0.0,0.0,0.0,0.0,0.0,0.0,0.0,0.0,0.0,0.0,0.0,0.0,0.0,0.0,0.0,0.0,0.0,0.0,0.0,0.0,0.0,0.0,0.0,0.0,0.0,0.0,0.0,0.0,0.0,0.0,0.0,0.0,0.0,0.0,0.0,0.0,0.0,0.0,0.0,0.0,0.0,0.0,0.0,0.0,0.0,0.0,0.0,0.0,0.0,0.0,0.0,0.0,0.0,0.0,0.0,0.0,0.0,0.0,0.0,0.0,0.0,0.0,0.0,0.0,0.0,0.0,0.0,0.0,0.0,0.0,0.0,0.0,0.0,0.0,0.0,0.0,0.0,0.0,0.0,0.0,0.0,0.0,0.0,0.0,0.0,0.0,0.0,0.0,0.0,0.0,0.0,0.0,0.0,0.0,0.0,0.0,0.0,0.0,0.0,0.0,0.0,0.0,0.0,0.0,0.0,0.0,0.0,0.0,0.0,0.0,0.0,0.0,0.0,0.0,0.0,0.0,0.0,0.0,0.0,0.0,0.0,0.0,0.0,0.0,0.0,0.0,0.0,0.0,0.0,0.0,0.0,0.0,0.0,0.0,0.0,0.0,0.0,0.0,0.0,0.0,0.0,0.0,0.0,0.0,0.0,0.0,0.0,0.0,0.0,0.0,0.0,0.0,0.0,0.0,0.0,0.0,0.0,0.0,0.0,0.0,0.0,0.0,0.0,0.0,0.0,0.0,0.0,0.0,0.0,0.0,0.0,0.0,0.0,0.0,0.0,0.0,0.0,0.0,0.0,0.0,0.0,0.0,0.0,0.0,0.0,0.0,0.0,0.0,0.0,0.0,0.0,0.0,0.0,0.0,0.0,0.0,0.0,0.0,0.0,0.0,0.0,0.0,0.0,0.0,0.0,0.0,0.0,0.0,0.0,0.0,0.0,0.0,0.0,0.0,0.0,0.0,0.0,0.0,0.0,0.0,0.0,0.0,0.0,0.0,0.0,0.0,0.0,0.0,0.0,0.0,0.0,0.0,0.0,0.0,0.0,0.0,0.0,0.0,0.0,0.0,0.0,0.0,0.0,0.0,0.0,0.0,0.0,0.0,0.0,0.0,0.0,0.0,0.0,0.0,0.0,0.0,0.0,0.0,0.0,0.0,0.0,0.0,0.0,0.0,0.0,0.0,0.0,0.0,0.0,0.0,0.0,0.0,0.0,0.0,0.0,0.0,0.0,0.0,0.0,0.0,0.0,0.0,0.0,0.0,0.0,0.0,0.0,0.0,0.0,0.0,0.0,0.0,0.0,0.0,0.0,0.0,0.0,0.0,0.0,0.0,0.0,0.0,0.0,0.0,0.0,0.0,0.0,0.0,0.0,0.0,0.0,0.0,0.0,0.0,0.0,0.0,0.0,0.0,0.0,0.0,0.0,0.0,0.0,0.0,0.0,0.0,0.0,0.0,0.0,0.0,0.0,0.0,0.0,0.0,0.0,0.0,0.0,0.0,0.0,0.0,0.0,0.0,0.0,0.0,0.0,0.0,0.0,0.0,0.0,0.0,0.0,0.0,0.0,0.0,0.0,0.0,0.0,0.0,0.0,0.0,0.0,0.0,0.0,0.0,0.0,0.0,0.0,0.0,0.0,0.0,0.0,0.0,0.0,0.0,0.0,0.0,0.0,0.0,0.0,0.0,0.0,0.0,0.0,0.0,0.0,0.0,0.0,0.0,0.0,0.0,0.0,0.0,0.0,0.0,0.0,0.0,0.0,0.0,0.0,0.0,0.0,0.0,0.0,0.0,0.0,0.0,0.0,0.0,0.0,0.0,0.0,0.0,0.0,0.0,0.0,0.0,0.0,0.0,0.0,0.0,0.0,0.0,0.0,0.0,0.0,0.0,0.0,0.0,0.0,0.0,0.0,0.0,0.0,0.0,0.0,0.0,0.0,0.0,0.0,0.0,0.0,0.0,0.0,0.0,0.0,0.0,0.0,0.0,0.0,0.0,0.0,0.0,0.0,0.0,0.0,0.0,0.0,0.0,0.0,0.0,0.0,0.0,0.0,0.0,0.0,0.0,0.0,0.0,0.0,0.0,0.0,0.0,0.0,0.0,0.0,0.0,0.0,0.0,0.0,0.0,0.0,0.0,0.0,0.0,0.0,0.0,0.0,0.0,0.0,0.0,0.0,0.0,0.0,0.0,0.0,0.0,0.0,0.0,0.0,0.0,0.0,0.0,0.0,0.0,0.0,0.0,0.0,0.0,0.0,0.0,0.0,0.0,0.0,0.0,0.0,0.0,0.0,0.0,0.0,0.0,0.0,0.0,0.0,0.0,0.0,0.0,0.0,0.0,0.0,0.0,0.0,0.0,0.0,0.0,0.0,0.0,0.0,0.0,0.0,0.0,0.0,0.0,0.0,0.0,0.0,0.0,0.0,0.0,0.0,0.0,0.0,0.0,0.0,0.0,0.0,0.0,0.0,0.0,0.0,0.0,0.0,0.0,0.0,0.0,0.0,0.0,0.0,0.0,0.0,0.0,0.0,0.0,0.0,0.0,0.0,0.0,0.0,0.0,0.0,0.0,0.0,0.0,0.0,0.0,0.0,0.0,0.0,0.0,0.0,0.0,0.0,0.0,0.0,0.0,0.0,0.0,0.0,0.0,0.0,0.0,0.0,0.0,0.0,0.0,0.0,0.0,0.0,0.0,0.0,0.0,0.0,0.0,0.0,0.0,0.0,0.0,0.0,0.0,0.0,0.0,0.0,0.0,0.0,0.0,0.0,0.0,0.0,0.0,0.0,0.0,0.0,0.0,0.0,0.0,0.0,0.0,0.0,0.0,0.0,0.0,0.0,0.0,0.0,0.0,0.0,0.0,0.0,0.0,0.0,0.0,0.0,0.0,0.0,0.0,0.0,0.0,0.0,0.0,0.0,0.0,0.0,0.0,0.0,0.0,0.0,0.0,0.0,0.0,0.0,0.0,0.0,0.0,0.0,0.0,0.0,0.0,0.0,0.0,0.0,0.0,0.0,0.0,0.0,0.0,0.0,0.0,0.0,0.0,0.0,0.0,0.0,0.0,0.0,0.0,0.0,0.0,0.0,0.0,0.0,0.0,0.0,0.0,0.0,0.0,0.0,0.0,0.0,0.0,0.0,0.0,0.0,0.0,0.3572,0.5292,0.0,0.0,0.0,0.0,0.0,0.0,0.0,0.0,0.0,0.0,0.0,0.0,0.0,0.0,0.0,0.0,0.0,0.0,0.0,0.0,0.0,0.0,0.0,0.4728,0.4754,0.4751,0.472,0.471,0.471,0.0,0.0,0.0,0.0,0.0,0.4549,0.4529,0.4629,0.4883,0.5207,0.5424,0.5587,0.5167,0.4892,0.4721,0.0,0.0,0.0,0.0,0.0,0.0,0.0,0.0,0.0,0.0,0.0,0.0,0.0,0.0,0.0,0.0,0.0,0.0,0.0,0.0,0.0,0.0,0.0,0.0,0.0,0.0,0.0,0.0,0.0,0.0,0.0,0.0,0.0,0.0,0.0,0.0,0.0,0.0,0.0,0.0,0.0,0.0,0.0,0.0,0.0,0.0,0.0,0.0,0.0,0.0,0.0,0.0,0.0,0.0,0.0,0.0,0.0,0.0,0.0,0.0,0.0,0.0,0.0,0.0,0.0,0.0,0.0,0.0,0.0,0.0,-0.2542,0.0058,0.0,0.0,0.0,0.0,0.0,0.0,0.0,0.0,0.0,0.0,0.0,0.0,0.0,0.0,0.0,0.0,0.0,0.0,0.0,0.0,0.0,0.4724,0.4858,0.4894,0.4989,0.517,0.5147,0.5066,0.4926,0.0,0.0,0.0,0.0,0.4647,0.4719,0.4663,0.4899,0.5441,0.5536,0.584,0.6333,0.6178,0.0,0.0,0.5659,0.0,0.0,0.0,0.0,0.0,0.0,0.0,0.0,0.0,0.0,0.0,0.0,0.0,0.0,0.0,0.0,0.0,0.0,0.0,0.0,0.0,0.0,0.0,0.0,0.0,0.0,0.0,0.0,0.0,0.0,0.0,0.0,0.0,0.0,0.0,0.0,0.0,0.0,0.0,0.0,0.0,0.0,0.0,0.0,0.0,0.0,0.0,0.0,0.0,0.0,0.0,0.0,0.0,0.0,0.0,0.0,0.0,0.0,0.0,0.0,0.0,0.0,0.0,-1.1729,-1.0465,-0.824,-0.9271,-1.1276,-1.3716,-0.9772,-0.6599,-0.4024,-0.1329,0.0,0.0,0.0,0.0,0.0,0.0,0.0,0.0,0.0,0.0,0.0,0.0,0.0,0.0,0.0,0.0,0.0,0.0,0.0,0.486,0.5488,0.5675,0.5999,0.6657,0.6815,0.6548,0.5794,0.0,0.0,0.0,0.4652,0.4964,0.5534,0.5522,0.5829,0.642,0.6599,0.7175,0.8066,0.0,0.0,0.0,0.6408,0.5407,0.0,0.0,0.0,0.0,0.0,0.0,0.0,0.0,0.0,0.0,0.0,0.0,0.0,0.0,0.0,0.0,0.0,0.0,0.0,0.0,0.0,0.0,0.0,0.0,0.0,0.0,0.0,0.0,0.0,0.0,0.0,0.0,0.0,0.0,0.0,0.0,0.0,0.0,0.0,0.0,0.0,0.0,0.9829,1.0859,0.0,0.0,0.0,0.0,0.0,0.0,0.0,0.0,0.0,0.0,0.0,0.0,0.0,0.948,0.8414,-0.8878,-1.8561,-2.0407,-1.4742,-1.1818,-1.1556,-1.6458,-1.9056,-1.9628,-1.9796,0.0,-1.0568,-1.3458,0.0,0.0,0.0,0.0,0.0,0.0,0.0,0.0,0.0,0.0,0.0,0.0,0.0,0.0,0.0,0.0,0.0,0.0,0.0,0.0,0.0,0.6239,0.6611,0.6812,0.696,0.6849,0.0,0.0,0.0,0.5401,0.5371,0.5401,0.5469,0.5852,0.6431,0.7221,0.7603,0.8214,0.0,0.0,0.0,0.0,0.8075,0.7278,0.0,0.0,0.0,0.0,0.0,0.0,0.0,0.0,0.0,0.0,0.0,0.0,0.0,0.0,0.0,0.0,0.0,0.0,0.0,0.0,0.0,0.0,0.0,0.0,0.0,0.0,0.0,0.0,0.0,0.0,0.0,0.0,0.0,0.0,0.0,0.0,0.0,0.0,0.0,0.0,0.0,0.8597,1.0272,1.1193,1.1202,1.1345,0.0,0.0,0.0,0.0,0.0,0.0,0.0,0.0,0.0,0.4934,0.4075,0.0499,-0.5959,-1.4398,-1.9292,-2.061,-1.866,-1.8052,-1.8773,-2.1224,-2.249,-2.2703,-2.327,-2.1521,-1.814,-1.6225,-1.5014,-1.4239,0.0,0.0,0.0,0.0,-1.7049,-1.7448,0.0,0.0,0.0,0.0,0.0,0.0,0.0,0.0,0.0,0.0,0.0,0.0,0.6397,0.6928,0.7268,0.7303,0.0,0.0,0.0,0.0,0.0,0.6209,0.6269,0.6179,0.5922,0.6658,0.7357,0.0,0.0,0.0,0.0,0.0,0.0,0.0,0.0,0.0,0.0,0.0,0.0,0.0,0.0,0.0,0.0,0.0,0.0,0.0,0.0,0.0,0.0,0.0,0.0,0.0,0.0,0.0,0.0,0.0,0.0,0.0,0.0,0.0,0.0,0.0,0.0,0.0,0.0,0.0,0.0,0.0,0.0,0.0,0.0,0.0,0.0,0.0,0.0,0.0,0.0,0.9461,1.0792,1.1793,1.1691,1.1384,0.0,0.0,0.0,0.0,0.0,0.0,0.1621,-0.208,-0.3745,-0.2712,-0.2403,-0.7824,-1.9459,-1.9262,-1.9574,-2.0487,-2.2043,-2.3201,-2.3984,-2.4043,-2.4192,-2.4383,-2.4601,-2.4412,-2.361,-1.8554,-1.7611,-1.9039,-1.5598,-1.6103,-1.8865,-1.9588,-1.991,-2.0195,0.0,0.0,0.0,0.0,0.0,0.0,0.0,0.0,0.0,0.0,0.0,0.6206,0.0,0.0,0.0,0.0,0.0,0.0,0.0,0.0,0.0,0.6799,0.7186,0.7464,0.757,0.8546,0.0,0.0,0.0,0.0,0.0,0.0,0.0,0.0,0.0,0.0,0.0,0.0,0.0,0.0,0.0,0.0,0.0,0.0,0.0,0.0,0.0,0.0,0.0,0.0,0.0,0.0,0.0,0.0,0.0,0.0,0.0,0.0,0.0,0.0,0.0,0.0,0.0,0.0,0.0,0.0,0.0,0.0,0.0,0.0,0.0,0.0,0.0,0.0,0.0,0.0,0.0,0.0,0.0,1.3451,1.3118,0.0,0.0,0.0,0.0,-0.23,-0.3551,-0.4133,-0.4179,-0.4441,-0.6414,-1.0397,-0.6623,-1.0312,-2.2356,-2.2483,-2.2678,-2.313,-2.4168,-2.4504,-2.419,-2.4454,-2.4661,-2.4874,-2.4867,-2.4972,-2.5024,-2.3936,-2.2686,-2.1423,-2.1269,-2.128,-2.1422,-2.1529,-2.205,-2.273,0.0,0.0,0.0,0.4316,0.4448,0.4551,0.4544,0.4551,0.4682,0.4987,0.5889,0.0,0.0,0.0,0.0,0.0,0.0,0.0,0.0,0.0,0.796,0.7827,0.7819,0.8206,0.9045,0.889,0.9172,0.0,0.0,0.0,0.0,0.0,0.0,0.0,0.0,0.0,0.0,0.0,0.0,0.0,0.0,0.0,0.0,0.0,0.0,0.0,0.0,0.0,0.0,0.0,0.0,0.0,0.0,0.0,0.0,0.0,0.0,0.0,0.0,0.0,0.0,0.0,0.0,0.0,0.0,0.0,0.0,0.0,0.0,0.0,0.0,0.0,0.0,0.0,0.0,0.0,0.0,0.0,0.0,0.894,0.8193,0.0,0.144,-0.0335,-0.2001,-0.3966,-0.7435,-0.9586,-0.9851,-1.3281,-1.6132,-1.8114,-1.7287,-1.8995,-2.3575,-2.3895,-2.4099,-2.4208,-2.4468,-2.4595,-2.4584,-2.4633,-2.4647,-2.4657,-2.4872,-2.4981,-2.4996,-2.4928,-2.4485,-2.388,-2.4022,-2.4069,-2.4056,-2.407,-2.4288,-2.4577,0.3905,0.4169,0.0,0.4322,0.4448,0.4561,0.453,0.4552,0.4765,0.5344,0.629,0.7104,0.0,0.0,0.0,0.0,0.0,0.0,0.0,0.0,0.844,0.8494,0.8418,0.8757,0.9623,0.9402,0.0,0.0,0.0,0.0,0.0,0.0,0.0,0.0,0.0,0.0,0.0,0.0,0.0,0.0,0.0,0.0,0.5238,0.0,0.0,0.0,0.0,0.0,0.0,0.0,0.0,0.0,0.0,0.0,0.0,0.0,0.0,0.0,0.0,0.0,0.0,0.0,0.0,0.0,0.0,0.0,0.0,0.0,0.0,0.0,0.0,0.0,0.0,0.0,0.0,0.0,0.0,0.0,0.7959,0.6295,0.3652,0.0212,-0.4263,-0.61,-0.7773,-0.9629,-1.3411,-1.5763,-1.6065,-1.9739,-2.2069,-2.2596,-2.3275,-2.3746,-2.4045,-2.4657,-2.4879,-2.47,-2.4752,-2.479,-2.4839,-2.4885,-2.4864,-2.478,-2.5006,-2.5091,-2.5084,-2.5303,-2.5332,-2.5254,-2.5369,-2.5415,-2.5432,-2.5425,-2.5441,-2.546,0.4111,0.4275,0.442,0.4482,0.4505,0.4526,0.458,0.455,0.5092,0.6753,0.6867,0.0,0.0,0.0,0.0,0.0,0.0,0.0,0.0,0.9346,0.9307,0.8744,0.8972,0.9199,0.9362,0.0,0.0,0.0,0.0,0.0,0.0,0.0,0.0,0.0,0.0,0.0,0.0,0.0,0.0,0.0,0.0,0.0,0.588,0.0,0.0,0.0,0.0,0.0,0.0,0.0,0.0,0.0,0.0,0.0,0.0,0.0,0.0,0.0,0.0,0.0,0.0,0.0,0.0,0.0,0.0,0.0,0.0,0.0,0.0,0.0,0.0,0.0,0.0,0.0,0.0,0.0,1.0715,0.7339,0.4684,0.5638,-0.0183,-0.5868,-0.9951,-1.2291,-1.5407,-1.9876,-2.1564,-2.2461,-2.2524,-2.3043,-2.3422,-2.362,-2.383,-2.3911,-2.3929,-2.4828,-2.5084,-2.4723,-2.5099,-2.5145,-2.4898,-2.5182,-2.5312,-2.5301,-2.5282,-2.5341,-2.5389,-2.5389,-2.5425,-2.5476,-2.5423,-2.5448,-2.5495,-2.5492,-2.5456,-2.5393,0.423,0.4409,0.4543,0.4499,0.4587,0.4625,0.4603,0.4669,0.5061,0.5999,0.0,0.0,0.0,0.0,0.0,0.0,0.0,0.0,0.9188,0.0,0.8798,0.9127,0.9259,0.0,0.0,0.0,0.0,0.0,0.0,0.0,0.0,0.0,0.0,0.0,0.0,0.0,0.0,0.0,0.0,0.0,0.0,0.0,0.5976,0.0,0.0,0.0,0.0,0.0,0.0,0.0,0.0,0.0,0.0,0.0,0.0,0.0,0.0,0.0,0.0,0.0,0.0,0.0,0.0,0.0,0.0,0.0,0.0,0.0,0.0,0.0,0.0,0.0,0.0,0.0,-0.0085,-0.1039,0.1287,-0.0274,-0.2754,-0.5811,-0.875,-1.2577,-1.7773,-1.8943,-2.0207,-2.2192,-2.27,-2.2987,-2.3217,-2.3557,-2.385,-2.4116,-2.4301,-2.4452,-2.4561,-2.4704,-2.4809,-2.4845,-2.5006,-2.5019,-2.4917,-2.5141,-2.5236,-2.5225,-2.5172,-2.518,-2.518,-2.5137,-2.5122,-2.5163,-2.5378,-2.5456,-2.5437,-2.5432,-2.5412,-2.541,0.4318,0.446,0.4575,0.4614,0.4639,0.4678,0.4724,0.479,0.5196,0.6166,0.0,0.0,0.0,0.0,0.0,0.0,0.0,0.0,0.9275,0.8942,0.8898,0.0,0.0,0.0,0.0,0.0,0.0,0.0,0.0,0.0,0.0,0.0,0.0,0.0,0.0,0.0,0.0,0.0,0.0,0.0,0.0,0.0,0.6385,0.5486,0.5281,0.5386,0.4888,0.4966,0.5266,0.5083,0.0,0.0,0.0,0.0,0.0,0.0,0.0,0.0,0.0,0.0,0.0,0.0,0.0,0.0,0.0,0.0,0.0,0.0,0.0,0.0,0.0,0.0,0.0,0.0,-0.6312,-0.8319,-0.9532,-0.8687,-0.895,-1.1625,-1.4888,-1.8189,-2.1411,-2.2186,-2.2728,-2.3353,-2.3348,-2.3468,-2.3819,-2.3888,-2.41,-2.4491,-2.4535,-2.4689,-2.4968,-2.4865,-2.4907,-2.508,-2.5056,-2.5049,-2.5057,-2.5134,-2.5153,-2.5141,-2.5069,-2.5025,-2.5057,-2.5025,-2.5049,-2.5135,0.0,0.0,0.0,0.0,-2.5445,-2.5453,0.4406,0.448,0.4592,0.4765,0.4704,0.469,0.4879,0.4902,0.5416,0.6839,0.0,0.0,0.0,0.0,0.0,0.0,0.0,0.0,0.0,0.0,0.0,0.0,0.0,0.0,0.0,0.0,0.0,0.0,0.0,0.0,0.0,0.0,0.0,0.0,0.0,0.0,0.0,0.0,0.0,0.0,0.0,0.0,0.6893,0.5899,0.5538,0.5456,0.4855,0.4835,0.5076,0.4993,0.0,0.0,0.0,0.0,0.0,0.0,0.0,0.0,0.0,0.0,0.0,0.0,0.0,0.0,0.0,0.0,0.0,0.0,0.0,0.0,0.0,0.0,0.0,0.0,-1.3712,-1.5652,-1.9778,-1.7056,-1.4588,-1.4498,-1.9286,-2.2558,-2.2434,-2.3094,-2.3592,-2.3714,-2.3685,-2.3855,-2.4303,-2.4118,0.0,0.0,0.0,-2.4766,-2.5168,-2.5107,-2.5144,-2.522,-2.5138,-2.5163,-2.5255,-2.5163,-2.5126,-2.5126,-2.4994,-2.5032,-2.5163,-2.5056,-2.5133,-2.5292,-2.5255,-2.5264,-2.5335,-2.5464,-2.5498,-2.5515,0.4576,0.4661,0.4746,0.479,0.4825,0.4859,0.4888,0.4903,0.544,0.6967,0.7038,0.0,0.0,0.0,0.0,0.0,0.0,0.0,0.0,0.0,0.0,0.0,0.0,0.0,0.0,0.0,0.0,0.0,0.0,0.0,0.0,0.0,0.0,0.0,0.0,0.0,0.0,0.0,0.0,0.0,0.0,0.0,0.6848,0.6051,0.604,0.6314,0.5217,0.5435,0.6123,0.5636,0.5577,0.5737,0.5906,0.0,0.0,0.0,0.0,0.0,0.0,0.0,0.0,0.0,0.0,0.0,0.0,0.0,0.0,0.0,0.0,0.0,0.0,0.0,0.0,-1.3494,-1.7207,-2.0448,-2.2175,-2.2293,-2.194,-2.1225,-2.2757,-2.384,-2.382,-2.3874,-2.3888,-2.3864,-2.3999,-2.4192,-2.4458,-2.4629,-2.4728,-2.479,-2.4911,-2.4987,-2.4961,-2.4947,-2.4902,-2.4823,-2.5012,0.0,-2.5069,-2.5203,-2.5253,-2.5253,-2.5171,-2.5562,-2.6148,-2.5382,-2.516,-2.5303,-2.5404,-2.5453,-2.5461,-2.548,-2.5499,-2.5588,0.4765,0.4774,0.4822,0.4882,0.4869,0.4854,0.4898,0.4881,0.5381,0.6866,0.7017,0.0,0.0,0.0,0.0,0.0,0.0,0.0,0.0,0.0,0.0,0.0,0.0,0.0,0.0,0.0,0.0,0.0,0.0,0.0,0.0,0.0,0.0,0.0,0.0,0.0,0.0,0.0,0.0,0.0,0.0,0.0,0.6252,0.5578,0.5551,0.5766,0.4873,0.5055,0.5667,0.5198,0.5217,0.5431,0.5367,0.5365,0.5163,0.0,0.0,0.0,0.0,0.0,0.0,0.0,0.0,0.0,0.0,0.0,0.0,0.0,0.0,-0.4783,-0.9949,0.0,-1.533,-1.8029,-2.0958,-2.3071,-2.3537,-2.4099,-2.4342,-2.4035,-2.3989,-2.4136,-2.447,-2.4099,-2.3989,-2.4279,-2.4398,-2.4514,-2.4644,-2.4799,-2.4924,-2.5013,-2.5141,-2.5143,-2.5056,-2.5077,-2.508,-2.5057,-2.5603,-2.5868,-2.5919,-2.6361,-2.6554,-2.6544,-2.6447,-2.6649,-2.7012,-2.6577,-2.6427,-2.6521,-2.6683,-2.6482,-2.6149,-2.6594,-2.6749,-2.6807,0.4921,0.4866,0.4878,0.4979,0.4883,0.4822,0.4875,0.4835,0.5241,0.645,0.6719,0.7226,0.8335,0.7898,0.7463,0.0,0.0,0.0,0.0,0.0,0.0,0.0,0.0,0.0,0.0,0.0,0.0,0.0,0.0,0.0,0.0,0.0,0.0,0.0,0.0,0.0,0.0,0.0,0.0,0.0,0.0,0.0,0.5567,0.4823,0.4756,0.4939,0.4357,0.4409,0.469,0.4451,0.4569,0.4759,0.4587,0.4858,0.4814,0.2595,0.2689,0.0,0.0,0.0,0.0,0.0,0.0,0.0,0.0,0.0,-0.5417,-0.6736,-0.8051,-1.0465,-1.5422,-1.6934,-1.8678,-2.2502,-2.3839,-2.4385,-2.4386,-2.4516,-2.4738,-2.5077,-2.4482,-2.4253,-2.479,-2.4313,-2.4197,-2.4737,-2.4784,-2.4816,-2.491,-2.5134,-2.5316,-2.5484,-2.5715,-2.579,-2.5736,-2.579,-2.5859,-2.5906,-2.6588,-2.6953,-2.7067,-2.7623,-2.7826,-2.7815,-2.7877,-2.7809,-2.7711,-2.7934,-2.7909,-2.7816,-2.8144,-2.783,-2.7279,-2.781,-2.7995,-2.8017,0.4999,0.4979,0.4979,0.4997,0.489,0.4803,0.4808,0.4804,0.4993,0.5495,0.5677,0.5957,0.6466,0.5876,0.5494,0.5659,0.0,0.0,0.0,0.0,0.0,0.0,0.0,0.0,0.0,0.0,0.0,0.0,0.0,0.0,0.0,0.0,0.0,0.0,0.0,0.0,0.0,0.0,0.0,0.0,0.0,0.0,0.4981,0.4086,0.4126,0.4612,0.4097,0.3841,0.3771,0.3913,0.3837,0.3745,0.4113,0.398,0.3317,0.155,0.0,0.0106,-0.2508,-0.2512,-0.1512,-0.0344,-0.1703,-0.269,0.0,0.0,-0.6842,-1.0267,-1.206,-1.4918,-2.1034,-2.2351,-2.2887,-2.4108,-2.4372,-2.453,-2.4943,-2.4816,-2.4889,-2.5473,-2.5197,-2.4958,-2.4977,-2.4973,-2.4971,-2.5053,-2.5063,-2.5144,-2.5323,-2.6079,-2.6512,-2.652,-2.7296,-2.7672,-2.76,-2.7717,-2.7754,-2.7711,-2.7931,-2.7998,-2.797,-2.8034,-2.7992,-2.7933,-2.8685,-2.8618,-2.802,-2.8797,-2.871,-2.8133,-2.8929,-2.9181,-2.9013,-2.8267,-2.7992,-2.8106,0.4903,0.4853,0.4834,0.4831,0.4773,0.4738,0.4735,0.4474,0.4497,0.5088,0.5184,0.543,0.6022,0.5665,0.4971,0.3917,0.5584,0.0,0.0,0.0,0.0,0.0,0.0,0.0,0.0,0.0,0.0,0.0,0.0,0.0,0.0,0.0,0.0,0.0,0.0,0.0,0.0,0.0,0.0,0.0,0.0,0.0,0.416,0.3521,0.3242,0.3201,0.2788,0.2815,0.0,0.0,0.2905,0.3069,0.3355,0.3202,0.2473,0.0087,-0.0778,0.0,-0.3691,0.0,0.0,0.0,-0.6472,-1.0339,-0.6826,-1.0419,-1.516,-1.7529,-1.8839,-2.0425,-2.3234,-2.3902,-2.4133,0.0,-2.4613,-2.4822,-2.5015,-2.5069,-2.5197,-2.5449,-2.5432,-2.5379,-2.5354,-2.5129,-2.5069,-2.5316,-2.5362,-2.5615,-2.6126,-2.6534,-2.6977,-2.7437,-2.7892,-2.8072,-2.8026,-2.8104,-2.8135,-2.8121,-2.8656,-2.888,-2.8868,-2.9336,-2.9528,-2.9486,-2.9853,-2.9829,-2.9543,-2.9904,-2.986,-2.9603,-3.0,-3.015,-3.0115,-2.9713,-2.9564,-2.9613,0.4822,0.4754,0.4724,0.4698,0.4598,0.4532,0.4634,0.4217,0.4062,0.4471,0.4516,0.4622,0.4884,0.5046,0.4223,0.1949,0.339,0.4968,0.0,0.0,0.0,0.0,0.0,0.0,0.0,0.0,0.0,0.0,0.0,0.0,0.0,0.0,0.0,0.0,0.0,0.0,0.0,0.0,0.0,0.0,0.0,0.0,0.3354,0.2885,0.2345,0.1823,0.1428,0.1566,0.0,0.0,0.1316,0.1545,0.1651,0.1525,0.0794,-0.2129,-0.3595,-0.4565,-0.6103,0.0,0.0,-0.6741,-1.1463,-1.6426,-1.3723,-1.7232,-2.1379,-2.2625,-2.3378,-2.3916,-2.4179,-2.4433,-2.4598,-2.4541,-2.4844,-2.5085,-2.5116,-2.5266,-2.5399,-2.5429,-2.55,-2.5542,-2.5578,-2.529,-2.5214,-2.5531,-2.5595,-2.5974,-2.675,-2.7053,-2.7596,-2.8416,-2.8764,-2.8925,-2.8863,-2.8928,-2.8949,-2.8951,-2.9546,-2.9784,-2.9786,-3.0341,-3.0599,-3.061,-3.061,-3.061,-3.0626,-3.0626,-3.0633,-3.0656,-3.07,-3.0735,-3.072,-3.0735,-3.072,-3.0691,0.4809,0.4799,0.4783,0.4706,0.4325,0.4132,0.4454,0.4157,0.3762,0.3404,0.3457,0.3209,0.2314,0.3263,0.2729,-0.033,0.0055,0.2023,0.5688,0.6035,0.0,0.0,0.0,0.0,0.0,0.0,0.0,0.0,0.0,0.0,0.0,0.0,0.0,0.0,0.0,0.0,0.0,0.0,0.0,0.0,0.0,0.0,0.2664,0.2201,0.1513,0.07,0.0428,0.0,0.0,0.0,-0.1221,-0.1378,-0.1366,-0.1558,0.0,-0.5369,-0.8188,0.0,0.0,0.0,-1.2787,-1.456,-1.6338,-1.8164,-2.004,-2.1356,-2.2418,-2.3374,-2.3744,-2.397,-2.4245,-2.4465,-2.4662,-2.4842,-2.5117,-2.5317,-2.538,-2.5331,-2.535,-2.5476,-2.544,-2.5428,-2.5497,-2.5545,-2.5613,-2.5682,-2.5702,-2.6074,-2.6932,-2.7791,-2.8651,-2.9511,-3.037,-3.082,-3.082,-3.082,-3.0818,-3.0818,-3.0836,-3.0784,-3.0661,-3.0613,-3.0593,-3.0593,-3.0593,-3.0633,-3.0706,-3.0706,-3.0732,-3.0799,-3.0799,-3.0799,-3.0799,-3.0799,-3.0759,-3.0691,0.4288,0.4051,0.3872,0.3843,0.3678,0.3564,0.3628,0.3296,0.3074,0.3157,0.3248,0.0,0.0,0.0,0.0,0.0,0.1332,0.2036,0.2364,0.3989,0.0,0.0,0.0,0.0,0.0,0.0,0.0,0.0,0.0,0.0,0.0,0.0,0.0,0.0,0.0,0.0,0.0,0.0,0.0,0.0,0.0,0.0,0.2587,0.1373,0.066,0.0,0.0,0.0,0.0,0.0,0.0,0.0,-0.2953,0.0,0.0,-0.8398,0.0,0.0,0.0,0.0,-1.4011,-1.4929,-1.6626,-1.8324,-1.9253,-2.0463,-2.1714,-2.279,-2.2691,-2.2668,-2.3356,-2.3781,-2.4049,-2.4155,-2.4813,-2.533,-2.5393,-2.5379,-2.5396,-2.5483,-2.5478,0.0,0.0,-2.5523,0.0,-2.5562,-2.611,-2.6821,-2.7679,-2.856,-2.9425,-3.0297,-3.0609,-3.0791,-3.0821,-3.0823,-3.0832,-3.084,-3.0875,-3.0838,-3.0696,-3.0672,-3.0661,-3.0661,-3.0661,-3.0691,-3.0768,-3.0768,-3.0774,-3.0801,-3.0801,-3.0801,-3.0801,-3.0801,-3.0791,-3.0751,0.3902,0.3607,0.3409,0.3409,0.3202,0.0,0.0,0.0,0.0,0.0,0.0,0.0,0.0,0.0,0.0,0.0,0.0,0.0734,0.0407,0.0,0.0,0.0,0.0,0.0,0.0,0.0,0.0,0.0,0.0,0.0,0.0,0.0,0.0,0.0,0.0,0.0,0.0,0.0,0.0,0.0,0.0,0.0,0.1464,0.0203,-0.0567,0.0,0.0,0.0,0.0,0.0,0.0,0.0,0.0,0.0,0.0,0.0,0.0,-1.3138,0.0,-1.5073,-1.5401,-1.6217,-1.7575,-1.8877,-1.9526,-2.043,-2.1348,-2.2125,-2.2106,-2.2052,-2.2446,-2.2903,-2.3332,-2.3736,-2.4339,-2.4888,-2.5279,-2.5337,-2.5357,-2.5411,-2.569,-2.588,0.0,0.0,0.0,-2.5546,-2.632,-2.719,-2.8092,-2.8934,-2.9801,-3.0672,-3.0711,-3.0739,-3.0798,-3.0801,-3.0799,-3.0799,-3.0838,-3.0825,-3.0746,-3.0735,-3.0732,-3.0732,-3.0732,-3.0765,-3.0801,-3.0801,-3.0801,-3.0801,-3.0801,-3.0801,-3.0801,-3.0801,-3.0801,-3.0801,0.3621,0.344,0.333,0.0,0.0,0.0,0.0,0.0,0.0,0.0,0.0,0.0,0.0,0.0,0.0,0.0,0.0,0.0,0.0,0.0,0.0,0.0,0.0,0.0,-0.124,-0.0587,0.0,0.0,0.0,0.0,0.0,0.0,0.0,0.0,0.0,0.0,0.0,0.0,0.0,0.0,0.0,0.0,-0.0551,-0.1286,0.0,0.0,0.0,0.0,0.0,0.0,0.0,0.0,0.0,0.0,0.0,0.0,0.0,-1.4837,-1.604,-1.6457,-1.6928,-1.8493,-1.9132,-1.9737,-2.0911,-2.1209,-2.1236,-2.1472,-2.1803,-2.1924,0.0,0.0,-2.2552,-2.3517,-2.3774,-2.4164,-2.5056,-2.522,-2.528,0.0,0.0,0.0,0.0,0.0,0.0,-2.576,-2.6432,-2.7279,-2.8199,-2.9017,-2.9835,-3.0662,-3.0677,-3.073,-3.079,-3.0785,-3.0782,-3.0796,-3.0801,-3.08,-3.08,-3.079,-3.0801,-3.0801,-3.0801,-3.0801,-3.0801,-3.0801,-3.0801,-3.0801,-3.0801,-3.0801,-3.0801,-3.0801,-3.0801,-3.0801,0.0,0.0,0.0,0.0,0.0,0.0,0.0,0.0,0.0,0.0,0.0,0.0,0.0,0.0,0.0,0.0,0.0,0.0,0.0,0.0,0.0,0.0,0.0,0.0,0.0,0.0,0.0,0.0,0.0,0.0,0.0,0.0,0.0,0.0,0.0,0.0,0.0,0.0,0.0,0.0,0.0,0.0,-0.1319,0.0,0.0,0.0,0.0,0.0,0.0,0.0,0.0,0.0,0.0,0.0,-1.3524,0.0,0.0,-1.6027,-1.6821,-1.7308,-1.7722,-1.8143,-1.8831,-1.95,-1.9864,-1.9777,-1.9703,-2.0084,-1.9476,-1.8955,-1.9144,0.0,0.0,-2.1763,-2.3417,0.0,-2.4955,-2.5565,0.0,-2.5907,0.0,-2.7344,-2.7344,-2.7216,0.0,0.0,-2.7479,-2.8025,-2.8958,-2.9737,-3.0279,-3.061,-3.0492,-3.0482,-3.0651,-3.07,-3.072,-3.0723,-3.0784,-3.0792,-3.0792,-3.08,-3.0797,-3.0796,-3.0806,-3.0801,-3.0801,-3.0801,-3.0801,-3.0801,-3.0801,-3.0801,-3.0801,-3.0801,-3.0801,-3.0801,0.0,0.0,0.0,0.0,0.0,0.0,0.0,0.0,0.0,0.0,0.0,0.0,0.0,0.0,0.0,0.0,0.0,0.0,0.0,0.0,0.0,0.0,0.0,0.0,0.0,0.0,0.0,0.0,0.0,0.0,0.0,0.0,0.0,0.0,0.0,0.0,0.0,0.0,0.0,0.0,0.0,0.0,0.0,0.0,0.0,0.0,0.0,0.0,0.0,0.0,0.0,-1.061,-1.2083,-1.3443,-1.4738,-1.6233,0.0,-1.7001,-1.7726,-1.8145,-1.8383,-1.8616,-1.9288,-1.9817,-1.9375,-1.9343,-1.9131,-1.8104,-1.7738,0.0,-1.6648,0.0,0.0,0.0,0.0,0.0,-2.4757,-2.5603,-2.6143,0.0,-2.7253,0.0,-2.8037,-2.7945,-2.8112,0.0,-2.8466,-2.8518,-2.9044,-2.9894,-3.0367,-3.0375,-3.033,-3.0359,-3.0472,-3.0556,-3.0614,-3.0613,-3.0715,-3.0758,-3.0768,-3.0793,-3.08,-3.0801,-3.0796,-3.0792,-3.0792,-3.0804,-3.0801,-3.0801,-3.0801,-3.0806,-3.0792,-3.0792,-3.0795,-3.0798,0.0,0.0,0.0,0.0,0.0,0.0,0.0,0.0,0.0,0.0,0.0,0.0,0.0,0.0,0.0,0.0,0.0,0.0,0.0,0.0,0.0,0.0,0.0,0.0,0.0,0.0,0.0,0.0,0.0,0.0,0.0,0.0,0.0,0.0,0.0,0.0,0.0,0.0,0.0,0.0,0.0,0.0,0.0,0.0,0.0,0.0,0.0,0.0,0.0,0.0,-0.9414,-1.1591,-1.3178,-1.4704,-1.619,-1.7514,-1.7814,-1.7881,-1.8531,-1.8774,-1.8898,-1.9347,-1.9943,-2.0193,-1.9177,-1.9217,-1.8687,-1.6064,0.0,-1.6297,-1.4355,-1.6293,-1.8535,-1.9595,0.0,-2.2867,-2.452,-2.5458,-2.6054,-2.6197,-2.7607,-2.8626,-2.872,-2.8723,-2.9042,-2.9842,-2.9262,-2.8903,-2.8973,-2.9786,-3.0207,-3.008,-3.0221,-3.0299,-3.0283,-3.0424,-3.0481,-3.049,-3.0633,-3.0691,-3.0691,-3.0768,-3.0806,-3.0795,-3.0801,-3.08,-3.08,-3.0793,-3.0808,-3.0808,-3.0808,-3.0795,-3.08,-3.08,-3.0801,-3.0797,0.0,0.0,0.0,0.0,0.0,0.0,0.0,0.0,0.0,0.0,0.0,0.0,0.0,0.0,0.0,0.0,0.0,0.0,0.0,0.0,0.0,0.0,0.0,0.0,0.0,0.0,0.0,0.0,0.0,0.0,0.0,0.0,0.0,0.0,0.0,0.0,0.0,0.0,0.0,0.0,0.0,0.0,0.0,0.0,0.0,0.0,0.0,0.0,0.0,0.0,-0.9719,-1.1213,-1.263,-1.4619,-1.6634,-1.7528,-1.814,-1.8545,-1.8644,-1.8827,-1.8979,-1.9055,-1.9366,-1.9421,-1.8742,-1.7801,0.0,0.0,0.0,-1.3579,-1.3454,-1.5138,0.0,-1.9281,0.0,0.0,0.0,0.0,-2.6134,0.0,0.0,0.0,0.0,0.0,0.0,0.0,-2.955,-2.949,-2.9764,-2.9954,-3.0019,-2.9937,-3.0166,-3.026,-3.0222,-3.0344,-3.0451,-3.0492,-3.0642,-3.0691,-3.0698,-3.0767,-3.0796,-3.0799,-3.0795,-3.0799,-3.0799,-3.08,-3.08,-3.08,-3.08,-3.08,-3.0799,-3.0799,-3.0798,-3.0797,0.0,0.0,0.0,0.0,0.0,0.0,0.0,0.0352,-0.0179,-0.1259,-0.1211,0.0,0.0,0.0,0.0,0.0,0.0,0.0,0.0,0.0,0.0,0.0,0.0,0.0,0.0,0.0,0.0,0.0,0.0,0.0,0.0,0.0,0.0,0.0,0.0,0.0,0.0,0.0,0.0,0.0,0.0,0.0,0.0,0.0,0.0,0.0,0.0,0.0,0.0,0.0,-0.9144,-1.0977,-1.2916,-1.4902,-1.6664,-1.7504,-1.8198,-1.8711,-1.8841,-1.8917,-1.9031,-1.9055,-1.9368,-1.9335,-1.7888,0.0,0.0,0.0,0.0,-1.2184,-1.1507,0.0,0.0,0.0,0.0,0.0,0.0,0.0,0.0,0.0,0.0,0.0,0.0,0.0,-2.945,-2.9569,-2.9491,-2.9531,-2.9734,-2.9806,-2.9842,-2.9841,-3.0019,-3.0094,-3.0041,-3.0188,-3.0286,-3.0336,-3.0441,-3.0548,-3.0642,-3.0685,-3.0735,-3.079,-3.0799,-3.0806,-3.0808,-3.0795,-3.0797,-3.0797,-3.0797,-3.0793,-3.0806,-3.0806,-3.0799,-3.0807,0.0,0.0,0.0,0.0,0.0,0.0,0.0,-0.0315,-0.0438,-0.1283,-0.1402,-0.148,-0.1683,-0.175,-0.1839,0.0,0.0,0.0,0.0,0.0,0.0,0.0,0.0,0.0,0.0,0.0,0.0,0.0,0.0,0.0,0.0,0.0,0.0,0.0,0.0,0.0,0.0,0.0,0.0,0.0,0.0,0.0,0.0,0.0,0.0,0.0,0.0,0.0,0.0,0.0,-0.8653,-1.0573,-1.2829,-1.4758,-1.6327,-1.7236,-1.8001,-1.8617,-1.8912,-1.9031,-1.9055,-1.9139,-1.9382,-1.9116,-1.7216,-1.6238,0.0,0.0,0.0,-1.1149,-1.0057,0.0,0.0,0.0,0.0,0.0,0.0,0.0,0.0,0.0,0.0,0.0,0.0,0.0,0.0,-2.9407,-2.9409,-2.947,-2.955,-2.9645,-2.9738,-2.9825,-2.9874,-2.9888,-2.9888,-3.0015,-3.0123,-3.0171,-3.0286,-3.0389,-3.0548,-3.0565,-3.0622,-3.0722,-3.0735,-3.0755,-3.0755,-3.0782,-3.0808,-3.0808,-3.0808,-3.0799,-3.0804,-3.0804,-3.0806,-3.0799,0.0,0.0,0.0,0.0,0.0,0.0,0.0,-0.0736,-0.1296,-0.1378,-0.141,-0.141,-0.1433,-0.1607,-0.1784,0.0,0.0,0.0,0.0,0.0,0.0,0.0,0.0,0.0,0.0,0.0,0.0,0.0,0.0,0.0,0.0,0.0,0.0,0.0,0.0,0.0,0.0,0.0,0.0,0.0,0.0,0.0,0.0,0.0,0.0,0.0,0.0,0.0,0.0,0.0,0.0,-0.9666,-1.1238,-1.3415,-1.5607,-1.6585,0.0,0.0,-1.8821,-1.9055,-1.9139,-1.9339,-1.8854,-1.811,-1.7203,0.0,0.0,0.0,-1.0794,-1.0003,-1.0585,-1.094,0.0,0.0,0.0,0.0,0.0,0.0,0.0,0.0,0.0,0.0,0.0,0.0,-2.9407,-2.9407,-2.9451,-2.955,-2.9664,-2.9683,-2.9774,-2.9891,-2.9907,-2.9888,-2.9888,-3.0015,-3.0109,-3.0109,-3.0304,-3.0367,-3.0329,-3.0443,-3.0482,-3.0452,-3.0571,-3.0614,-3.0639,-3.0755,-3.0793,-3.0793,-3.0793,-3.0808,-3.0808,-3.0808,-3.0804,-3.0799,0.0,0.0,0.0,0.0,0.0,0.0,0.0,-0.0454,-0.0838,-0.0964,-0.0985,-0.0983,-0.0983,-0.1161,-0.1383,0.0,0.0,0.0,0.0,0.0,0.0,0.0,0.0,0.0,0.0,0.0,0.0,0.0,0.0,0.0,0.0,0.0,0.0,0.0,0.0,0.0,0.0,0.0,0.0,0.0,0.0,0.0,0.0,0.0,0.0,0.0,0.0,0.0,0.0,0.0,0.0,0.0,-0.972,-1.1405,0.0,0.0,-1.6613,-1.7582,-1.8317,-1.8788,-1.9139,-1.9339,-1.9065,-1.8427,-1.7272,0.0,-1.3543,-1.218,-1.0667,-0.9704,-1.0029,-1.0474,-1.1572,0.0,0.0,0.0,0.0,0.0,0.0,0.0,0.0,0.0,0.0,0.0,-2.9407,-2.9407,-2.9451,-2.9569,-2.9683,-2.9738,-2.979,-2.9841,-2.9891,-2.9888,-2.9888,-2.9953,-3.0003,-3.0034,-3.0118,-3.0215,-3.029,-3.0356,-3.0402,-3.0472,-3.0563,-3.0579,-3.0543,-3.0685,-3.0728,-3.0697,-3.0769,-3.0799,-3.0799,-3.0799,-3.0799,-3.0799,0.0,0.0,0.0,0.0,0.0,0.0293,0.0139,-0.0115,-0.0341,-0.0464,-0.0624,-0.0695,-0.069,-0.0769,-0.0963,-0.1314,0.0,0.0,0.0,0.0,0.0,0.0,0.0,0.0,0.0,0.0,0.0,0.0,0.0,0.0,0.0,0.0,0.0,0.0,0.0,0.0,0.0,0.0,0.0,0.0,0.0,0.0,0.0,0.0,0.0,0.0,0.0,0.0,0.0,0.0,0.0,0.0,0.0,0.0,0.0,0.0,-1.5639,-1.691,-1.7768,-1.8433,-1.8877,-1.9046,-1.8824,-1.8211,0.0,0.0,-1.3392,-1.2177,-1.0685,-0.9595,-0.9609,-1.0255,-1.1269,0.0,-1.3346,-1.4717,-1.778,0.0,0.0,0.0,0.0,0.0,0.0,-2.9258,-2.9407,-2.9429,-2.9511,-2.9589,-2.9683,-2.9773,-2.9823,-2.9823,-2.9891,-2.9888,-2.9888,-2.9888,-2.9905,-2.9972,-2.9988,-3.006,-3.0182,-3.0228,-3.0273,-3.0348,-3.0462,-3.0472,-3.0452,-3.0587,-3.062,-3.062,-3.0685,-3.0753,-3.0799,-3.0764,-3.0769,-3.0799,0.0,0.0,0.0,0.0,0.0,0.0,0.0,0.0172,-0.0,-0.0,-0.0413,-0.0695,-0.069,-0.0516,-0.0618,-0.1156,0.0,0.0,0.0,0.0,0.0,0.0,0.0,0.0,0.0,0.0,0.0,0.0,0.0,0.0,0.0,0.0,0.0,0.0,0.0,0.0,0.0,0.0,0.0,0.0,0.0,0.0,0.0,0.0,0.0,0.0,0.0,0.0,0.0,0.0,0.0,0.0,0.0,0.0,0.0,0.0,-1.4454,-1.6065,-1.7277,-1.79,-1.8237,-1.839,-1.78,-1.7011,0.0,-1.4153,-1.234,-1.2057,-1.0722,-0.9603,-0.9589,-1.0271,-1.1086,-1.1966,-1.3453,-1.5356,-1.7854,0.0,0.0,0.0,0.0,0.0,-2.7956,-2.8905,-2.9429,-2.9492,-2.9626,-2.9701,-2.9701,-2.9842,-2.9888,-2.9888,-2.9888,-2.9888,-2.9888,-2.9888,-2.9888,-2.9888,-2.9972,-2.9972,-2.9905,-3.0038,-3.0072,-3.0022,-3.0228,-3.0285,-3.0297,-3.0452,-3.0535,-3.0586,-3.0518,-3.063,-3.0774,-3.0659,-3.0697,-3.0799,0.0,0.0,0.0,0.0,0.0,0.0,0.0,0.0174,-0.0,-0.0,-0.0124,-0.0215,-0.0222,-0.0333,-0.0546,-0.0904,0.0,0.0,0.0,0.0,0.0,0.0,0.0,0.0,0.0,0.0,0.0,0.0,0.0,0.0,0.0,0.0,0.0,0.0,0.0,0.0,0.0,0.0,0.0,0.0,0.0,0.0,0.0,0.0,0.0,0.0,0.0,0.0,0.0,0.0,0.0,0.0,0.0,0.0,0.0,-1.1045,-1.272,0.0,-1.5261,-1.5918,-1.628,-1.5909,-1.5919,-1.5728,-1.4489,-1.3524,-1.2538,-1.1372,-1.0313,-0.9595,-0.9591,-0.9816,-1.0802,-1.3332,0.0,0.0,0.0,0.0,0.0,0.0,0.0,0.0,0.0,0.0,-2.9451,-2.9429,-2.9626,-2.9701,-2.9569,-2.9261,-2.9323,-2.9823,-2.9891,-2.9888,-2.9888,-2.9888,-2.9888,-2.9888,-2.9905,-2.994,-2.9972,-3.0022,-3.0057,-3.0068,-3.0174,-3.0215,-3.0174,-3.0348,-3.0423,-3.0404,-3.0463,-3.0571,-3.0665,-3.062,-3.0678,-3.0799,0.0,0.0,0.0,0.0,0.0,0.0,0.0,0.0216,-0.0,-0.0,-0.0,-0.0064,-0.0251,-0.0342,-0.0509,-0.0771,0.0,0.0,0.0,0.0,0.0,0.0,0.0,0.0,0.0,0.0,0.0,0.0,0.0,0.0,0.0,0.0,0.0,0.0,0.0,0.0,0.0,0.0,0.0,0.0,0.0,0.0,-0.7382,0.0,0.0,0.0,0.0,0.0,0.0,0.0,0.0,0.0,0.0,0.0,0.0,0.0,-1.1456,-1.269,0.0,-1.4259,-1.4599,-1.4237,-1.4384,-1.4314,-1.3204,-1.2552,-1.1916,-1.0929,-1.0114,-0.9568,-0.9591,-1.0141,-1.124,-1.3269,0.0,0.0,0.0,0.0,0.0,0.0,0.0,0.0,0.0,-2.9077,-2.9339,-2.9021,-2.9158,-2.908,-2.8652,-2.8393,-2.8417,-2.8846,-2.8947,-2.9147,-2.9434,-2.9453,-2.9585,-2.9888,-2.9888,-2.9905,-2.9956,-2.9956,-3.0007,-3.0072,-3.0123,-3.0138,0.0,-3.026,-3.0302,-3.0302,-3.0367,-3.0453,-3.0568,-3.0507,-3.0568,-3.0691,0.0,0.0,0.0,0.0,0.0,0.0,0.0,0.0,0.0,-0.0,-0.0,-0.0173,-0.065,-0.0531,-0.051,-0.0726,0.0,0.0,0.0,0.0,0.0,0.0,0.0,0.0,0.0,0.0,0.0,0.0,-0.8581,-0.7965,-0.6922,0.0,0.0,0.0,0.0,0.0,0.0,0.0,0.0,0.0,-0.8116,-0.7975,0.0,0.0,0.0,0.0,0.0,0.0,0.0,0.0,0.0,0.0,0.0,0.0,0.0,0.0,0.0,0.0,0.0,-1.284,-1.3113,-1.3143,-1.3044,-1.2769,-1.2146,-1.1335,0.0,-1.0703,-1.0069,-0.957,-0.9735,-1.1045,-1.2197,-1.2491,0.0,0.0,0.0,0.0,0.0,0.0,0.0,0.0,-2.699,-2.8403,-2.9001,-2.8259,-2.8277,-2.7975,-2.7225,-2.7311,-2.7339,-2.7226,-2.7282,-2.7725,-2.86,-2.86,-2.9017,-2.9813,-2.9813,-2.9832,-2.9888,-2.9888,-2.994,-3.0007,-3.0072,-3.0098,-3.0109,-3.0171,-3.0247,-3.0297,-3.0221,-3.0316,-3.0472,-3.0348,-3.0381,-3.0501,0.0,0.0,0.0,0.0,0.0,0.0,0.0,0.0,0.0,0.0,-0.0,-0.018,-0.0648,-0.0657,-0.0534,0.0,0.0,0.0,0.0,0.0,0.0,0.0,0.0,0.0,0.0,0.0,0.0,-0.9305,-0.8769,-0.8367,-0.8077,-0.6876,0.0,0.0,0.0,0.0,0.0,0.0,0.0,0.0,-0.7533,-0.7548,0.0,0.0,0.0,0.0,-0.8408,-0.8457,0.0,0.0,0.0,0.0,0.0,0.0,0.0,0.0,-0.9889,-0.9951,-1.032,0.0,-1.1176,-1.0638,-1.0875,-1.1066,0.0,-1.0428,-1.0521,0.0,0.0,-0.9958,-1.1214,-1.1269,-1.2382,0.0,0.0,0.0,0.0,0.0,0.0,0.0,-2.6656,-2.7139,-2.7771,-2.8258,-2.8203,-2.7307,-2.7397,-2.7356,-2.7063,-2.665,-2.6408,-2.6381,-2.5863,-2.6299,-2.7778,-2.7778,-2.818,-2.8979,-2.8979,-2.9301,-2.9888,-2.9888,-2.9905,-2.994,-3.0038,-3.0102,-3.0117,-3.0157,-3.0213,-3.0221,-3.0199,-3.0254,-3.0348,-3.0314,-3.0381,-3.0501,0.0,0.0,0.0,0.0,0.0,0.0,0.0,0.0,0.0,0.0,0.0,0.0,0.0,0.0,0.0,0.0,0.0,0.0,0.0,0.0,0.0,0.0,0.0,0.0,0.0,0.0,0.0,0.0,0.0,-0.6533,0.0,0.0,0.0,0.0,0.0,0.0,0.0,0.0,0.0,0.0,-0.7701,0.0,0.0,0.0,0.0,0.0,-0.8504,-0.8533,0.0,-0.8977,-0.9132,-0.9178,0.0,0.0,0.0,0.0,-0.9699,-0.9675,-0.9759,-1.0531,-1.1204,-1.0804,-1.1004,-1.1167,-1.0702,0.0,0.0,0.0,0.0,0.0,-1.1379,0.0,0.0,0.0,0.0,0.0,0.0,0.0,0.0,0.0,-2.6117,-2.6526,0.0,-2.7419,-2.7345,-2.6451,-2.6536,-2.6435,-2.6008,-2.5672,-2.554,-2.5588,-2.521,-2.5617,-2.6887,-2.6906,-2.7308,-2.8142,-2.8521,-2.8922,-2.9339,-2.9339,-2.9371,-2.9402,-2.9464,-2.9527,-2.9575,-3.0018,-3.0204,-3.0204,-3.0204,-3.0221,-3.0254,-3.0254,-3.0304,-3.0375,0.0,0.0,0.0,0.0,0.0,0.0,0.0,0.0,0.0,0.0,0.0,0.0,0.0,0.0,0.0,0.0,0.0,0.0,0.0,0.0,0.0,0.0,0.0,0.0,0.0,0.0,0.0,0.0,0.0,0.0,0.0,0.0,0.0,0.0,0.0,0.0,0.0,0.0,0.0,0.0,-0.7727,0.0,0.0,0.0,0.0,0.0,0.0,0.0,0.0,-0.9125,-0.9303,-0.9371,-0.9668,0.0,0.0,0.0,0.0,0.0,-1.0207,-1.1352,-1.2343,-1.1928,-1.2019,-1.2156,-1.1968,0.0,0.0,0.0,0.0,0.0,0.0,0.0,0.0,0.0,0.0,0.0,0.0,0.0,0.0,0.0,-2.528,0.0,-2.5707,-2.6376,-2.6467,-2.5682,-2.5675,-2.5437,-2.4817,-2.4794,-2.4856,-2.4996,-2.501,-2.5332,-2.6015,-2.6034,-2.6451,-2.7304,-2.7991,-2.8389,-2.8521,-2.8521,-2.8552,-2.8608,-2.8622,-2.8722,-2.8968,-2.9707,-3.007,-3.0204,-3.0204,-3.0204,-3.0204,-3.0204,-3.0204,-3.0213,0.0,0.0,0.0,0.0,0.0,0.0,0.0,0.0,0.0,0.0,0.0,0.0,0.0,0.0,0.0,0.0,0.0,0.0,0.0,0.0,0.0,0.0,0.0,0.0,0.0,0.0,0.0,0.0,0.0,0.0,-0.0283,-0.3113,-0.5682,0.0,0.0,0.0,0.0,0.0,0.0,-0.6087,-0.5691,0.0,0.0,0.0,0.0,0.0,0.0,0.0,0.0,-0.9045,-0.9153,-0.9107,-0.9808,0.0,0.0,0.0,0.0,0.0,-1.1752,-1.3306,-1.391,-1.1649,-1.2087,-1.2914,0.0,0.0,0.0,0.0,0.0,0.0,0.0,0.0,0.0,0.0,0.0,0.0,0.0,0.0,-2.4901,-2.5533,0.0,-2.5707,-2.5778,-2.5907,-2.5645,-2.4841,-2.4848,-2.4839,-2.4723,-2.4764,-2.4856,-2.4996,-2.501,-2.5067,-2.5181,-2.5181,-2.5598,-2.6413,-2.6513,-2.6963,-2.7675,-2.7665,-2.7713,-2.7785,-2.7785,-2.8212,-2.8921,-2.9044,-2.9535,-3.0204,-3.0204,-3.0204,-3.0204,-3.0204,-3.0204,-3.0226,0.0,0.0,0.0,0.0,0.0,0.0,0.0,0.0,0.0,0.0,0.0,0.0,0.0,0.0,0.0,0.0,0.0,0.0,0.0,0.0,0.0,0.0,0.0,0.0,0.0,0.0,0.0,0.0,0.0,0.3048,0.2881,-0.1633,-0.5389,-0.8319,0.0,0.0,0.0,0.0,0.0,-0.6056,0.0,0.0,0.0,0.0,0.0,0.0,0.0,0.0,0.0,0.0,-0.9073,-0.9235,-0.9897,0.0,0.0,0.0,0.0,0.0,-1.101,-1.2376,-1.3369,-1.2647,-1.402,-1.545,0.0,0.0,0.0,0.0,0.0,0.0,0.0,0.0,0.0,0.0,0.0,-2.4689,-2.5011,-2.4885,-2.4859,0.0,0.0,-2.5125,-2.5159,-2.5174,-2.5073,-2.4726,-2.4738,-2.4783,-2.4861,-2.4827,-2.4856,-2.4996,-2.501,-2.501,-2.501,-2.501,-2.52,-2.556,-2.5996,-2.6413,-2.6788,-2.684,-2.6873,-2.6909,-2.6955,-2.7458,-2.8286,-2.872,-2.9421,-3.0204,-3.0204,-3.0204,-3.0204,-3.0204,-3.0273,-3.0386,0.0,0.0,0.0,0.0,0.0,0.0,0.0,0.0,0.0,0.0,0.0,0.0,0.0,0.0,0.0,0.0,0.0,0.0,0.0,0.0,0.0,0.0,0.0,0.0,0.0,0.0,0.0,0.8478,0.6983,0.5859,0.4999,0.0103,-0.41,0.0,0.0,0.0,0.0,0.0,0.0,-0.5662,0.0,0.0,0.0,0.0,0.0,0.0,0.0,0.0,0.0,0.0,0.0,0.0,0.0,0.0,0.0,-1.0117,-1.0089,-1.014,-1.061,-1.1574,-1.2789,-1.4115,0.0,-1.7038,0.0,0.0,0.0,0.0,0.0,0.0,0.0,0.0,0.0,0.0,-2.4869,-2.5264,-2.5321,-2.5069,-2.4858,-2.4795,-2.47,-2.466,-2.4692,-2.4707,-2.4734,-2.4794,-2.4827,-2.4889,-2.495,-2.4889,-2.4903,-2.4996,-2.501,-2.501,-2.501,-2.501,-2.501,-2.501,-2.5636,-2.592,-2.592,-2.5967,-2.6007,-2.6028,-2.6073,-2.6587,-2.7434,-2.8064,-2.8829,-2.9631,-2.9822,-3.0013,-3.0204,-3.0204,-3.0328,-3.0501,0.0,0.0,0.0,0.0,0.0,0.0,0.0,0.0,0.0,0.0,0.0,0.0,0.0,0.0,0.0,0.0,0.0,0.0,0.0,0.0,0.0,0.0,0.0,0.0,0.0,0.5981,0.7328,0.9855,0.9713,0.8082,0.5067,0.3381,0.0184,0.0,0.0,0.0,0.0,0.0,0.0,-0.4006,-0.4309,0.0,0.0,0.0,0.0,0.0,0.0,0.0,0.0,0.0,0.0,0.0,0.0,0.0,-1.0182,-1.0185,-1.0181,-1.0546,-1.2164,-1.2634,-1.3286,-1.5772,0.0,0.0,0.0,0.0,0.0,0.0,0.0,0.0,0.0,0.0,0.0,0.0,-2.5352,-2.5393,-2.5393,0.0,-2.5163,-2.5072,-2.4904,-2.4842,-2.4966,-2.4851,-2.4794,-2.4794,-2.4917,-2.495,-2.4827,-2.4917,-2.4996,-2.501,-2.501,-2.501,-2.501,-2.501,-2.501,-2.501,-2.5067,-2.5099,-2.5088,-2.5088,-2.5127,-2.5196,-2.5177,-2.5678,-2.6498,-2.6555,-2.709,-2.795,-2.8701,-2.9497,-3.0204,-3.0204,-3.0328,-3.0501,0.0,0.0,0.0,0.0,0.0,0.0,0.0,0.0,0.0,0.0,0.0,0.0,0.0,0.0,0.0,0.0,0.0,0.0,0.0,0.0,0.0,0.0,0.0,0.3263,0.5151,0.5055,0.5428,0.6325,0.7157,0.639,0.4075,0.2738,0.0,0.0,0.0,0.0,0.0,0.0,0.0,0.0,-0.3988,-0.4539,0.0,0.0,0.0,0.0,0.0,0.0,0.0,0.0,-0.8372,-0.9077,0.0,-1.0253,-1.0254,-1.0265,-1.0254,-1.0403,-1.1017,-1.1964,-1.3267,-1.5348,0.0,0.0,0.0,0.0,0.0,0.0,0.0,0.0,0.0,0.0,0.0,0.0,-2.5452,-2.549,-2.5511,-2.5418,-2.5274,-2.5184,-2.5053,-2.4987,-2.4993,-2.4953,-2.4926,-2.4917,-2.4964,-2.4977,-2.4936,-2.4964,-2.501,-2.501,-2.501,-2.501,-2.501,-2.501,-2.501,-2.501,-2.501,-2.5004,-2.4993,-2.5038,-2.5082,-2.5113,-2.5137,-2.5626,-2.6402,-2.6402,-2.6918,-2.774,-2.8026,-2.8657,-2.9402,-2.9487,-2.9924,-3.051,0.0,0.0,0.0,0.0,0.0,0.0,0.0,0.0,0.0,0.0,0.0,0.0,0.0,0.0,0.0,0.0,0.0,0.0,0.0,0.0,0.0,0.0,0.0,0.2776,0.3911,0.3716,0.4,0.4792,0.61,0.5913,0.4299,0.0,0.0,0.0,0.0,0.0,0.0,0.0,0.0,0.0,-0.4098,-0.4643,0.0,0.0,0.0,0.0,0.0,0.0,0.0,0.0,-0.8316,0.0,0.0,0.0,-1.0263,-1.0293,-1.0486,-1.0679,-1.0618,-1.1686,-1.3224,0.0,0.0,0.0,0.0,0.0,0.0,0.0,0.0,0.0,0.0,0.0,0.0,0.0,-2.5499,-2.5511,-2.5595,-2.549,-2.5404,-2.5303,-2.5224,-2.5149,-2.5063,-2.5044,-2.5025,-2.501,-2.501,-2.501,-2.501,-2.501,-2.501,-2.501,-2.501,-2.501,-2.501,-2.501,-2.501,-2.501,-2.4991,-2.4985,-2.4993,-2.507,-2.5107,-2.5113,-2.5168,-2.5516,-2.602,-2.602,-2.6517,-2.73,-2.73,-2.795,-2.8905,-2.9008,-2.9666,-3.051,0.0,0.0,0.0,0.0,0.0,0.0,0.0,0.0,0.0,0.0,0.0,0.0,0.0,0.0,0.0,0.0,0.0,0.0,0.0,0.0,0.0,0.0,0.0,0.2166,0.2306,0.2169,0.3472,0.6262,0.7457,0.7377,0.6086,0.0,0.0,0.0,0.0,0.0,0.0,0.0,0.0,0.0,0.0,-0.5201,-0.5256,0.0,0.0,0.0,0.0,0.0,0.0,0.0,-0.8371,-0.9316,0.0,0.0,0.0,-1.0281,-1.0877,-1.1504,-1.1503,-1.2146,0.0,0.0,0.0,0.0,0.0,0.0,0.0,0.0,0.0,0.0,0.0,0.0,0.0,-2.5493,-2.549,-2.5522,-2.5589,-2.5543,-2.5511,-2.5511,-2.5376,-2.5284,-2.5203,-2.5141,-2.5063,-2.501,-2.501,-2.501,-2.501,-2.501,-2.501,-2.501,-2.501,-2.501,-2.501,-2.501,-2.501,-2.501,-2.4999,-2.4993,-2.4993,-2.5076,-2.5101,-2.5113,-2.5168,-2.5191,-2.5191,-2.5191,-2.5669,-2.6383,-2.6383,-2.7415,-2.8872,-2.8872,-2.9548,-3.0482,0.0,0.0,0.0,0.0,0.0,0.0,0.0,0.0,0.0,0.0,0.0,0.0,0.0,0.0,0.0,0.0,0.0,0.0,0.0,0.0,0.0,0.0,0.0,0.0,0.0,0.0,0.2748,0.3484,0.3841,0.4296,0.0,0.0,0.0,0.1947,0.0,0.0,0.0,0.0,0.0,0.0,0.0,-0.4817,-0.5274,0.0,0.0,0.0,0.0,0.0,0.0,0.0,0.0,0.0,0.0,0.0,0.0,-1.0399,-1.0822,-1.1505,-1.1503,-1.3032,0.0,0.0,0.0,0.0,0.0,0.0,0.0,0.0,0.0,0.0,0.0,0.0,0.0,-2.5574,-2.5568,-2.5587,-2.5601,-2.5583,-2.555,-2.5519,-2.5456,-2.5395,-2.5293,-2.5203,-2.5134,-2.5076,-2.5018,-2.501,-2.501,-2.501,-2.501,-2.501,-2.501,-2.501,-2.501,-2.501,-2.4991,-2.4999,-2.5057,-2.507,-2.507,-2.5088,-2.5125,-2.5168,-2.518,-2.5191,-2.5191,-2.5191,-2.5344,-2.5554,-2.5554,-2.6211,-2.716,-2.7248,-2.7903,-2.8827,0.0,0.0,0.0,0.0,0.0,0.0,0.0,0.0,0.0,0.0,0.0,0.0,0.0,0.0,0.0,0.0,0.0,0.0,0.0,0.0,0.0,0.0,0.0,0.0,0.0,0.3216,0.2904,0.0,0.0,0.0,0.0,0.0,0.0,0.1422,0.0,0.0,0.0,0.0,0.0,0.0,0.0,-0.4679,-0.5324,0.0,0.0,0.0,0.0,0.0,0.0,0.0,0.0,0.0,0.0,0.0,0.0,-1.0676,-1.1266,-1.2126,-1.2826,0.0,0.0,0.0,0.0,0.0,0.0,0.0,0.0,0.0,0.0,0.0,-2.5601,-2.5593,0.0,-2.5605,-2.5605,-2.561,-2.5604,-2.5582,-2.5551,-2.5503,-2.5499,-2.5448,-2.5302,-2.5244,-2.5168,-2.5113,-2.5044,-2.501,-2.501,-2.501,-2.501,-2.501,-2.501,-2.501,-2.501,-2.501,-2.5004,-2.4993,-2.507,-2.5101,-2.5095,-2.5132,-2.5168,-2.5191,-2.5191,-2.5191,-2.5191,-2.5191,-2.5191,-2.5191,-2.5191,-2.5688,-2.6414,-2.6488,-2.7103,-2.8009,0.0,0.0,0.2872,0.2872,0.0,0.0,0.0,0.0,0.0,0.0,0.0,0.0,0.0,0.0,0.0,0.2012,0.0,0.0,0.0,0.0,0.0,0.0,0.0,0.0,0.0,0.0,0.0,0.0,0.0,0.0,0.0,0.0,0.2255,-0.0498,0.0,-0.1583,0.0,0.0,0.0,0.0,-0.4183,-0.4736,-0.5384,-0.6052,0.0,0.0,0.0,0.0,0.0,0.0,0.0,0.0,-0.975,-0.9995,-1.0236,-1.0961,-1.1906,-1.3044,0.0,0.0,0.0,0.0,0.0,0.0,0.0,0.0,0.0,0.0,0.0,-2.5681,-2.5625,-2.5609,-2.5603,-2.5613,-2.5609,-2.5613,-2.5595,-2.5549,-2.5506,-2.5499,-2.5495,-2.5448,-2.533,-2.5254,-2.519,-2.5118,-2.5051,-2.5004,-2.5023,-2.501,-2.501,-2.501,-2.501,-2.501,-2.501,-2.501,-2.5004,-2.5012,-2.507,-2.5107,-2.5113,-2.5168,-2.5191,-2.5191,-2.5191,-2.5191,-2.5191,-2.5191,-2.5191,-2.5191,-2.5191,-2.565,-2.6288,-2.6288,-2.6841,-2.7574,0.0,0.0,0.3506,0.3506,0.0,0.0,0.0,0.0,0.0,0.2775,0.281,0.279,0.2529,0.2385,0.0,0.2317,0.2414,0.0,0.0,0.0,0.0,0.0,0.0,0.0,0.0,0.0,0.0,0.0,0.0,0.0,0.0,0.0,0.0,-0.0541,0.0,-0.2142,0.0,0.0,0.0,0.0,-0.4478,-0.4991,-0.5384,-0.6052,-0.6651,0.0,0.0,0.0,0.0,0.0,0.0,0.0,-0.9668,-1.0308,-1.0797,-1.0382,-1.1393,-1.2839,0.0,0.0,0.0,0.0,0.0,0.0,0.0,0.0,0.0,0.0,0.0,-2.5698,-2.5683,-2.5683,-2.5683,-2.5673,-2.5672,-2.5666,-2.5613,-2.5585,-2.5565,-2.5506,-2.5495,-2.5484,-2.5448,-2.5404,-2.5321,-2.5255,-2.5152,-2.508,-2.5076,-2.5031,-2.501,-2.501,-2.501,-2.501,-2.501,-2.5004,-2.5044,-2.507,-2.5076,-2.5132,-2.518,-2.5191,-2.5191,-2.5191,-2.5191,-2.5191,-2.5191,-2.5191,-2.5191,-2.5191,-2.5191,-2.5306,-2.5459,-2.5459,-2.5623,-2.5947,0.0,0.0,0.0,0.0,0.0,0.0,0.0,0.0,0.0,0.3239,0.3188,0.3132,0.2949,0.2671,0.0,0.0,0.2623,0.2612,0.0,0.0,0.0,0.0,0.0,0.0,0.0,0.0,0.0,0.0,0.0,0.0,0.0,0.0,0.0,-0.0541,0.0,-0.2345,0.0,0.0,0.0,-0.4032,-0.4666,-0.5175,-0.5616,-0.5843,-0.6445,-0.7183,-0.6966,0.0,0.0,0.0,0.0,0.0,0.0,0.0,-1.0521,-1.0559,-1.1263,-1.2397,0.0,0.0,0.0,0.0,0.0,0.0,0.0,0.0,0.0,0.0,-2.5648,-2.5661,-2.5683,-2.5702,-2.5701,-2.5702,-2.5702,-2.5681,-2.5646,-2.5612,-2.5593,-2.5561,-2.5556,-2.5549,-2.5557,-2.5453,-2.5391,-2.5357,-2.5245,-2.516,-2.5094,-2.5063,-2.5031,-2.501,-2.501,-2.4991,-2.5004,-2.4999,-2.5038,-2.5107,-2.5101,-2.5144,-2.5191,-2.5191,-2.5191,-2.5191,-2.5191,-2.5191,-2.5191,-2.5191,-2.5191,-2.5191,-2.5191,-2.5191,-2.5191,-2.5191,-2.5225,-2.5318,0.0,0.0,0.0,0.0,0.0,0.0,0.0,0.0,0.0,0.3781,0.353,0.339,0.3433,0.2967,0.2746,0.0,0.0,0.0,0.2756,0.0,0.0,0.0,0.0,0.0,0.0,0.0,0.0,0.0,0.0,0.0,0.0,0.0,0.0,-0.0519,0.0,0.0,0.0,0.0,0.0,-0.4285,-0.465,-0.5123,-0.5579,-0.5473,-0.605,-0.6929,-0.6969,-0.7505,-0.83,-0.879,0.0,0.0,0.0,0.0,-1.0038,-1.0787,-1.1186,-1.1897,0.0,0.0,0.0,0.0,0.0,0.0,0.0,0.0,0.0,0.0,-2.5598,-2.5626,-2.5683,-2.57,-2.5694,-2.5703,-2.5703,-2.5703,-2.5702,-2.5638,-2.559,-2.5598,-2.559,-2.5593,-2.5605,-2.5502,-2.5421,-2.5434,-2.5367,-2.5274,-2.5164,-2.5106,-2.5076,-2.5018,-2.5023,-2.5004,-2.4993,-2.5006,-2.5051,-2.5101,-2.5113,-2.5156,-2.5191,-2.5191,-2.5191,-2.5191,-2.5191,-2.5191,-2.518,-2.518,-2.518,-2.518,-2.518,-2.518,-2.5191,-2.5191,-2.5191,-2.5191,0.0,0.0,0.0,0.0,0.0,0.0,0.0,0.0,0.0,0.0,0.0,0.3622,0.3581,0.3391,0.3297,0.3332,0.3411,0.3426,0.0,0.0,0.0,0.0,0.0,0.0,0.0,0.0,0.0,0.0,0.0,0.0,0.0,0.0,0.0,0.0,0.0,0.0,0.0,0.0,0.0,-0.4053,-0.4285,-0.4368,-0.4405,-0.4941,-0.5417,-0.5937,-0.6894,-0.7505,-0.8004,-0.8929,-0.926,0.0,0.0,0.0,-0.9943,-1.0104,-1.0747,0.0,0.0,0.0,0.0,0.0,0.0,0.0,0.0,0.0,0.0,0.0,-2.5609,-2.5616,-2.5689,-2.5709,-2.5709,-2.5693,-2.5691,-2.5694,-2.5703,-2.5644,-2.5598,-2.5603,-2.5605,-2.56,-2.5593,-2.559,-2.5571,-2.557,-2.5459,-2.5387,-2.5367,-2.519,-2.5101,-2.5088,-2.5038,-2.5012,-2.4993,-2.5063,-2.5101,-2.5101,-2.5168,-2.518,-2.5191,-2.5191,-2.5191,-2.5191,-2.5191,-2.5168,-2.5113,-2.5113,-2.5113,-2.5113,-2.5113,-2.5156,-2.5191,-2.5191,-2.5191,-2.5191,0.0,0.0,0.0,0.0,0.0,0.0,0.0,0.0,0.0,0.0,0.0,0.3854,0.3682,0.361,0.3506,0.3362,0.3399,0.0,0.0,0.0,0.0,0.0,0.0,0.0,0.0,0.0,0.0,0.0,0.0,0.0,0.0,0.1413,-0.0,0.0,0.0,0.0,0.0,0.0,0.0,-0.3799,-0.5435,-0.6024,0.0,0.0,-0.7082,-0.8088,0.0,0.0,0.0,-0.9232,-0.9458,-0.9563,-0.9825,0.0,0.0,0.0,0.0,0.0,0.0,0.0,0.0,0.0,0.0,0.0,0.0,0.0,0.0,-2.56,-2.5604,-2.5629,-2.5693,-2.5698,-2.5698,-2.5698,-2.5698,-2.5701,-2.5709,-2.5677,-2.5663,-2.5662,-2.5658,-2.5664,-2.5658,-2.5625,-2.56,-2.5607,-2.5506,-2.541,-2.5348,-2.5264,-2.5179,-2.5113,-2.5063,-2.5069,-2.5057,-2.5088,-2.5113,-2.5168,-2.5156,-2.5168,-2.521,-2.5168,-2.5168,-2.521,-2.5168,-2.5125,-2.5101,-2.5101,-2.5101,-2.5113,-2.5137,-2.518,-2.5191,-2.5191,-2.5191,-2.5191,0.0,0.0,0.0,0.0,0.0,0.0,0.0,0.0,0.0,0.0,0.0,0.4022,0.3818,0.0,0.0,0.0,0.3336,0.0,0.0,0.0,0.0,0.0,0.0,0.0,0.0,0.0,0.0,0.0,0.0,0.0,0.4059,0.2455,0.076,0.0,-0.1484,0.0,0.0,0.0,0.0,0.0,-0.6227,-0.7229,-0.734,-0.7716,-0.8768,-0.9897,0.0,0.0,0.0,0.0,0.0,0.0,0.0,0.0,0.0,0.0,0.0,0.0,0.0,0.0,0.0,0.0,0.0,0.0,0.0,0.0,-2.5272,0.0,-2.544,-2.5617,-2.5675,-2.5684,-2.571,-2.571,-2.571,-2.571,-2.571,-2.5701,-2.5709,-2.5696,-2.5701,-2.5703,-2.5693,-2.5654,-2.5625,-2.5629,-2.5556,-2.5473,-2.5379,-2.5335,-2.5274,-2.5145,-2.5138,-2.5122,-2.5095,-2.512,-2.5156,-2.5191,-2.5156,-2.5137,-2.5168,-2.5125,-2.5144,-2.5168,-2.5113,-2.5101,-2.5088,-2.5088,-2.5088,-2.5101,-2.5156,-2.518,-2.5191,-2.5191,-2.5191,-2.5191,0.0,0.0,0.0,0.0,0.0,0.0,0.0,0.0,0.0,0.0,0.0,0.4095,0.4082,0.3854,0.3698,0.3682,0.3452,0.0,0.0,0.0,0.0,0.0,0.0,0.0,0.0,0.0,0.0,0.0,0.0,0.0,0.4649,0.4088,0.1619,-0.2382,-0.2097,-0.3008,-0.4702,0.0,0.0,0.0,-0.5766,-0.6618,-0.7194,-0.8784,-0.9566,-0.9816,0.0,0.0,0.0,0.0,0.0,0.0,0.0,0.0,-1.0112,0.0,0.0,0.0,0.0,0.0,0.0,0.0,0.0,0.0,0.0,0.0,0.0,-2.4372,-2.5026,-2.5591,-2.5591,-2.5668,-2.571,-2.571,-2.571,-2.571,-2.571,-2.5701,-2.5693,-2.5702,-2.5702,-2.5703,-2.5703,-2.5698,-2.5687,-2.5699,-2.5639,-2.5586,-2.5581,-2.5454,-2.5368,-2.5293,-2.5235,-2.5171,-2.5101,-2.5168,-2.521,-2.5191,-2.521,-2.5168,-2.5113,-2.5101,-2.5088,-2.5114,-2.5088,-2.5057,-2.5006,-2.507,-2.5101,-2.5101,-2.5101,-2.5137,-2.5191,-2.5191,-2.5191,-2.5191,0.0,0.0,0.0,0.0,0.0,0.0,0.0,0.0,0.0,0.0,0.0,0.0,0.0,0.4015,0.3904,0.3781,0.0,0.0,0.0,0.0,0.0,0.0,0.0,0.0,0.0,0.0,0.0,0.0,0.0,0.3956,0.4227,0.3512,0.1193,-0.2355,-0.1879,-0.337,-0.6198,-0.5956,0.0,0.0,0.0,-0.8963,0.0,0.0,-1.1906,-1.2434,0.0,0.0,0.0,0.0,0.0,0.0,0.0,-1.0166,-1.017,-1.0193,0.0,0.0,0.0,0.0,0.0,0.0,0.0,0.0,0.0,-2.1413,-2.2957,-2.408,-2.4554,-2.4948,-2.5493,-2.5624,-2.5632,-2.5632,-2.5644,-2.5632,-2.5632,-2.5673,-2.5709,-2.5694,-2.57,-2.5703,-2.5702,-2.5666,-2.5636,-2.5632,-2.5565,-2.5531,-2.5531,-2.5486,-2.5432,-2.5368,-2.5348,-2.5283,-2.5168,-2.518,-2.5191,-2.5191,-2.5168,-2.5125,-2.5101,-2.5107,-2.5095,-2.5101,-2.5095,-2.5082,-2.507,-2.5095,-2.5107,-2.5088,-2.5156,-2.518,-2.5191,-2.5191,-2.5191,-2.5191,0.0,0.0,0.0,0.4402,0.0,0.4391,0.4391,0.4391,0.0,0.0,0.0,0.0,0.0,0.0,0.0,0.0,0.0,0.0,0.0,0.0,0.0,0.0,0.0,0.0,0.0,0.0,0.0,0.0,0.0,0.0,0.0,0.0,0.1066,-0.2632,-0.2011,0.0,0.0,0.0,0.0,-0.5896,0.0,0.0,-1.0936,0.0,-1.415,0.0,0.0,0.0,0.0,0.0,0.0,0.0,0.0,-1.044,-1.0196,-1.0196,0.0,0.0,0.0,0.0,0.0,0.0,0.0,0.0,0.0,0.0,-2.1274,-2.274,-2.3471,-2.4034,-2.4628,-2.4968,-2.5264,-2.5552,-2.56,-2.5593,-2.5601,-2.5668,-2.5703,-2.5707,-2.5696,-2.5701,-2.5703,-2.5654,-2.5623,-2.5604,-2.5585,-2.5562,-2.5531,-2.5562,-2.5531,-2.5441,-2.5382,-2.5313,-2.5228,-2.5214,-2.5191,-2.5191,-2.5137,-2.5113,-2.5107,-2.5114,-2.5089,-2.507,-2.5101,-2.5101,-2.5101,-2.5088,-2.5101,-2.5113,-2.5168,-2.5191,-2.5191,-2.5191,-2.5191,-2.5191,0.4437,0.4437,0.4448,0.4463,0.4464,0.4471,0.4476,0.4476,0.0,0.0,0.0,0.0,0.0,0.0,0.0,0.0,0.0,0.0,0.0,0.0,0.0,0.0,0.0,0.0,0.0,0.0,0.0,0.0,0.0,0.0,0.0,0.0,0.1343,0.0,-0.2531,-0.3532,-0.5845,0.0,-0.6607,-0.7088,0.0,-1.1122,-1.2508,0.0,0.0,0.0,-1.6424,-1.6187,0.0,-1.4464,0.0,0.0,0.0,-1.0906,-1.0199,-1.0199,0.0,0.0,0.0,0.0,0.0,0.0,0.0,0.0,-1.5821,0.0,-1.9328,-2.0274,-2.1768,-2.2913,-2.2989,-2.3698,-2.4538,-2.5396,-2.5571,-2.56,-2.5598,-2.5658,-2.5696,-2.5705,-2.5707,-2.5697,-2.5702,-2.57,-2.5668,-2.5619,-2.5667,-2.5671,-2.5591,-2.5667,-2.5634,-2.5498,-2.5365,-2.5303,-2.5303,-2.5228,-2.5191,-2.5191,-2.5191,-2.5156,-2.5101,-2.5101,-2.507,-2.5012,-2.507,-2.5101,-2.5101,-2.5101,-2.5113,-2.5113,-2.518,-2.5191,-2.5191,-2.5191,-2.5191,-2.5191,0.5095,0.519,0.5354,0.5838,0.5913,0.5953,0.6055,0.6071,0.0,0.0,0.0,0.0,0.0,0.0,0.0,0.0,0.0,0.0,0.0,0.0,0.0,0.0,0.0,0.0,0.0,0.0,0.0,0.0,0.0,0.0,0.0,0.0,0.0,0.0,-0.171,-0.3386,-0.6275,-0.7029,0.0,0.0,-1.0205,-1.2054,0.0,0.0,0.0,0.0,0.0,-1.7089,-1.6307,0.0,-1.4974,-1.3486,0.0,0.0,0.0,-1.0198,-1.013,0.0,-1.0125,0.0,0.0,0.0,0.0,0.0,0.0,0.0,-1.6226,-1.8992,-1.9923,-2.0802,-2.2654,-2.3193,-2.3443,-2.3679,-2.4773,-2.5593,-2.5601,-2.5668,-2.5703,-2.5707,-2.5707,-2.5694,-2.5703,-2.5702,-2.5672,-2.5609,-2.5628,-2.5615,-2.561,-2.5576,-2.5499,-2.5357,-2.5313,-2.5273,-2.5236,-2.5203,-2.5191,-2.5191,-2.5191,-2.5156,-2.5101,-2.5107,-2.5095,-2.507,-2.5095,-2.5132,-2.5168,-2.5168,-2.5168,-2.518,-2.5191,-2.5191,-2.5191,-2.5191,-2.5191,-2.5191,0.5858,0.5942,0.6076,0.6443,0.6518,0.6562,0.6656,0.6664,0.6664,0.0,0.0,0.0,0.0,0.0,0.0,0.0,0.0,0.0,0.0,0.0,0.0,0.0,0.3705,0.0,0.0,0.0,0.0,0.0,0.0,0.0,0.0,0.0,0.0,0.0,0.0,-0.3553,-0.6378,-0.7244,0.0,0.0,-1.1283,0.0,0.0,-1.6367,-1.7421,0.0,0.0,0.0,-1.7773,-1.7772,-1.6382,0.0,0.0,-1.1696,-1.115,-1.0414,0.0,0.0,0.0,0.0,0.0,0.0,0.0,0.0,-1.2552,-1.3134,-1.4283,0.0,-1.7894,-1.8715,-2.0535,-2.148,-2.1957,-2.1967,-2.343,-2.4687,-2.506,-2.5125,-2.5299,-2.5657,-2.5696,-2.5701,-2.5702,-2.5697,-2.5664,-2.5601,-2.5628,-2.5643,-2.5643,-2.5546,-2.5467,-2.539,-2.5331,-2.5283,-2.5239,-2.5214,-2.5191,-2.5191,-2.5191,-2.5156,-2.5095,-2.5101,-2.5101,-2.5095,-2.5101,-2.5137,-2.5191,-2.5191,-2.5191,-2.5191,-2.5191,-2.5191,-2.5191,-2.5191,-2.5191,-2.5191,0.0,0.6688,0.673,0.6741,0.6794,0.6832,0.6849,0.6849,0.6857,0.0,0.0,0.0,0.0,0.0,0.0,0.0,0.0,0.0,0.0,0.0,0.0,0.3743,0.3659,0.3721,0.0,0.0,0.0,0.0,0.0,0.0,0.0,0.0,0.0,0.0,-0.1979,-0.3925,-0.6288,-0.7086,0.0,-1.0009,-1.2393,-1.3769,0.0,0.0,-1.8788,-1.8496,-2.0039,-2.0098,-1.9434,-1.9336,-1.7692,0.0,0.0,-1.3093,-1.2746,-1.0992,-1.1053,0.0,0.0,0.0,0.0,0.0,-1.2243,0.0,-1.2345,-1.2629,-1.3248,0.0,-1.5729,-1.6532,-1.7443,-1.8977,-2.0074,-2.0078,-2.1533,-2.3057,-2.4118,-2.4252,-2.4542,-2.5311,-2.541,-2.541,-2.541,-2.5505,-2.5528,-2.5459,-2.5613,-2.5695,-2.5671,-2.5565,-2.5486,-2.548,-2.5348,-2.5293,-2.5293,-2.5236,-2.5191,-2.5191,-2.5191,-2.5168,-2.5101,-2.5113,-2.5113,-2.5101,-2.5113,-2.5137,-2.5191,-2.5191,-2.5191,-2.5191,-2.5191,-2.5191,-2.5191,-2.5191,-2.5191,-2.5191,0.7507,0.7551,0.7658,0.8188,0.8287,0.8327,0.843,0.8451,0.0,0.0,0.0,0.0,0.0,0.0,0.0,0.0,0.0,0.0,0.0,0.0,0.396,0.349,0.3557,0.3681,0.3839,0.0,0.0,0.0,0.0,0.0,0.0,0.0,0.0,0.0,-0.2463,-0.4198,-0.6538,-0.6766,0.0,-1.1164,-1.2461,0.0,-1.6348,-1.7734,-1.9023,-2.0137,-2.0488,-2.0488,-2.0234,-1.9531,-1.8496,-1.7184,0.0,-1.4897,-1.4542,-1.2797,-1.2894,-1.3428,-1.2737,-1.3018,-1.3214,-1.2025,0.0,0.0,-1.1274,-1.1786,-1.2902,0.0,-1.3446,-1.405,-1.5601,-1.6737,-1.7447,-1.7443,-1.8902,-2.082,-2.304,-2.3357,-2.3418,-2.3593,-2.3612,-2.361,-2.3617,-2.4237,-2.4656,-2.4643,-2.5305,-2.5643,-2.554,-2.546,-2.5387,-2.535,-2.5252,-2.5225,-2.5225,-2.5203,-2.5191,-2.5191,-2.5191,-2.5168,-2.5101,-2.5168,-2.5156,-2.5113,-2.5168,-2.518,-2.5191,-2.5191,-2.5191,-2.5191,-2.5191,-2.5191,-2.5191,-2.5191,-2.5191,-2.5191,0.825,0.8243,0.8304,0.8639,0.8705,0.8729,0.8794,0.8806,0.0,0.0,0.0,0.0,0.0,0.0,0.0,0.0,0.0,0.0,0.0,0.0,0.463,0.426,0.3998,0.3944,0.4145,0.3858,0.0,0.0,0.0,0.0,0.0,0.0,0.0,0.0,0.0,0.0,0.0,0.0,-0.8779,-1.0853,-1.3197,0.0,-1.6894,-1.8633,-1.9824,-2.0544,-2.0586,-2.0605,-2.0469,-1.9589,-1.9004,0.0,0.0,-1.6327,-1.6225,0.0,-1.4079,-1.4566,-1.3695,-1.3736,-1.3953,-1.3553,0.0,0.0,0.0,-1.216,-1.2528,-1.3834,-1.3092,-1.2855,-1.5005,-1.5755,-1.6052,-1.6045,-1.7519,-1.8943,-1.9785,-2.1386,-2.2614,-2.304,-2.3099,-2.3093,-2.3093,-2.35,-2.3748,-2.3754,-2.416,-2.4549,-2.4882,-2.4812,-2.4921,-2.5293,-2.5228,-2.5191,-2.5191,-2.5191,-2.5191,-2.5191,-2.5191,-2.518,-2.5156,-2.518,-2.518,-2.5156,-2.518,-2.5191,-2.5191,-2.5191,-2.5191,-2.5191,-2.5191,-2.5191,-2.5191,-2.5191,-2.5191,-2.521,0.8764,0.8705,0.8705,0.8705,0.8705,0.8705,0.8705,0.8705,0.0,0.0,0.0,0.0,0.0,0.0,0.0,0.0,0.0,0.0,0.0,0.0,0.0,0.5109,0.4561,0.4333,0.4513,0.3887,0.0,0.0,0.0,0.0,0.0,0.0,0.0,0.0,0.0,0.0,0.0,0.0,0.0,-1.1162,0.0,-1.5625,-1.6269,-1.9043,-2.0076,-2.007,-2.0467,-2.0605,-2.0469,-1.9588,-1.9394,-1.9236,-1.75,-1.7616,0.0,0.0,0.0,0.0,0.0,0.0,0.0,0.0,0.0,-1.4878,0.0,0.0,0.0,-1.4549,-1.3278,0.0,0.0,0.0,0.0,-1.4922,0.0,0.0,-1.6327,-1.8864,-2.1086,-2.1785,-2.2014,-2.2179,-2.2357,-2.2354,-2.2565,-2.3049,-2.2773,-2.3007,-2.4008,-2.4063,-2.4384,-2.5024,-2.5152,-2.5191,-2.5191,-2.5191,-2.5191,-2.5191,-2.5191,-2.5191,-2.5191,-2.5191,-2.5191,-2.5191,-2.5191,-2.5191,-2.5191,-2.5191,-2.5191,-2.5191,-2.5191,-2.5191,-2.5191,-2.5191,-2.5191,-2.5191,0.8794,0.8753,0.8705,0.8705,0.8705,0.8705,0.8705,0.8705,0.0,0.0,0.0,0.0,0.0,0.0,0.0,0.0,0.0,0.0,0.8569,0.0,0.0,0.513,0.4921,0.4745,0.4593,0.427,0.3715,0.0,0.0,0.0,0.0,0.0,-0.4531,-0.5201,-0.5666,0.0,0.0,0.0,-1.0984,0.0,-1.5085,-1.4526,0.0,-1.7031,-1.8281,-1.8494,-2.0036,-2.0602,-2.0466,0.0,-1.9765,-2.0077,0.0,-1.8926,-1.9843,-1.8016,0.0,0.0,0.0,0.0,0.0,0.0,-1.708,0.0,0.0,0.0,-1.4619,-1.3432,0.0,0.0,0.0,0.0,0.0,0.0,0.0,0.0,-1.4512,-1.6054,-1.732,-1.7414,-1.812,-1.8888,-1.9663,-1.9678,-2.0606,-2.2936,-2.1609,-2.1409,-2.3067,-2.369,-2.4061,-2.4139,-2.4826,-2.5191,-2.5191,-2.5191,-2.5191,-2.5191,-2.5191,-2.5191,-2.5191,-2.5191,-2.5191,-2.5191,-2.5191,-2.5191,-2.5191,-2.5191,-2.5191,-2.5191,-2.5191,-2.5191,-2.5191,-2.5191,-2.5191,-2.5191,0.8681,0.8669,0.864,0.864,0.8681,0.8693,0.8697,0.8669,0.0,0.0,0.0,0.0,0.0,0.0,0.0,0.0,0.0,0.9905,0.0,0.0,0.0,0.6018,0.5539,0.5216,0.501,0.4169,0.3676,0.0,0.2571,0.0,0.0,0.0,-0.5024,-0.5837,-0.6957,0.0,-1.0365,0.0,-1.1196,0.0,0.0,0.0,0.0,-1.7812,-1.9511,-1.9608,-2.0298,-2.0573,-2.0465,0.0,-1.9859,0.0,0.0,0.0,0.0,-1.908,0.0,0.0,0.0,0.0,0.0,0.0,0.0,0.0,-1.5595,0.0,-1.4731,0.0,0.0,0.0,0.0,0.0,0.0,0.0,-1.3493,0.0,0.0,0.0,-1.4801,-1.5834,-1.6275,-1.6834,-1.7712,-1.7766,-1.8398,-1.997,-1.9375,-1.9668,-2.1295,-2.2566,-2.3458,-2.3936,-2.4755,-2.5191,-2.5191,-2.5191,-2.5191,-2.5191,-2.5191,-2.5191,-2.5191,-2.5191,-2.5191,-2.5191,-2.5191,-2.5191,-2.5191,-2.5191,-2.5191,-2.5191,-2.5191,-2.5191,-2.5191,-2.5191,-2.5191,-2.5191,0.8562,0.0,0.0,0.0,0.8657,0.8697,0.8702,0.8645,0.9131,0.0,0.0,0.0,1.2323,1.2221,0.0,0.0,1.1713,1.0972,0.0,0.0,0.8306,0.7221,0.6305,0.5772,0.5688,0.4373,0.3839,0.4097,0.2502,0.0,0.0,0.0,0.0,-0.631,0.0,-0.9637,-1.1304,0.0,-1.2292,-1.3212,-1.3849,-1.4488,-1.5371,-1.8633,-2.0175,-2.0583,-2.0545,-2.0568,-2.0463,-1.9599,-1.9875,-2.0426,-1.9579,-1.9893,-2.0444,0.0,0.0,0.0,-1.8872,0.0,0.0,0.0,-1.7999,-1.7712,-1.6594,-1.5713,-1.5362,-1.6188,0.0,0.0,0.0,0.0,0.0,0.0,0.0,-1.2516,0.0,-1.1953,0.0,0.0,-1.4763,-1.5286,-1.5921,-1.5765,-1.6163,-1.7442,-1.7105,-1.7714,-1.9769,-2.144,-2.2719,-2.3547,-2.4637,-2.5191,-2.5191,-2.5191,-2.5191,-2.5191,-2.5191,-2.5191,-2.5191,-2.5191,-2.5191,-2.5191,-2.5191,-2.5191,-2.5191,-2.5191,-2.5191,-2.5191,-2.5191,-2.5191,-2.5191,-2.5191,-2.5191,-2.5191,0.8508,0.8562,0.0,0.0,0.0,0.8702,0.8693,0.864,0.959,0.0,0.0,0.0,0.0,0.0,0.0,0.0,0.0,1.2148,1.2547,0.0,0.9218,0.8645,0.7174,0.6463,0.0,0.5208,0.4352,0.4105,0.2361,0.0484,0.0,0.0,0.0,0.0,0.0,-1.007,-1.1854,-1.3091,-1.5157,-1.7594,-1.7693,-1.8792,-2.0194,0.0,-1.9136,-2.0599,-2.0594,-2.0593,-2.0477,-1.9597,-1.984,-2.0351,-1.9543,-1.9859,-2.0508,-2.0543,0.0,0.0,-2.0527,-2.0546,-2.0154,-1.843,-1.7999,-1.7553,-1.5834,-1.6649,-1.7332,-1.576,-1.6672,-1.7269,0.0,0.0,0.0,0.0,0.0,0.0,0.0,0.0,0.0,0.0,0.0,0.0,-1.4174,-1.3416,-1.3956,-1.645,-1.508,-1.5569,-1.8853,-2.057,-2.1838,-2.2699,-2.4342,-2.5191,-2.5191,-2.5191,-2.5191,-2.5191,-2.5191,-2.5191,-2.5191,-2.5191,-2.5191,-2.5191,-2.5191,-2.5191,-2.5191,-2.5191,-2.5191,-2.5191,-2.5191,-2.5191,-2.5191,-2.5191,-2.5191,-2.5191,0.0,0.0,0.0,0.0,0.0,0.8649,0.8693,1.0209,1.1725,0.0,0.0,0.0,0.0,1.5246,1.6281,0.0,0.0,1.3809,1.201,1.135,0.0,0.0,0.0,0.7424,0.0,0.5612,0.4631,0.4364,0.1951,-0.0282,0.0,0.0,0.0,0.0,0.0,-1.0278,0.0,0.0,0.0,0.0,0.0,-1.9023,-2.0544,-1.9956,-2.0092,-2.0598,-2.0594,-2.0593,-2.0554,-2.0261,-2.0343,-2.0521,-2.0243,-2.0343,-2.0561,-2.0581,-2.0601,-2.0739,-2.1308,-2.1855,-2.1855,-2.0134,-1.9725,-1.9101,-1.6794,-1.7142,-1.7473,-1.5759,-1.6772,-1.7433,0.0,0.0,0.0,0.0,0.0,0.0,0.0,0.0,0.0,0.0,0.0,0.0,0.0,-1.2144,-1.2751,-1.4724,-1.4837,-1.5766,-1.8028,-2.0209,-2.179,-2.2661,-2.3769,-2.4606,-2.5191,-2.5191,-2.5191,-2.5191,-2.5191,-2.5191,-2.5191,-2.5191,-2.5191,-2.5191,-2.5191,-2.5191,-2.5191,-2.5191,-2.5191,-2.5191,-2.5191,-2.5191,-2.5191,-2.5191,-2.5191,-2.5191,0.8632,0.0,0.0,0.0,0.0,0.0,1.006,1.1661,0.0,0.0,1.3503,0.0,1.4018,0.0,1.6937,0.0,1.536,1.4515,1.2637,1.2014,0.0,1.0063,0.8677,0.0,0.0,0.0,0.515,0.4824,0.1917,-0.031,0.0,0.0,0.0,0.0,0.0,-1.0416,-1.2012,0.0,-1.5383,0.0,0.0,-1.9589,0.0,-2.0599,-2.0598,-2.0597,-2.0594,-2.0593,-2.0593,-2.0593,-2.0593,-2.0593,-2.0591,-2.0806,-2.1021,-2.1025,-2.1241,-2.1614,-2.2167,-2.2713,-2.2771,-2.1406,-2.1055,-2.0371,-1.7753,-1.8085,-1.8418,-1.6659,-1.7207,-1.7832,-1.728,0.0,0.0,0.0,0.0,0.0,0.0,-1.0658,0.0,0.0,0.0,0.0,0.0,0.0,-1.1889,-1.383,-1.4177,-1.5298,-1.7584,-1.9509,-2.1215,-2.2652,-2.3482,-2.4312,-2.5191,-2.5191,-2.5191,-2.5191,-2.5191,-2.5191,-2.5191,-2.5203,-2.5203,-2.5191,-2.5203,-2.5203,-2.5191,-2.5191,-2.5191,-2.5191,-2.5191,-2.5191,-2.5191,-2.5191,-2.5191,-2.5191,0.0,0.0,0.0,0.0,0.9685,0.0,0.0,0.0,1.3032,0.0,1.5055,1.6394,1.6394,1.6394,1.6281,1.6023,1.4975,1.4382,1.4421,1.2662,0.0,0.0,0.8921,0.7242,0.6487,0.0,0.0,0.0,0.2216,0.0296,0.0,0.0,0.0,0.0,-0.8568,0.0,-1.1917,-1.5266,-1.7176,-1.8075,-1.9803,-2.0546,-2.0601,-2.0599,-2.0597,-2.0593,-2.0593,-2.0593,-2.0593,-2.0593,-2.0593,-2.0612,-2.0646,-2.1191,-2.1813,-2.1856,-2.2442,-2.3107,-2.3158,-2.316,-2.2986,-2.2206,-2.1991,-2.1307,-1.8769,-1.951,-2.0207,-1.8416,-1.8154,-1.866,-2.0037,-1.768,0.0,0.0,0.0,0.0,0.0,0.0,0.0,0.0,0.0,0.0,0.0,0.0,-1.1314,-1.3652,-1.3168,0.0,0.0,-1.8467,-2.0063,-2.2556,-2.3417,-2.4277,-2.5191,-2.5191,-2.5191,-2.5191,-2.5191,-2.5191,-2.5191,-2.5195,-2.5195,-2.5191,-2.5206,-2.5195,-2.5191,-2.5191,-2.5191,-2.5191,-2.5191,-2.5191,-2.5203,-2.5203,-2.5203,-2.5214,0.9514,0.8964,0.8769,0.0,0.9297,0.9911,0.0,0.0,0.0,0.0,1.8888,1.9256,1.9256,1.8992,1.8774,1.8706,1.7267,0.0,0.0,0.0,0.0,1.1411,0.9077,0.7222,0.5925,0.5456,0.0,0.3992,0.0,0.0,-0.2772,0.0,0.0,0.0,0.0,0.0,-1.1644,-1.4119,-1.6956,-1.9844,-2.0318,-2.0547,-2.0601,-2.0597,-2.0594,-2.0593,-2.0593,-2.0593,-2.0593,-2.0593,-2.0593,-2.071,-2.1352,-2.1702,-2.1995,-2.2582,-2.2914,-2.3246,-2.3893,-2.4069,-2.4012,-2.3804,-2.3278,-2.2457,-2.119,-2.1717,-2.1969,-2.0269,-2.0915,-2.1149,-1.9013,-1.7909,-1.6894,0.0,0.0,0.0,0.0,0.0,0.0,-1.3058,0.0,0.0,0.0,-1.0924,-1.1645,-1.2916,-1.3367,-1.4505,-1.6618,-1.7554,-1.9181,-2.1721,-2.2585,-2.3706,-2.519,-2.5187,-2.5206,-2.5206,-2.5203,-2.5203,-2.5206,-2.5206,-2.5198,-2.519,-2.5198,-2.5206,-2.5195,-2.5203,-2.5191,-2.5191,-2.5191,-2.5217,-2.5273,-2.5273,-2.5273,-2.5283,1.0791,0.0,0.0,1.2681,0.0,0.0,1.3225,1.4224,0.0,1.7829,1.9383,0.0,2.0304,1.994,1.9545,1.9213,1.8599,0.0,1.5352,0.0,0.0,1.1362,0.9074,0.7069,0.5352,0.4768,0.0,0.3008,0.0,0.0,-0.1888,0.0,0.0,0.0,0.0,-0.9294,-1.1557,-1.4661,-1.7683,-2.0413,-2.048,-2.0759,0.0,-2.1163,-2.1393,-2.1686,-2.1686,-2.1471,-2.1217,-2.1569,-2.1686,-2.1784,-2.2268,-2.2697,-2.3086,-2.3503,-2.392,-2.4334,-2.4793,-2.4957,-2.4963,-2.4939,-2.4575,-2.3916,-2.2664,-2.2745,-2.2824,-2.1842,-2.1845,-2.1863,-2.1372,-1.9484,-1.7304,0.0,0.0,0.0,0.0,0.0,0.0,0.0,-1.2944,0.0,-1.0468,-1.0982,-1.1796,-1.2645,-1.3124,-1.4116,-1.5784,-1.7054,-1.8717,-2.0847,-2.2105,-2.3362,-2.4656,-2.5028,-2.5209,-2.5209,-2.5198,-2.5198,-2.5209,-2.522,-2.5231,-2.5192,-2.5231,-2.522,-2.5209,-2.5198,-2.522,-2.5253,-2.5274,-2.5321,-2.5337,-2.5406,-2.539,-2.5348,1.232,0.0,0.0,0.0,0.0,0.0,0.0,1.3767,0.0,1.4804,0.0,2.0339,2.0494,2.0224,1.9752,1.8997,0.0,1.8632,1.5972,1.4348,1.2755,1.1084,0.8981,0.6853,0.4619,0.4051,0.3182,0.0,0.0,0.0,0.0,0.0,0.0,0.0,0.0,0.0,0.0,-1.5919,-1.8724,-2.0504,-2.0627,-2.1198,-2.1972,-2.2044,-2.2486,-2.3111,-2.3228,-2.276,-2.2153,-2.2857,-2.3091,-2.3111,-2.3222,-2.3786,-2.4405,-2.4475,-2.5057,-2.5696,-2.5636,-2.5651,-2.5683,-2.5636,-2.5651,-2.5293,-2.3717,-2.3391,-2.3417,-2.3364,-2.2238,-2.2074,-2.469,-2.1425,-1.7519,0.0,0.0,0.0,0.0,0.0,0.0,0.0,0.0,0.0,-1.08,-1.1263,-1.1912,-1.2509,-1.2532,-1.3276,-1.4931,-1.6466,-1.814,-1.9972,-2.172,-2.3074,-2.3995,-2.4819,-2.5212,-2.5212,-2.5192,-2.5192,-2.5222,-2.5282,-2.5282,-2.5222,-2.5262,-2.5262,-2.5243,-2.5214,-2.5255,-2.5316,-2.5401,-2.5421,-2.5441,-2.5576,-2.5535,-2.5439,0.0,0.0,0.0,0.0,0.0,1.6786,1.6168,1.5889,1.5168,1.3473,1.7371,2.0628,2.1448,2.1721,2.1675,2.1244,2.0634,0.0,0.0,0.0,0.0,1.0286,0.8875,0.6693,0.3452,0.2777,0.151,-0.0327,-0.1429,-0.1998,0.0,0.0,0.0,0.0,0.0,0.0,-1.385,-1.6158,-1.8833,-2.1533,-2.1552,-2.2086,-2.2867,-2.2899,-2.2974,-2.3189,-2.3909,-2.3618,-2.2916,-2.3052,-2.3091,-2.3228,-2.3948,-2.428,-2.4532,-2.5252,-2.5566,-2.5705,-2.5683,-2.5685,-2.5707,-2.5683,-2.5685,-2.5629,-2.5293,-2.5236,-2.5236,-2.5234,-2.5002,-2.4525,-2.3603,-2.1585,-1.9468,-1.7617,-1.7207,0.0,0.0,0.0,0.0,0.0,0.0,-1.5077,-1.2598,-1.2491,-1.2329,-1.1754,-1.1704,-1.2412,-1.4034,-1.4473,-1.6061,-1.91,-2.0842,-2.2496,-2.4072,-2.4869,-2.5282,-2.5282,-2.5222,-2.5222,-2.5282,-2.5292,-2.5302,-2.5274,-2.5292,-2.5322,-2.5348,-2.5311,-2.5324,-2.5388,-2.5515,-2.5556,-2.5581,-2.5648,-2.5675,-2.5648,0.0,0.0,0.0,0.0,0.0,0.0,1.9077,1.8787,1.8271,1.7789,1.982,2.0248,1.7437,2.0073,2.2049,2.2049,2.1477,2.0447,1.8835,1.7799,1.5459,1.1332,0.8637,0.6141,0.3829,0.191,0.0767,0.0435,-0.1797,-0.2711,0.0,0.0,0.0,0.0,0.0,-1.1703,0.0,-1.752,-1.9815,-2.1692,-2.2218,-2.2937,-2.373,-2.3763,-2.4048,-2.4497,-2.4926,-2.4809,-2.4458,-2.4458,-2.443,-2.4475,-2.4885,-2.5008,-2.5052,-2.5461,-2.5613,-2.5648,-2.5648,-2.5679,-2.5685,-2.5651,-2.5648,-2.5648,-2.5648,-2.5648,-2.5651,-2.5685,-2.5707,-2.5158,-2.3371,-2.1674,-2.0298,-1.9471,-1.8203,-1.7793,0.0,0.0,0.0,0.0,0.0,0.0,0.0,-1.2557,-1.2256,0.0,0.0,-1.2022,-1.321,-1.4177,-1.5792,-1.8241,-2.0389,-2.212,-2.3417,-2.4668,-2.5312,-2.5312,-2.5273,-2.5273,-2.5312,-2.5312,-2.5293,-2.5313,-2.5331,-2.5376,-2.5406,-2.5441,-2.5465,-2.5517,-2.5605,-2.5655,-2.5655,-2.5693,-2.5698,-2.5696,0.0,1.7715,0.0,0.0,1.8236,1.9619,2.1508,2.1198,2.1103,2.2152,2.2049,2.0069,1.5331,1.8979,2.1915,2.218,2.202,2.1275,1.9773,1.7997,1.5461,1.211,0.8662,0.5877,0.3896,0.1075,-0.0,0.0667,-0.2438,-0.3495,-0.2655,-0.4307,-0.5599,-0.673,-1.0626,-1.364,-1.5987,-1.8859,-2.0855,-2.2165,-2.296,-2.3805,-2.4581,-2.4644,-2.5102,-2.5707,-2.5707,-2.5707,-2.5707,-2.5707,-2.5651,-2.5601,-2.5613,-2.5585,-2.5526,-2.5537,-2.5589,-2.5613,-2.5613,-2.5651,-2.5683,-2.5619,-2.5613,-2.5613,-2.5613,-2.5613,-2.5642,-2.5683,-2.5683,-2.5156,-2.3429,-2.2315,-2.1437,-2.0719,-1.9022,-1.8202,-1.9413,0.0,0.0,0.0,0.0,0.0,-1.2168,-1.2266,-1.1952,-1.0571,0.0,-1.1735,-1.2904,-1.4116,-1.5671,-1.7664,-2.0007,-2.1655,-2.2541,-2.437,-2.5303,-2.5303,-2.5303,-2.5303,-2.5303,-2.5303,-2.5322,-2.5322,-2.5382,-2.541,-2.5453,-2.5561,-2.5613,-2.5636,-2.5681,-2.5705,-2.5701,-2.5705,-2.5705,-2.5701,0.0,0.0,0.0,0.0,0.0,2.1541,2.1777,2.1991,2.2152,2.2282,2.123,2.0703,2.1351,2.1657,2.1811,2.1857,2.2094,2.2049,2.1584,1.7022,1.3267,1.0837,0.9561,0.6767,0.2132,0.0149,-0.1422,-0.2644,-0.45,-0.4928,-0.4042,-0.5536,-0.7729,-1.0453,-1.1925,-1.4631,-1.8159,-1.9209,-2.135,-2.4049,-2.4131,-2.4694,-2.5488,-2.5559,-2.5629,-2.5707,-2.5707,-2.5707,-2.5707,-2.5707,-2.5651,-2.5609,-2.5676,-2.5645,-2.5601,-2.5654,-2.5683,-2.5683,-2.5683,-2.5705,-2.5707,-2.5685,-2.5683,-2.5683,-2.5683,-2.5683,-2.5685,-2.5707,-2.5648,-2.509,-2.3402,-2.4205,-2.4138,-2.1099,-2.1003,-2.1118,-2.0555,0.0,-1.7643,-1.6689,0.0,0.0,-1.2966,-1.2087,-1.156,-1.1384,-1.0713,-1.1369,-1.3752,-1.3344,-1.4497,-1.77,-1.951,-2.0836,-2.1698,-2.41,-2.5303,-2.5303,-2.5303,-2.5303,-2.5303,-2.5303,-2.534,-2.5398,-2.5406,-2.5473,-2.5593,-2.5654,-2.5683,-2.5685,-2.5707,-2.5707,-2.5707,-2.5707,-2.5707,-2.5707,2.1022,2.1211,2.1269,2.0502,2.1161,2.1797,2.1797,2.1915,2.2077,2.2282,2.1827,2.1324,2.0812,2.1354,2.157,2.0958,2.157,2.0926,1.8375,1.227,0.8734,0.8687,0.7189,0.4854,0.1567,-0.1349,-0.3009,-0.34,-0.4989,-0.5558,-0.5177,-0.672,-0.9504,-1.3303,-1.4982,-1.7197,-1.977,-2.1518,-2.3,-2.4296,-2.4857,-2.5286,-2.5618,-2.5661,-2.5709,-2.5707,-2.5707,-2.5707,-2.5707,-2.5707,-2.5636,-2.5547,-2.5613,-2.5576,-2.5498,-2.5552,-2.5605,-2.5642,-2.5642,-2.5676,-2.5707,-2.5707,-2.5676,-2.5648,-2.5683,-2.5676,-2.5648,-2.5685,-2.5681,-2.5461,-2.4788,-2.4352,-2.3823,-2.3011,-2.186,-2.1157,-2.1354,0.0,0.0,-1.7587,0.0,0.0,0.0,-1.2812,-1.25,-1.3027,-1.1327,-1.0924,-1.242,-1.3141,-1.4369,-1.6232,-1.9375,-2.1212,-2.1601,-2.407,-2.5303,-2.5303,-2.5303,-2.5303,-2.5313,-2.533,-2.541,-2.5521,-2.5521,-2.5565,-2.5654,-2.5683,-2.5707,-2.5707,-2.5707,-2.5707,-2.5707,-2.5707,-2.5707,-2.5707,2.2453,2.2276,2.2077,2.1857,2.1797,2.1797,2.1797,2.1462,2.126,2.1493,2.1524,2.1229,2.0413,2.0616,2.055,1.9818,1.9913,1.8811,1.5988,0.9627,0.6195,0.6737,0.5773,0.4009,0.1438,-0.2126,-0.4029,-0.4218,-0.6136,-0.6983,-0.6877,-0.8736,-1.1857,-1.5982,-1.7488,-1.9394,-2.1613,-2.3282,-2.4231,-2.4631,-2.5309,-2.5574,-2.562,-2.5664,-2.5697,-2.5691,-2.5709,-2.5709,-2.5709,-2.5707,-2.5616,-2.5537,-2.5589,-2.5521,-2.5439,-2.551,-2.5556,-2.5605,-2.5616,-2.5654,-2.5707,-2.5707,-2.5654,-2.5645,-2.5683,-2.5654,-2.5645,-2.5683,-2.5707,-2.5707,-2.5707,-2.4692,-2.3814,-2.3695,-2.235,-2.1296,-2.1157,-1.9851,0.0,-1.806,-1.6772,-1.5542,-1.4586,-1.3691,-1.3533,-1.4413,-1.2812,-1.2263,-1.3339,-1.3781,-1.4892,-1.6774,-1.992,-2.172,-2.2004,-2.425,-2.5357,-2.5357,-2.5357,-2.5357,-2.5357,-2.5425,-2.551,-2.5601,-2.5613,-2.5651,-2.5707,-2.5707,-2.5707,-2.5707,-2.5707,-2.5707,-2.5707,-2.5707,-2.5707,-2.5707,2.1886,2.1827,2.1781,2.1797,2.1797,2.1797,2.1797,2.0599,1.9726,1.9726,1.9726,2.0243,2.1631,1.9849,1.8556,1.8517,1.6921,1.5869,1.5792,1.0573,0.6815,0.5389,0.641,0.5253,0.1552,-0.1805,-0.4227,-0.5663,-0.8416,-0.9573,-0.9328,-1.1927,-1.5086,-1.8584,-1.8874,-2.0796,-2.3883,-2.3957,-2.4578,-2.5499,-2.5492,-2.5537,-2.56,-2.5675,-2.5703,-2.5699,-2.5696,-2.5693,-2.5693,-2.5709,-2.5651,-2.5601,-2.5601,-2.5547,-2.5515,-2.5585,-2.5601,-2.5609,-2.5681,-2.5707,-2.5707,-2.5707,-2.5707,-2.5707,-2.5707,-2.5707,-2.5707,-2.5707,-2.5707,-2.5707,-2.5707,-2.5687,-2.4848,-2.2348,-2.2564,-2.2193,-1.9674,-1.8563,0.0,-1.8007,-1.5703,-1.4453,-1.5293,-1.4607,0.0,-1.5312,-1.5352,-1.6074,-1.773,-1.5461,-1.6056,-2.0291,-2.1328,-2.2177,-2.2983,-2.4652,-2.5498,-2.5498,-2.5498,-2.5498,-2.5504,-2.5576,-2.5601,-2.5601,-2.5676,-2.5707,-2.5707,-2.5707,-2.5707,-2.5707,-2.5707,-2.5707,-2.5707,-2.5707,-2.5707,-2.5707,2.1827,2.1797,2.1797,2.1797,2.1797,2.1797,2.1797,2.0599,1.969,1.969,1.969,1.966,1.9543,1.8921,1.8016,1.6765,1.6132,1.5792,1.5792,0.9293,0.5403,0.5282,0.4009,0.1989,-0.0717,-0.3758,-0.6076,-0.7536,-0.9494,-1.1512,-1.357,-1.5002,-1.7293,-2.0269,-2.081,-2.2263,-2.4327,-2.4531,-2.4903,-2.5369,-2.546,-2.5507,-2.5537,-2.5664,-2.57,-2.5703,-2.5698,-2.5694,-2.5693,-2.5709,-2.5683,-2.5654,-2.5609,-2.5589,-2.5561,-2.5598,-2.5639,-2.5654,-2.5642,-2.5673,-2.5707,-2.5707,-2.5707,-2.5707,-2.5707,-2.5707,-2.5707,-2.5707,-2.5707,-2.5707,-2.5707,-2.5707,-2.5047,-2.3043,-2.2922,-2.2392,-2.0408,-1.9408,-1.8896,-1.8899,-1.7632,-1.6872,-1.7143,-1.6387,-1.6209,-1.7043,-1.5497,-1.5014,-1.6132,-1.6509,-1.7337,-1.8752,-2.1278,-2.2741,-2.3003,-2.4652,-2.5504,-2.5504,-2.5504,-2.5526,-2.558,-2.5593,-2.5616,-2.5676,-2.5683,-2.5707,-2.5707,-2.5707,-2.5707,-2.5707,-2.5707,-2.5707,-2.5707,-2.5707,-2.5707,-2.5707,2.1797,2.1797,2.1797,2.1797,2.1797,2.1661,2.1276,2.0104,1.925,1.925,1.925,1.9064,1.8556,1.7081,1.5636,1.4514,1.5277,1.5412,1.4468,0.8352,0.4754,0.4664,0.2792,0.0333,-0.2713,-0.4875,-0.6529,-0.7652,-1.0311,-1.3292,-1.6508,-1.722,-1.8967,-2.1481,-2.1846,-2.2965,-2.4601,-2.4757,-2.501,-2.5303,-2.5456,-2.5505,-2.5502,-2.5586,-2.5661,-2.5698,-2.5703,-2.5701,-2.5698,-2.5694,-2.5691,-2.5687,-2.5651,-2.5645,-2.5639,-2.5605,-2.5639,-2.5651,-2.5645,-2.5676,-2.5707,-2.5707,-2.5707,-2.5707,-2.5707,-2.5707,-2.5709,-2.5696,-2.5693,-2.5691,-2.5662,-2.5681,-2.5134,-2.3378,-2.3105,-2.248,-2.0742,-1.9785,-1.9277,-1.9294,-1.8808,-1.8317,-1.7988,-1.8335,-1.8537,-1.8393,-1.7799,-1.7532,-1.7746,-1.787,-1.8548,-1.9878,-2.2269,-2.3676,-2.4007,-2.5052,-2.5585,-2.5585,-2.5585,-2.5598,-2.5642,-2.5642,-2.5654,-2.5707,-2.5707,-2.5707,-2.5707,-2.5707,-2.5707,-2.5707,-2.5707,-2.5707,-2.5707,-2.5707,-2.5707,-2.5707,2.1797,2.1781,2.1768,2.1768,2.1768,2.1448,2.046,1.9362,1.8581,1.8517,1.8517,1.8439,1.8347,1.4733,1.2264,1.2026,1.419,1.4617,1.2363,0.7817,0.4636,0.3368,0.2516,0.0056,-0.4363,-0.5183,-0.5923,-0.6801,-1.1083,-1.4908,-1.8207,-1.8626,-2.0042,-2.2243,-2.2071,-2.297,-2.4644,-2.4657,-2.4911,-2.5293,-2.5451,-2.5498,-2.5498,-2.5498,-2.5589,-2.5685,-2.5691,-2.5701,-2.5702,-2.5701,-2.5697,-2.5694,-2.5694,-2.5691,-2.5683,-2.5636,-2.5605,-2.5613,-2.5681,-2.5707,-2.5707,-2.5709,-2.5691,-2.5691,-2.5709,-2.5691,-2.5696,-2.5683,-2.5681,-2.566,-2.5616,-2.5641,-2.5116,-2.3386,-2.3107,-2.2484,-2.0739,-1.9848,-1.9394,-1.947,-1.9473,-1.9149,-1.8327,-2.0347,-2.1056,-1.9481,-2.151,-2.2484,-2.1747,-1.9565,-1.9839,-2.3085,-2.3981,-2.4817,-2.5694,-2.5709,-2.5707,-2.5707,-2.5707,-2.5707,-2.5707,-2.5707,-2.5707,-2.5707,-2.5707,-2.5707,-2.5707,-2.5707,-2.5707,-2.5707,-2.5707,-2.5707,-2.5707,-2.5707,-2.5707,-2.5707,2.1768,2.1587,2.1433,2.1433,2.1433,2.1183,2.0407,2.0045,1.953,1.862,1.8517,1.7975,1.6595,1.5522,1.3899,1.141,1.2295,1.316,1.3552,0.7536,0.2847,0.0279,0.0837,-0.0833,-0.5238,-0.4882,-0.6637,-1.0681,-1.3485,-1.5966,-1.8129,-1.8916,-2.0172,-2.1854,-2.1797,-2.2623,-2.4099,-2.4428,-2.4714,-2.5018,-2.5369,-2.5499,-2.5503,-2.5505,-2.5547,-2.5639,-2.5687,-2.5701,-2.5702,-2.5701,-2.5697,-2.5694,-2.5698,-2.5696,-2.5691,-2.5681,-2.5679,-2.5681,-2.5705,-2.5707,-2.5691,-2.5701,-2.5664,-2.5642,-2.5683,-2.5663,-2.562,-2.5616,-2.5619,-2.5619,-2.5592,-2.5613,-2.5043,-2.3319,-2.3079,-2.2479,-2.0678,-2.0862,-2.1186,-2.1214,-2.1737,-2.2017,-2.1803,-2.1734,-2.1539,-2.1146,-2.1048,-2.1219,-2.1677,-2.1768,-2.2513,-2.404,-2.4295,-2.4824,-2.5699,-2.5694,-2.5691,-2.5707,-2.5707,-2.5707,-2.5707,-2.5707,-2.5707,-2.5707,-2.5707,-2.5707,-2.5707,-2.5707,-2.5707,-2.5707,-2.5707,-2.5707,-2.5707,-2.5707,-2.5707,-2.5707,2.2855,2.2017,2.1309,2.1309,2.1055,2.0728,2.0373,2.015,1.9354,1.7489,1.7269,1.6879,1.5925,1.5006,1.3684,1.1619,1.1165,1.1038,1.1187,0.6435,0.2233,-0.0782,-0.028,-0.1725,-0.5668,-0.4925,-0.6881,-1.1755,-1.3893,-1.5887,-1.7719,-1.8559,-1.9982,-2.1699,-2.167,-2.247,-2.3837,-2.41,-2.4457,-2.4826,-2.5105,-2.5321,-2.5464,-2.5498,-2.5517,-2.5552,-2.5605,-2.5642,-2.5702,-2.5702,-2.5703,-2.5699,-2.5701,-2.5702,-2.5702,-2.5702,-2.5697,-2.5693,-2.5699,-2.5699,-2.5681,-2.5662,-2.5636,-2.5611,-2.5659,-2.5636,-2.5605,-2.5595,-2.5601,-2.5603,-2.5593,-2.5597,-2.5031,-2.327,-2.3022,-2.2427,-2.0655,-2.118,-2.1761,-2.1795,-2.2827,-2.3407,-2.3034,-2.3276,-2.3109,-2.2311,-2.2557,-2.2765,-2.2836,-2.3676,-2.4204,-2.4349,-2.4774,-2.5212,-2.5703,-2.5697,-2.5709,-2.5707,-2.5707,-2.5707,-2.5707,-2.5707,-2.5707,-2.5707,-2.5707,-2.5707,-2.5707,-2.5707,-2.5707,-2.5707,-2.5707,-2.5707,-2.5707,-2.5707,-2.5707,-2.5707,2.419,2.2548,2.1295,2.1681,2.0895,2.02,2.02,1.9833,1.8612,1.612,1.5558,1.5379,1.5379,1.3905,1.2676,1.2126,1.0623,0.9133,0.7816,0.4692,0.1843,-0.0615,-0.084,-0.2454,-0.566,-0.5662,-0.7576,-1.1513,-1.3668,-1.5588,-1.7301,-1.8185,-1.9688,-2.1657,-2.1599,-2.2356,-2.3649,-2.3792,-2.4136,-2.4603,-2.4816,-2.5067,-2.5348,-2.5456,-2.5498,-2.5504,-2.5504,-2.5589,-2.5683,-2.5683,-2.5676,-2.5683,-2.5703,-2.5683,-2.5697,-2.5698,-2.5683,-2.5683,-2.5683,-2.5682,-2.5661,-2.5613,-2.5603,-2.5598,-2.5603,-2.5601,-2.559,-2.5598,-2.56,-2.56,-2.5599,-2.559,-2.5036,-2.3279,-2.3108,-2.2526,-2.0667,-2.1363,-2.2061,-2.1986,-2.3411,-2.4121,-2.3442,-2.4561,-2.4737,-2.3383,-2.4544,-2.5047,-2.4428,-2.5105,-2.5194,-2.4501,-2.5261,-2.5694,-2.5701,-2.5699,-2.5709,-2.5707,-2.5707,-2.5707,-2.5707,-2.5707,-2.5707,-2.5707,-2.5707,-2.5707,-2.5707,-2.5707,-2.5707,-2.5707,-2.5707,-2.5707,-2.5707,-2.5707,-2.5707,-2.5707,2.4151,2.2177,2.1155,2.3429,2.1591,1.9797,1.9797,1.9176,1.7988,1.6044,1.4362,1.3344,1.3344,1.3065,1.2676,1.2126,1.0559,0.9009,0.7536,0.2636,-0.0112,0.0112,-0.0673,-0.2286,-0.4747,-0.8423,-1.0914,-1.1969,-1.4733,-1.665,-1.7733,-1.8602,-1.9889,-2.1453,-2.1423,-2.2163,-2.3389,-2.3623,-2.3835,-2.4081,-2.4652,-2.4927,-2.5034,-2.5367,-2.5498,-2.5504,-2.5504,-2.5547,-2.5609,-2.5609,-2.5619,-2.5634,-2.5689,-2.5661,-2.5629,-2.5685,-2.5664,-2.5618,-2.5625,-2.5615,-2.5606,-2.5605,-2.559,-2.56,-2.5601,-2.56,-2.5604,-2.5599,-2.5604,-2.5604,-2.5601,-2.5595,-2.5026,-2.3273,-2.356,-2.3179,-2.0731,-2.2366,-2.3553,-2.2894,-2.4276,-2.5248,-2.5115,-2.4675,-2.4583,-2.5066,-2.466,-2.466,-2.5279,-2.5434,-2.5441,-2.5328,-2.5508,-2.5642,-2.5703,-2.5701,-2.5697,-2.5693,-2.5709,-2.5709,-2.5693,-2.5709,-2.5709,-2.5693,-2.5709,-2.5707,-2.5707,-2.5707,-2.5707,-2.5707,-2.5707,-2.5707,-2.5707,-2.5707,-2.5707,-2.5707,2.6536,2.5597,2.4512,2.3679,2.2566,2.1799,2.1799,2.1064,1.9799,1.7763,1.5633,1.4248,1.4248,1.3988,1.2175,0.827,0.6682,0.5612,0.4895,0.2775,0.0895,-0.0505,-0.2223,-0.4181,-0.6473,-0.9824,-1.2006,-1.2954,-1.5271,-1.6899,-1.7827,-1.8693,-1.9939,-2.1393,-2.1483,-2.2152,-2.3217,-2.3405,-2.3599,-2.3852,-2.4367,-2.4674,-2.4896,-2.533,-2.5495,-2.5505,-2.5505,-2.5511,-2.5542,-2.5542,-2.5565,-2.5609,-2.5642,-2.5605,-2.5556,-2.557,-2.5593,-2.5598,-2.5593,-2.5593,-2.5605,-2.5589,-2.56,-2.5607,-2.5595,-2.5599,-2.5601,-2.5601,-2.5601,-2.5595,-2.5609,-2.5577,-2.5137,-2.3844,-2.396,-2.3637,-2.1985,-2.3165,-2.4056,-2.3688,-2.4745,-2.5492,-2.5499,-2.5143,-2.5066,-2.5472,-2.5124,-2.5085,-2.5492,-2.5511,-2.5511,-2.5511,-2.5576,-2.5622,-2.5703,-2.5701,-2.5699,-2.5697,-2.5693,-2.5691,-2.5693,-2.5709,-2.5709,-2.5691,-2.5707,-2.5707,-2.5707,-2.5707,-2.5707,-2.5707,-2.5707,-2.5707,-2.5707,-2.5707,-2.5707,-2.5707,2.8327,2.8282,2.7161,2.352,2.3098,2.329,2.329,2.2374,2.0993,1.9239,1.7368,1.5968,1.5245,1.4793,1.1682,0.4683,0.3283,0.2815,0.2815,0.2677,0.1566,-0.0672,-0.3591,-0.6114,-0.8203,-1.0455,-1.2338,-1.3871,-1.5668,-1.7053,-1.7987,-1.8968,-2.0131,-2.1393,-2.1661,-2.2262,-2.3119,-2.3411,-2.3537,-2.3635,-2.4248,-2.4692,-2.5044,-2.5553,-2.5873,-2.6072,-2.6072,-2.6072,-2.6042,-2.5848,-2.5801,-2.5819,-2.5639,-2.5551,-2.5499,-2.5498,-2.5535,-2.5585,-2.5581,-2.5579,-2.557,-2.5601,-2.5595,-2.5595,-2.5601,-2.5601,-2.5601,-2.5601,-2.5601,-2.5595,-2.5602,-2.5544,-2.5221,-2.4348,-2.4365,-2.4138,-2.3042,-2.3809,-2.4428,-2.4215,-2.4969,-2.5511,-2.5511,-2.5511,-2.5511,-2.5511,-2.5511,-2.5511,-2.5511,-2.5511,-2.5499,-2.5495,-2.5566,-2.5622,-2.5703,-2.5702,-2.57,-2.57,-2.5696,-2.5694,-2.5693,-2.5709,-2.5707,-2.5709,-2.5707,-2.5707,-2.5707,-2.5707,-2.5707,-2.5707,-2.5707,-2.5707,-2.5707,-2.5707,-2.5707,-2.5707,2.7531,2.7407,2.6437,2.345,2.2555,2.231,2.231,2.0979,1.9747,1.9093,1.8881,1.7644,1.4843,1.4515,1.1475,0.3946,0.3203,0.3187,0.3187,0.0837,-0.0168,0.0727,-0.3629,-0.6833,-0.8371,-1.0513,-1.2513,-1.4336,-1.6095,-1.7464,-1.8461,-1.9849,-2.0814,-2.1423,-2.2,-2.2563,-2.3154,-2.3917,-2.3794,-2.3259,-2.4593,-2.5301,-2.5606,-2.6185,-2.7007,-2.7821,-2.7821,-2.7821,-2.7686,-2.6892,-2.6602,-2.6482,-2.5738,-2.5499,-2.5495,-2.5505,-2.5506,-2.5517,-2.5518,-2.5506,-2.5525,-2.5576,-2.5589,-2.5602,-2.5595,-2.5601,-2.5601,-2.5601,-2.5601,-2.5595,-2.5602,-2.5544,-2.5201,-2.4342,-2.4876,-2.4822,-2.314,-2.4339,-2.5105,-2.4292,-2.4969,-2.5511,-2.5511,-2.5511,-2.5511,-2.5511,-2.5511,-2.5511,-2.5511,-2.5511,-2.5503,-2.5492,-2.5576,-2.5634,-2.5703,-2.5703,-2.5702,-2.57,-2.5696,-2.5694,-2.5693,-2.5709,-2.5709,-2.5693,-2.5709,-2.5707,-2.5707,-2.5707,-2.5707,-2.5707,-2.5707,-2.5707,-2.5707,-2.5707,-2.5707,-2.5707,2.7362,2.7105,2.6556,2.5438,2.3576,2.1874,2.0832,2.0194,1.9488,1.856,1.7157,1.5748,1.4625,1.1472,0.7777,0.3556,0.3226,0.2216,-0.0,-0.1097,-0.2219,-0.3457,-0.5535,-0.8049,-1.1001,-1.1575,-1.3292,-1.6279,-1.6883,-1.8014,-1.964,-2.0896,-2.1916,-2.2784,-2.3439,-2.404,-2.4559,-2.4857,-2.4892,-2.4835,-2.5634,-2.6096,-2.6408,-2.702,-2.7481,-2.7813,-2.7853,-2.7923,-2.7941,-2.7518,-2.745,-2.7437,-2.7063,-2.6975,-2.695,-2.6393,-2.6231,-2.6138,-2.5638,-2.5505,-2.5518,-2.5531,-2.5551,-2.5544,-2.5531,-2.5564,-2.5583,-2.5557,-2.5564,-2.5596,-2.555,-2.5517,-2.5352,-2.496,-2.5228,-2.5244,-2.4499,-2.5034,-2.5376,-2.5047,-2.5298,-2.5511,-2.5511,-2.5511,-2.5511,-2.5511,-2.5511,-2.5511,-2.5511,-2.5511,-2.551,-2.5498,-2.5526,-2.5582,-2.5697,-2.5698,-2.5702,-2.5703,-2.5701,-2.57,-2.57,-2.5694,-2.5693,-2.5693,-2.5709,-2.5707,-2.5707,-2.5707,-2.5707,-2.5707,-2.5707,-2.5707,-2.5707,-2.5707,-2.5707,-2.5707,2.7105,2.6792,2.6538,2.6538,2.3853,2.1299,2.0003,1.9656,1.9291,1.8452,1.4277,1.1305,1.1305,0.7643,0.4755,0.3627,0.2619,0.0805,-0.2018,-0.3015,-0.4288,-0.5899,-0.7714,-0.9861,-1.247,-1.2841,-1.4481,-1.7629,-1.7872,-1.896,-2.0915,-2.1988,-2.2991,-2.39,-2.4573,-2.5045,-2.5392,-2.5655,-2.5773,-2.5857,-2.6445,-2.6882,-2.7251,-2.7755,-2.8114,-2.8428,-2.846,-2.8564,-2.8604,-2.8238,-2.8187,-2.8182,-2.7846,-2.7824,-2.7826,-2.7218,-2.7091,-2.6923,-2.6107,-2.589,-2.5827,-2.555,-2.5511,-2.5505,-2.5492,-2.5544,-2.557,-2.5518,-2.5544,-2.5544,-2.5503,-2.548,-2.5412,-2.5303,-2.5341,-2.5341,-2.5253,-2.5322,-2.5369,-2.5369,-2.5369,-2.5397,-2.5423,-2.5451,-2.5459,-2.5503,-2.5511,-2.5511,-2.5511,-2.5511,-2.5495,-2.5506,-2.5512,-2.554,-2.5642,-2.5651,-2.5689,-2.5702,-2.5703,-2.5703,-2.5702,-2.5698,-2.5696,-2.5693,-2.5691,-2.5709,-2.5707,-2.5707,-2.5707,-2.5707,-2.5707,-2.5707,-2.5707,-2.5707,-2.5707,-2.5707,2.6691,2.6417,2.622,2.6168,2.3127,2.0485,1.9901,1.9344,1.8987,1.8934,1.0397,0.43,0.43,0.3357,0.3155,0.4167,0.1341,-0.1008,-0.2154,-0.4857,-0.6137,-0.5551,-0.9798,-1.22,-1.22,-1.4126,-1.6098,-1.8125,-1.8975,-2.033,-2.2132,-2.3162,-2.3949,-2.455,-2.5153,-2.5392,-2.5362,-2.6251,-2.6286,-2.5904,-2.6922,-2.7636,-2.8129,-2.833,-2.9058,-2.9999,-2.9999,-3.0047,-2.9975,-2.9102,-2.8815,-2.8681,-2.7866,-2.7707,-2.7811,-2.7811,-2.7904,-2.7813,-2.6953,-2.6702,-2.6505,-2.5698,-2.5498,-2.5503,-2.5505,-2.5492,-2.5492,-2.5492,-2.5492,-2.5505,-2.5503,-2.5393,-2.5303,-2.5313,-2.5182,-2.5096,-2.5115,-2.5096,-2.5096,-2.5096,-2.5096,-2.5149,-2.5293,-2.5303,-2.5351,-2.5484,-2.5511,-2.5511,-2.5511,-2.5511,-2.5511,-2.5511,-2.5511,-2.551,-2.5498,-2.5576,-2.5623,-2.5693,-2.5693,-2.5701,-2.57,-2.57,-2.5698,-2.5694,-2.5694,-2.5691,-2.5707,-2.5707,-2.5707,-2.5707,-2.5707,-2.5707,-2.5707,-2.5707,-2.5707,-2.5707,2.6399,2.6274,2.5807,2.4583,2.1688,1.946,1.9251,1.9093,1.7763,1.4241,0.8244,0.43,0.43,0.403,0.3019,0.1073,0.0067,-0.1541,-0.4002,-0.5574,-0.7058,-0.8572,-1.1194,-1.2872,-1.3388,-1.4723,-1.6602,-1.9083,-1.9814,-2.1197,-2.3193,-2.4457,-2.5378,-2.5948,-2.6615,-2.6918,-2.6935,-2.7251,-2.7502,-2.7716,-2.8026,-2.8494,-2.902,-2.9195,-2.9436,-2.9732,-2.9784,-2.9899,-2.9984,-2.9627,-2.9612,-2.9669,-2.9426,-2.939,-2.9315,-2.8856,-2.881,-2.8713,-2.774,-2.7065,-2.6429,-2.5571,-2.5369,-2.5351,-2.5235,-2.5216,-2.5226,-2.5225,-2.5216,-2.5216,-2.5224,-2.5203,-2.513,-2.5024,-2.5049,-2.508,-2.4962,-2.5037,-2.5096,-2.5096,-2.5096,-2.5126,-2.516,-2.516,-2.5222,-2.5341,-2.5451,-2.5511,-2.5511,-2.5511,-2.5511,-2.5511,-2.5511,-2.5499,-2.5503,-2.5517,-2.5593,-2.5709,-2.5709,-2.5698,-2.5703,-2.5701,-2.5699,-2.5698,-2.5693,-2.5709,-2.5707,-2.5707,-2.5707,-2.5707,-2.5707,-2.5707,-2.5707,-2.5707,-2.5707,-2.5707,2.6239,2.577,2.4958,2.3319,2.0792,1.8934,1.8667,1.7622,1.4869,0.9439,0.6828,0.5209,0.4364,0.403,0.3222,0.1543,-0.0201,-0.2409,-0.5377,-0.6098,-0.7752,-1.0767,-1.2364,-1.3802,-1.5109,-1.6203,-1.7702,-1.9762,-2.0832,-2.2338,-2.4346,-2.5473,-2.6319,-2.6873,-2.7355,-2.7557,-2.7557,-2.763,-2.7982,-2.8504,-2.8504,-2.8855,-2.9407,-2.9492,-2.9513,-2.9532,-2.957,-2.9681,-2.9784,-2.9734,-2.982,-2.9934,-2.9934,-3.0007,-3.0013,-2.9563,-2.9548,-2.9466,-2.8468,-2.785,-2.7244,-2.6343,-2.5669,-2.5192,-2.5126,-2.5107,-2.5088,-2.5096,-2.5107,-2.5088,-2.5096,-2.5068,-2.4987,-2.4915,-2.4929,-2.4915,-2.4832,-2.4888,-2.4955,-2.4955,-2.4955,-2.4949,-2.5031,-2.5012,-2.508,-2.5222,-2.5341,-2.5415,-2.5415,-2.5468,-2.5511,-2.5511,-2.5511,-2.5511,-2.5511,-2.5498,-2.5535,-2.5613,-2.5613,-2.5657,-2.5701,-2.5703,-2.5703,-2.57,-2.5694,-2.5709,-2.5707,-2.5707,-2.5707,-2.5707,-2.5707,-2.5707,-2.5707,-2.5707,-2.5707,-2.5707,2.6184,2.5091,2.3739,2.231,2.0333,1.8721,1.8193,1.5651,1.169,0.5851,0.6298,0.649,0.4821,0.3828,0.3496,0.403,0.0067,-0.3544,-0.6229,-0.6616,-0.8398,-1.2112,-1.3253,-1.4866,-1.6998,-1.8073,-1.9085,-2.0142,-2.1843,-2.3606,-2.5389,-2.6179,-2.6873,-2.7376,-2.7452,-2.7496,-2.7496,-2.7557,-2.7954,-2.8504,-2.8504,-2.8855,-2.9407,-2.9407,-2.9409,-2.9392,-2.9392,-2.9433,-2.9492,-2.9588,-2.9645,-2.9701,-2.9701,-2.9872,-3.0052,-2.9937,-3.008,-3.0086,-2.9148,-2.8845,-2.8588,-2.7706,-2.6374,-2.5258,-2.5213,-2.5175,-2.5156,-2.508,-2.5061,-2.5061,-2.5061,-2.4949,-2.4888,-2.4888,-2.4779,-2.4707,-2.4707,-2.4707,-2.4707,-2.4707,-2.4707,-2.4749,-2.4874,-2.4902,-2.4968,-2.5084,-2.5214,-2.5313,-2.5322,-2.5423,-2.5511,-2.5511,-2.5511,-2.5511,-2.5511,-2.5511,-2.549,-2.5504,-2.5504,-2.558,-2.5685,-2.5691,-2.5701,-2.5701,-2.5697,-2.5691,-2.5707,-2.5707,-2.5707,-2.5707,-2.5707,-2.5707,-2.5707,-2.5707,-2.5707,-2.5707,2.5914,2.4354,2.2723,2.1277,1.9488,1.8247,1.8139,1.6786,1.4718,1.1882,0.7703,0.5536,0.6963,0.5276,0.3558,0.228,-0.1862,-0.4923,-0.6102,-0.7999,-1.0332,-1.2995,-1.42,-1.5631,-1.7368,-1.8018,-1.9073,-2.0555,-2.2422,-2.3948,-2.5179,-2.6505,-2.7218,-2.7313,-2.7376,-2.7452,-2.7496,-2.7557,-2.7954,-2.8504,-2.8504,-2.8855,-2.9407,-2.9407,-2.9407,-2.9388,-2.9388,-2.9411,-2.9433,-2.9569,-2.9645,-2.9701,-2.9701,-2.9806,-2.9937,-2.9905,-3.0026,-3.0065,-2.9753,-2.9194,-2.8632,-2.8267,-2.746,-2.6585,-2.5944,-2.5793,-2.5605,-2.4926,-2.4794,-2.4794,-2.4794,-2.4764,-2.4734,-2.4734,-2.4723,-2.4707,-2.4707,-2.4707,-2.4707,-2.4707,-2.4707,-2.4723,-2.4734,-2.4832,-2.4968,-2.5084,-2.5214,-2.5341,-2.5459,-2.5476,-2.5511,-2.5511,-2.5511,-2.5511,-2.5511,-2.5511,-2.549,-2.5504,-2.5504,-2.5542,-2.5616,-2.5685,-2.5696,-2.57,-2.5701,-2.5693,-2.5693,-2.5709,-2.5707,-2.5707,-2.5707,-2.5707,-2.5707,-2.5707,-2.5707,-2.5707,2.4307,2.3231,2.2184,2.0947,1.8328,1.6073,1.5148,1.5148,1.4186,1.121,0.9554,0.803,0.6379,0.5084,0.2536,-0.1855,-0.418,-0.584,-0.7015,-0.877,-1.0891,-1.3288,-1.473,-1.6213,-1.7843,-1.8387,-1.9453,-2.1104,-2.2732,-2.4215,-2.5644,-2.6774,-2.733,-2.7362,-2.7376,-2.7469,-2.7557,-2.7701,-2.8065,-2.8511,-2.867,-2.9007,-2.9407,-2.9407,-2.9326,-2.924,-2.9347,-2.9409,-2.9392,-2.9332,-2.9453,-2.9626,-2.9645,-2.9736,-2.9855,-2.9806,-2.9905,-2.9981,-2.9841,-2.9487,-2.9149,-2.9044,-2.8706,-2.8068,-2.6848,-2.6566,-2.6435,-2.5984,-2.5522,-2.5209,-2.5308,-2.4923,-2.4645,-2.4692,-2.4707,-2.4707,-2.4707,-2.4707,-2.4707,-2.4707,-2.4707,-2.4707,-2.4707,-2.4764,-2.4832,-2.4902,-2.5091,-2.5243,-2.5322,-2.5423,-2.5511,-2.5511,-2.5511,-2.5511,-2.5511,-2.5511,-2.5495,-2.5492,-2.5492,-2.5543,-2.5601,-2.5634,-2.5675,-2.5703,-2.5698,-2.5691,-2.5691,-2.5707,-2.5707,-2.5707,-2.5707,-2.5707,-2.5707,-2.5707,-2.5707,-2.5707,2.2572,2.2044,2.1664,2.0848,1.7258,1.3959,1.2359,1.2251,1.1133,0.7728,1.0108,0.9881,0.4008,0.2533,-0.0264,-0.5756,-0.6363,-0.7015,-0.8297,-0.9599,-1.133,-1.363,-1.5197,-1.6778,-1.8387,-1.8869,-1.9965,-2.1759,-2.2934,-2.4414,-2.6214,-2.6956,-2.733,-2.7407,-2.7438,-2.7526,-2.7689,-2.7954,-2.8264,-2.8621,-2.8892,-2.9156,-2.9407,-2.9407,-2.9222,-2.9026,-2.9304,-2.9409,-2.9372,-2.9126,-2.9272,-2.9531,-2.9588,-2.9682,-2.9769,-2.9719,-2.9773,-2.9841,-2.9738,-2.9701,-2.9701,-2.9701,-2.9664,-2.9289,-2.7901,-2.7488,-2.7356,-2.7189,-2.652,-2.5999,-2.6122,-2.5379,-2.4785,-2.4867,-2.4767,-2.4707,-2.4707,-2.4707,-2.4707,-2.4707,-2.4707,-2.4707,-2.4707,-2.4707,-2.4707,-2.4719,-2.4942,-2.5091,-2.5138,-2.5351,-2.5476,-2.5511,-2.5511,-2.5511,-2.5511,-2.5511,-2.5511,-2.5511,-2.5507,-2.5538,-2.557,-2.56,-2.5633,-2.5702,-2.5694,-2.5709,-2.5709,-2.5707,-2.5707,-2.5707,-2.5707,-2.5707,-2.5707,-2.5707,-2.5707,-2.5707,2.2263,2.152,2.0848,2.0699,1.7258,1.4387,1.4148,0.9289,0.5401,0.4888,0.5669,0.4582,0.0134,-0.4692,-0.7062,-0.5567,-0.7862,-0.9285,-0.9214,-1.1421,-1.3459,-1.5148,-1.6352,-1.7589,-1.8881,-1.9347,-2.0502,-2.2374,-2.315,-2.4414,-2.6214,-2.6956,-2.733,-2.7407,-2.763,-2.7818,-2.7954,-2.8237,-2.859,-2.8957,-2.898,-2.9156,-2.9407,-2.9407,-2.9222,-2.9026,-2.9304,-2.9409,-2.9392,-2.9353,-2.9453,-2.9588,-2.9588,-2.9645,-2.9719,-2.9701,-2.9701,-2.9719,-2.9701,-2.9701,-2.9701,-2.9701,-2.9569,-2.9377,-2.9153,-2.8652,-2.7977,-2.7121,-2.6969,-2.6948,-2.6804,-2.624,-2.5747,-2.5593,-2.5096,-2.4707,-2.4707,-2.4707,-2.4707,-2.4707,-2.4707,-2.4707,-2.4707,-2.4707,-2.4749,-2.4861,-2.4915,-2.5031,-2.5253,-2.5313,-2.5388,-2.5503,-2.5511,-2.5511,-2.5511,-2.5511,-2.5511,-2.5511,-2.5499,-2.5498,-2.5515,-2.5578,-2.5637,-2.5698,-2.5701,-2.5693,-2.5693,-2.5709,-2.5707,-2.5707,-2.5707,-2.5707,-2.5707,-2.5707,-2.5707,-2.5707,1.9902,1.9245,1.8826,1.9174,1.644,1.4139,1.395,1.1697,0.9611,0.8506,0.6221,0.2043,-0.5026,-0.8016,-0.9075,-0.7996,-0.9787,-1.0864,-1.058,-1.2753,-1.4505,-1.5436,-1.6925,-1.8093,-1.8987,-1.9773,-2.0984,-2.2493,-2.3477,-2.4965,-2.6873,-2.7201,-2.7407,-2.7513,-2.7789,-2.7971,-2.8075,-2.854,-2.8845,-2.9003,-2.9156,-2.92,-2.9178,-2.9178,-2.8892,-2.8515,-2.8639,-2.8989,-2.937,-2.9225,-2.931,-2.9491,-2.9531,-2.9607,-2.9645,-2.9701,-2.9701,-2.9701,-2.9701,-2.9701,-2.9701,-2.9701,-2.9626,-2.9511,-2.9272,-2.9094,-2.8838,-2.8388,-2.7959,-2.7661,-2.7736,-2.7009,-2.6264,-2.5922,-2.5633,-2.5252,-2.4782,-2.4707,-2.4707,-2.4707,-2.4707,-2.4707,-2.4707,-2.4707,-2.4719,-2.4794,-2.4929,-2.5049,-2.5182,-2.5332,-2.5451,-2.5511,-2.5511,-2.5511,-2.5511,-2.5511,-2.5495,-2.5499,-2.5505,-2.5521,-2.5552,-2.5629,-2.5676,-2.5703,-2.5697,-2.5691,-2.5709,-2.5707,-2.5707,-2.5707,-2.5707,-2.5707,-2.5707,-2.5707,-2.5707,-2.5707]},{"header":{"parameterUnit":"m.s-1","parameterCategory":1,"la1":30.6,"la2":28.766,"lo1":-90.7593,"lo2":-88.6598,"dy":0.0162,"dx":0.0183,"nx":116,"ny":114,"refTime":"2024-06-29T06:00:00:Z","depth":0,"parameterNumber":3,"parameterNumberName":"V-component_of_WINDS"},"data":[0.0,0.0,0.0,0.0,0.0,0.0,0.0,0.0,0.0,0.0,0.0,0.0,0.0,0.0,0.0,0.0,0.0,0.0,0.0,0.0,0.0,0.0,0.0,0.0,0.0,0.0,0.0,0.0,0.0,0.0,0.0,0.0,0.0,0.0,0.0,0.0,0.0,0.0,0.0,0.0,0.0,0.0,0.0,0.0,0.0,0.0,0.0,0.0,0.0,0.0,0.0,0.0,0.0,0.0,0.0,0.0,0.0,0.0,0.0,0.0,0.0,0.0,0.0,0.0,0.0,0.0,0.0,0.0,0.0,0.0,0.0,0.0,0.0,0.0,0.0,0.0,0.0,0.0,0.0,0.0,0.0,0.0,0.0,0.0,0.0,0.0,0.0,0.0,0.0,0.0,0.0,0.0,0.0,0.0,0.0,0.0,0.0,0.0,0.0,0.0,0.0,0.0,0.0,0.0,0.0,0.0,0.0,0.0,0.0,0.0,0.0,0.0,0.0,0.0,0.0,0.0,0.0,0.0,0.0,0.0,0.0,0.0,0.0,0.0,0.0,0.0,0.0,0.0,0.0,0.0,0.0,0.0,0.0,0.0,0.0,0.0,0.0,0.0,0.0,0.0,0.0,0.0,0.0,0.0,0.0,0.0,0.0,0.0,0.0,0.0,0.0,0.0,0.0,0.0,0.0,0.0,0.0,0.0,0.0,0.0,0.0,0.0,0.0,0.0,0.0,0.0,0.0,0.0,0.0,0.0,0.0,0.0,0.0,0.0,0.0,0.0,0.0,0.0,0.0,0.0,0.0,0.0,0.0,0.0,0.0,0.0,0.0,0.0,0.0,0.0,0.0,0.0,0.0,0.0,0.0,0.0,0.0,0.0,0.0,0.0,0.0,0.0,0.0,0.0,0.0,0.0,0.0,0.0,0.0,0.0,0.0,0.0,0.0,0.0,0.0,0.0,0.0,0.0,0.0,0.0,0.0,0.0,0.0,0.0,0.0,0.0,0.0,0.0,0.0,0.0,0.0,0.0,0.0,0.0,0.0,0.0,0.0,0.0,0.0,0.0,0.0,0.0,0.0,0.0,0.0,0.0,0.0,0.0,0.0,0.0,0.0,0.0,0.0,0.0,0.0,0.0,0.0,0.0,0.0,0.0,0.0,0.0,0.0,0.0,0.0,0.0,0.0,0.0,0.0,0.0,0.0,0.0,0.0,0.0,0.0,0.0,0.0,0.0,0.0,0.0,0.0,0.0,0.0,0.0,0.0,0.0,0.0,0.0,0.0,0.0,0.0,0.0,0.0,0.0,0.0,0.0,0.0,0.0,0.0,0.0,0.0,0.0,0.0,0.0,0.0,0.0,0.0,0.0,0.0,0.0,0.0,0.0,0.0,0.0,0.0,0.0,0.0,0.0,0.0,0.0,0.0,0.0,0.0,0.0,0.0,0.0,0.0,0.0,0.0,0.0,0.0,0.0,0.0,0.0,0.0,0.0,0.0,0.0,0.0,0.0,0.0,0.0,0.0,0.0,0.0,0.0,0.0,0.0,0.0,0.0,0.0,0.0,0.0,0.0,0.0,0.0,0.0,0.0,0.0,0.0,0.0,0.0,0.0,0.0,0.0,0.0,0.0,0.0,0.0,0.0,0.0,0.0,0.0,0.0,0.0,0.0,0.0,0.0,0.0,0.0,0.0,0.0,0.0,0.0,0.0,0.0,0.0,0.0,0.0,0.0,0.0,0.0,0.0,0.0,0.0,0.0,0.0,0.0,0.0,0.0,0.0,0.0,0.0,0.0,0.0,0.0,0.0,0.0,0.0,0.0,0.0,0.0,0.0,0.0,0.0,0.0,0.0,0.0,0.0,0.0,0.0,0.0,0.0,0.0,0.0,0.0,0.0,0.0,0.0,0.0,0.0,0.0,0.0,0.0,0.0,0.0,0.0,0.0,0.0,0.0,0.0,0.0,0.0,0.0,0.0,0.0,0.0,0.0,0.0,0.0,0.0,0.0,0.0,0.0,0.0,0.0,0.0,0.0,0.0,0.0,0.0,0.0,0.0,0.0,0.0,0.0,0.0,0.0,0.0,0.0,0.0,0.0,0.0,0.0,0.0,0.0,0.0,0.0,0.0,0.0,0.0,0.0,0.0,0.0,0.0,0.0,0.0,0.0,0.0,0.0,0.0,0.0,0.0,0.0,0.0,0.0,0.0,0.0,0.0,0.0,0.0,0.0,0.0,0.0,0.0,0.0,0.0,0.0,0.0,0.0,0.0,0.0,0.0,0.0,0.0,0.0,0.0,0.0,0.0,0.0,0.0,0.0,0.0,0.0,0.0,0.0,0.0,0.0,0.0,0.0,0.0,0.0,0.0,0.0,0.0,0.0,0.0,0.0,0.0,0.0,0.0,0.0,0.0,0.0,0.0,0.0,0.0,0.0,0.0,0.0,0.0,0.0,0.0,0.0,0.0,0.0,0.0,0.0,0.0,0.0,0.0,0.0,0.0,0.0,0.0,0.0,0.0,0.0,0.0,0.0,0.0,0.0,0.0,0.0,0.0,0.0,0.0,0.0,0.0,0.0,0.0,0.0,0.0,0.0,0.0,0.0,0.0,0.0,0.0,0.0,0.0,0.0,0.0,0.0,0.0,0.0,0.0,0.0,0.0,0.0,0.0,0.0,0.0,0.0,0.0,0.0,0.0,0.0,0.0,0.0,0.0,0.0,0.0,0.0,0.0,0.0,0.0,0.0,0.0,0.0,0.0,0.0,0.0,0.0,0.0,0.0,0.0,0.0,0.0,0.0,0.0,0.0,0.0,0.0,0.0,0.0,0.0,0.0,0.0,0.0,0.0,0.0,0.0,0.0,0.0,0.0,0.0,0.0,0.0,0.0,0.0,0.0,0.0,0.0,0.0,0.0,0.0,0.0,0.0,0.0,0.0,0.0,0.0,0.0,0.0,0.0,0.0,0.0,0.0,0.0,0.0,0.0,0.0,0.0,0.0,0.0,0.0,0.0,0.0,0.0,0.0,0.0,0.0,0.0,0.0,0.0,0.0,0.0,0.0,0.0,0.0,0.0,0.0,0.0,0.0,0.0,0.0,0.0,0.0,0.0,0.0,0.0,0.0,0.0,0.0,0.0,0.0,0.0,0.0,0.0,0.0,0.0,0.0,0.0,0.0,0.0,0.0,0.0,0.0,0.0,0.0,0.0,0.0,0.0,0.0,0.0,0.0,0.0,0.0,0.0,0.0,0.0,0.0,0.0,0.0,0.0,0.0,0.0,0.0,0.0,0.0,0.0,0.0,0.0,0.0,0.0,0.0,0.0,0.0,0.0,0.0,0.0,0.0,0.0,0.0,0.0,0.0,0.0,0.0,0.0,0.0,0.0,0.0,0.0,0.0,0.0,0.0,0.0,0.0,0.0,0.0,0.0,0.0,0.0,0.0,0.0,0.0,0.0,0.0,0.0,0.0,0.0,0.0,0.0,0.0,0.0,0.0,0.0,0.0,0.0,0.0,0.0,0.0,0.0,0.0,0.0,0.0,0.0,0.0,0.0,0.0,0.0,0.0,0.0,0.0,0.0,0.0,0.0,0.0,0.0,0.0,0.0,0.0,0.0,0.0,0.0,0.0,0.0,0.0,0.0,0.0,0.0,0.0,0.0,0.0,0.0,0.0,0.0,0.0,0.0,0.0,0.0,0.0,0.0,0.0,0.0,0.0,0.0,0.0,0.0,0.0,0.0,0.0,0.0,0.0,0.0,0.0,0.0,0.0,0.0,0.0,0.0,0.0,0.0,0.0,0.0,0.0,0.0,0.0,0.0,0.0,0.0,0.0,0.0,0.0,0.0,0.0,0.0,0.0,0.0,0.0,0.0,0.0,0.0,0.0,0.0,0.0,0.0,0.0,0.0,0.0,0.0,0.0,0.0,0.0,0.0,0.0,0.0,0.0,0.0,0.0,0.0,0.0,0.0,0.0,0.0,0.0,0.0,0.0,0.0,0.0,0.0,0.0,0.0,0.0,0.0,0.0,0.0,0.0,0.0,0.0,0.0,0.0,0.0,0.0,0.0,0.0,0.0,0.0,0.0,0.0,0.0,0.0,0.0,0.0,0.0,0.0,0.0,0.0,0.0,0.0,0.0,0.0,0.0,0.0,0.0,0.0,0.0,0.0,0.0,0.0,0.0,0.0,0.0,0.0,0.0,0.0,0.0,0.0,0.0,0.0,0.0,0.0,0.0,0.0,0.0,0.0,0.0,0.0,0.0,0.0,0.0,0.0,0.0,0.0,0.0,0.0,0.0,0.0,0.0,0.0,0.0,0.0,0.0,0.0,0.0,0.0,0.0,0.0,0.0,0.0,0.0,0.0,0.0,0.0,0.0,0.0,0.0,0.0,0.0,0.0,0.0,0.0,0.0,0.0,0.0,0.0,0.0,0.0,0.0,0.0,0.0,0.0,0.0,0.0,0.0,0.0,0.0,0.0,0.0,0.0,0.0,0.0,0.0,0.0,0.0,0.0,0.0,0.0,0.0,0.0,0.0,0.0,0.0,0.0,0.0,0.0,0.0,0.0,0.0,0.0,0.0,0.0,0.0,0.0,0.0,0.0,0.0,0.0,0.0,0.0,0.0,0.0,0.0,0.0,0.0,0.0,0.0,0.0,0.0,0.0,0.0,0.0,0.0,0.0,0.0,0.0,0.0,0.0,0.0,0.0,0.0,0.0,0.0,0.0,0.0,0.0,0.0,0.0,0.0,0.0,0.0,0.0,0.0,0.0,0.0,0.0,0.0,0.0,0.0,0.0,0.0,0.0,0.0,0.0,0.0,0.0,0.0,0.0,0.0,0.0,0.0,0.0,0.0,0.0,0.0,0.0,0.0,0.0,0.0,0.0,0.0,0.0,0.0,0.0,0.0,0.0,0.0,0.0,0.0,0.0,0.0,0.0,0.0,0.0,0.0,0.0,0.0,0.0,0.0,0.0,0.0,0.0,0.0,0.0,0.0,0.0,0.0,0.0,0.0,0.0,0.0,0.0,0.0,0.0,0.0,0.0,0.0,0.0,0.0,0.0,0.0,0.0,0.0,0.0,0.0,0.0,0.0,0.0,0.0,0.0,0.0,0.0,0.0,0.0,0.0,0.0,0.0,0.0,0.0,0.0,0.0,0.0,0.0,0.0,0.0,0.0,0.0,0.0,0.0,0.0,0.0,0.0,0.0,0.0,0.0,0.0,0.0,0.0,0.0,0.0,0.0,0.0,0.0,0.0,0.0,0.0,0.0,0.0,0.0,0.0,0.0,0.0,0.0,0.0,0.0,0.0,0.0,0.0,0.0,0.0,0.0,0.0,0.0,0.0,0.0,0.0,0.0,0.0,0.0,0.0,0.0,0.0,0.0,0.0,0.0,0.0,0.0,0.0,0.0,0.0,0.0,0.0,0.0,0.0,0.0,0.0,0.0,0.0,0.0,0.0,0.0,0.0,0.0,0.0,0.0,0.0,0.0,0.0,0.0,0.0,0.0,0.0,0.0,0.0,0.0,0.0,0.0,0.0,0.0,0.0,0.0,0.0,0.0,0.0,0.0,0.0,0.0,0.0,0.0,0.0,0.0,0.0,0.0,0.0,0.0,0.0,0.0,0.0,0.0,0.0,0.0,0.0,0.0,0.0,0.0,0.0,0.0,0.0,0.0,0.0,0.0,0.0,0.0,0.0,0.0,0.0,0.0,0.0,0.0,0.0,0.0,0.0,0.0,0.0,0.0,0.0,0.0,0.0,0.0,0.0,0.0,0.0,0.0,0.0,0.0,0.0,0.0,0.0,0.0,0.0,0.0,0.0,0.0,0.0,0.0,0.0,0.0,0.0,0.0,0.0,0.0,0.0,0.0,0.0,0.0,0.0,0.0,0.0,0.0,0.0,0.0,0.0,0.0,0.0,0.0,0.0,0.0,0.0,0.0,0.0,0.0,0.0,0.0,0.0,0.0,0.0,0.0,0.0,0.0,0.0,0.0,0.0,0.0,0.0,0.0,0.0,0.0,0.0,0.0,0.0,0.0,0.0,0.0,0.0,0.0,0.0,0.0,0.0,0.0,0.0,0.0,0.0,0.0,0.0,0.0,0.0,0.0,0.0,0.0,0.0932,0.1455,0.0,0.0,0.0,0.0,0.0,0.0,0.0,0.0,0.0,0.0,0.0,0.0,0.0,0.0,0.0,0.0,0.0,0.0,0.0,0.0,0.0,0.0,0.0,0.1958,0.1945,0.2053,0.2028,0.1999,0.1999,0.0,0.0,0.0,0.0,0.0,0.2343,0.2383,0.2606,0.3022,0.3349,0.3728,0.4172,0.3982,0.4015,0.4214,0.0,0.0,0.0,0.0,0.0,0.0,0.0,0.0,0.0,0.0,0.0,0.0,0.0,0.0,0.0,0.0,0.0,0.0,0.0,0.0,0.0,0.0,0.0,0.0,0.0,0.0,0.0,0.0,0.0,0.0,0.0,0.0,0.0,0.0,0.0,0.0,0.0,0.0,0.0,0.0,0.0,0.0,0.0,0.0,0.0,0.0,0.0,0.0,0.0,0.0,0.0,0.0,0.0,0.0,0.0,0.0,0.0,0.0,0.0,0.0,0.0,0.0,0.0,0.0,0.0,0.0,0.0,0.0,0.0,0.0,-0.1059,0.0102,0.0,0.0,0.0,0.0,0.0,0.0,0.0,0.0,0.0,0.0,0.0,0.0,0.0,0.0,0.0,0.0,0.0,0.0,0.0,0.0,0.0,0.2066,0.215,0.2115,0.2092,0.2115,0.2119,0.2111,0.2091,0.0,0.0,0.0,0.0,0.2279,0.2483,0.2545,0.2958,0.3739,0.3841,0.4421,0.5457,0.5661,0.0,0.0,0.561,0.0,0.0,0.0,0.0,0.0,0.0,0.0,0.0,0.0,0.0,0.0,0.0,0.0,0.0,0.0,0.0,0.0,0.0,0.0,0.0,0.0,0.0,0.0,0.0,0.0,0.0,0.0,0.0,0.0,0.0,0.0,0.0,0.0,0.0,0.0,0.0,0.0,0.0,0.0,0.0,0.0,0.0,0.0,0.0,0.0,0.0,0.0,0.0,0.0,0.0,0.0,0.0,0.0,0.0,0.0,0.0,0.0,0.0,0.0,0.0,0.0,0.0,0.0,-0.5253,-0.4388,-0.3864,-0.3535,-0.4413,-0.6071,-0.3294,-0.163,-0.0791,0.0397,0.0,0.0,0.0,0.0,0.0,0.0,0.0,0.0,0.0,0.0,0.0,0.0,0.0,0.0,0.0,0.0,0.0,0.0,0.0,0.2331,0.2736,0.2571,0.2562,0.2912,0.2736,0.2563,0.2445,0.0,0.0,0.0,0.2132,0.2341,0.282,0.2844,0.3181,0.3877,0.4905,0.6155,0.7588,0.0,0.0,0.0,0.638,0.5503,0.0,0.0,0.0,0.0,0.0,0.0,0.0,0.0,0.0,0.0,0.0,0.0,0.0,0.0,0.0,0.0,0.0,0.0,0.0,0.0,0.0,0.0,0.0,0.0,0.0,0.0,0.0,0.0,0.0,0.0,0.0,0.0,0.0,0.0,0.0,0.0,0.0,0.0,0.0,0.0,0.0,0.0,0.0817,0.0926,0.0,0.0,0.0,0.0,0.0,0.0,0.0,0.0,0.0,0.0,0.0,0.0,0.0,-0.5336,-0.2979,-0.765,-0.8903,-0.6779,-0.9574,-1.0924,-1.0919,-0.9502,-0.8484,-0.7831,-0.6576,0.0,-0.3562,-0.3262,0.0,0.0,0.0,0.0,0.0,0.0,0.0,0.0,0.0,0.0,0.0,0.0,0.0,0.0,0.0,0.0,0.0,0.0,0.0,0.0,0.0,0.2794,0.3013,0.3452,0.3283,0.3103,0.0,0.0,0.0,0.2321,0.2391,0.2693,0.3222,0.3534,0.4297,0.5541,0.6465,0.7428,0.0,0.0,0.0,0.0,0.7833,0.7278,0.0,0.0,0.0,0.0,0.0,0.0,0.0,0.0,0.0,0.0,0.0,0.0,0.0,0.0,0.0,0.0,0.0,0.0,0.0,0.0,0.0,0.0,0.0,0.0,0.0,0.0,0.0,0.0,0.0,0.0,0.0,0.0,0.0,0.0,0.0,0.0,0.0,0.0,0.0,0.0,0.0,0.0526,-0.0157,0.0636,-0.1549,-0.2855,0.0,0.0,0.0,0.0,0.0,0.0,0.0,0.0,0.0,-0.8676,-0.9153,-0.9147,-0.8631,-1.2964,-1.3136,-0.9122,-0.9101,-0.9649,-1.0567,-0.9897,-0.9144,-0.8376,-0.7449,-0.6222,-0.4818,-0.3783,-0.3294,-0.3091,0.0,0.0,0.0,0.0,0.0223,0.1067,0.0,0.0,0.0,0.0,0.0,0.0,0.0,0.0,0.0,0.0,0.0,0.0,0.2966,0.3212,0.3545,0.3986,0.0,0.0,0.0,0.0,0.0,0.2716,0.247,0.2784,0.3754,0.4554,0.562,0.0,0.0,0.0,0.0,0.0,0.0,0.0,0.0,0.0,0.0,0.0,0.0,0.0,0.0,0.0,0.0,0.0,0.0,0.0,0.0,0.0,0.0,0.0,0.0,0.0,0.0,0.0,0.0,0.0,0.0,0.0,0.0,0.0,0.0,0.0,0.0,0.0,0.0,0.0,0.0,0.0,0.0,0.0,0.0,0.0,0.0,0.0,0.0,0.0,0.0,-0.0475,-0.1517,0.0283,-0.3078,-0.4921,0.0,0.0,0.0,0.0,0.0,0.0,-0.9689,-0.9481,-0.9755,-1.0677,-1.143,-1.2222,-1.3064,-1.5598,-1.4884,-1.0893,-0.8078,-0.7538,-0.8967,-0.8751,-0.8271,-0.7688,-0.7171,-0.6313,-0.5126,-0.3733,-0.3663,-0.4177,-0.1812,-0.1692,-0.2735,-0.1542,-0.0695,-0.0132,0.0,0.0,0.0,0.0,0.0,0.0,0.0,0.0,0.0,0.0,0.0,0.3387,0.0,0.0,0.0,0.0,0.0,0.0,0.0,0.0,0.0,0.352,0.2146,0.2371,0.4504,0.6012,0.0,0.0,0.0,0.0,0.0,0.0,0.0,0.0,0.0,0.0,0.0,0.0,0.0,0.0,0.0,0.0,0.0,0.0,0.0,0.0,0.0,0.0,0.0,0.0,0.0,0.0,0.0,0.0,0.0,0.0,0.0,0.0,0.0,0.0,0.0,0.0,0.0,0.0,0.0,0.0,0.0,0.0,0.0,0.0,0.0,0.0,0.0,0.0,0.0,0.0,0.0,0.0,0.0,-0.0411,-0.5434,0.0,0.0,0.0,0.0,-0.6974,-0.6406,-0.7086,-0.9385,-0.9974,-1.0888,-1.2336,-1.3284,-1.3259,-1.2201,-1.2335,-1.1931,-1.0847,-0.7911,-0.7084,-0.8153,-0.7186,-0.6206,-0.5287,-0.5855,-0.5479,-0.4412,-0.4059,-0.3593,-0.3059,-0.2423,-0.266,-0.3202,-0.2548,-0.2464,-0.2539,0.0,0.0,0.0,0.2749,0.253,0.2382,0.2519,0.2382,0.2296,0.2339,0.2762,0.0,0.0,0.0,0.0,0.0,0.0,0.0,0.0,0.0,0.3586,0.3044,0.3119,0.3892,0.5462,0.6669,0.7696,0.0,0.0,0.0,0.0,0.0,0.0,0.0,0.0,0.0,0.0,0.0,0.0,0.0,0.0,0.0,0.0,0.0,0.0,0.0,0.0,0.0,0.0,0.0,0.0,0.0,0.0,0.0,0.0,0.0,0.0,0.0,0.0,0.0,0.0,0.0,0.0,0.0,0.0,0.0,0.0,0.0,0.0,0.0,0.0,0.0,0.0,0.0,0.0,0.0,0.0,0.0,0.0,-0.5372,-0.8863,0.0,-0.7679,-0.9017,-0.9838,-0.9286,-1.0048,-1.1076,-1.2329,-1.1545,-1.1454,-1.2333,-1.1881,-1.0967,-0.9585,-0.8756,-0.8239,-0.81,-0.7481,-0.7052,-0.6876,-0.6773,-0.672,-0.6607,-0.6086,-0.571,-0.537,-0.4508,-0.4207,-0.4264,-0.3644,-0.3597,-0.381,-0.3009,-0.266,-0.2529,0.3277,0.2865,0.0,0.274,0.253,0.2362,0.2421,0.2294,0.226,0.245,0.2917,0.3389,0.0,0.0,0.0,0.0,0.0,0.0,0.0,0.0,0.3758,0.3584,0.4594,0.5446,0.6013,0.7412,0.0,0.0,0.0,0.0,0.0,0.0,0.0,0.0,0.0,0.0,0.0,0.0,0.0,0.0,0.0,0.0,0.9646,0.0,0.0,0.0,0.0,0.0,0.0,0.0,0.0,0.0,0.0,0.0,0.0,0.0,0.0,0.0,0.0,0.0,0.0,0.0,0.0,0.0,0.0,0.0,0.0,0.0,0.0,0.0,0.0,0.0,0.0,0.0,0.0,0.0,0.0,0.0,-0.9916,-0.8316,-1.1074,-1.2147,-0.9689,-1.0619,-1.1152,-1.0647,-1.1454,-1.215,-1.2495,-1.1744,-1.1366,-1.1451,-1.0485,-0.9474,-0.8456,-0.6607,-0.5973,-0.6676,-0.6632,-0.6411,-0.6136,-0.6032,-0.6199,-0.6524,-0.5773,-0.5391,-0.5332,-0.4519,-0.4353,-0.4567,-0.4132,-0.3968,-0.3858,-0.3347,-0.3067,-0.2901,0.3014,0.2776,0.2578,0.251,0.2549,0.247,0.2148,0.2256,0.2525,0.2936,0.3386,0.0,0.0,0.0,0.0,0.0,0.0,0.0,0.0,0.3611,0.3549,0.528,0.6459,0.6776,0.6167,0.0,0.0,0.0,0.0,0.0,0.0,0.0,0.0,0.0,0.0,0.0,0.0,0.0,0.0,0.0,0.0,0.0,1.1296,0.0,0.0,0.0,0.0,0.0,0.0,0.0,0.0,0.0,0.0,0.0,0.0,0.0,0.0,0.0,0.0,0.0,0.0,0.0,0.0,0.0,0.0,0.0,0.0,0.0,0.0,0.0,0.0,0.0,0.0,0.0,0.0,0.0,-0.5848,-0.9828,-1.1968,-0.8936,-1.1952,-1.3741,-1.2399,-1.1362,-1.0788,-1.0792,-1.0228,-0.9766,-0.9619,-1.038,-1.049,-0.9784,-0.9207,-0.894,-0.8947,-0.6018,-0.5332,-0.674,-0.5449,-0.523,-0.5977,-0.4952,-0.4577,-0.4746,-0.4743,-0.4525,-0.4249,-0.4249,-0.4027,-0.3694,-0.3913,-0.3747,-0.3413,-0.3583,-0.3691,-0.3852,0.288,0.2636,0.248,0.2558,0.2312,0.2096,0.2098,0.1946,0.2019,0.2562,0.0,0.0,0.0,0.0,0.0,0.0,0.0,0.0,0.4187,0.0,0.5418,0.6272,0.6216,0.0,0.0,0.0,0.0,0.0,0.0,0.0,0.0,0.0,0.0,0.0,0.0,0.0,0.0,0.0,0.0,0.0,0.0,0.0,1.2253,0.0,0.0,0.0,0.0,0.0,0.0,0.0,0.0,0.0,0.0,0.0,0.0,0.0,0.0,0.0,0.0,0.0,0.0,0.0,0.0,0.0,0.0,0.0,0.0,0.0,0.0,0.0,0.0,0.0,0.0,0.0,-0.9687,-0.9298,-0.9779,-1.1422,-1.2553,-1.2462,-1.3157,-1.3024,-1.1432,-1.2068,-1.2142,-1.1125,-1.0888,-1.0597,-1.0035,-0.9578,-0.9155,-0.8778,-0.8131,-0.7534,-0.7101,-0.6735,-0.6416,-0.6195,-0.5773,-0.5719,-0.5982,-0.5344,-0.5077,-0.5132,-0.5293,-0.5352,-0.5352,-0.5458,-0.534,-0.4948,-0.4076,-0.3691,-0.3688,-0.3858,-0.3855,-0.3741,0.2672,0.2549,0.242,0.2213,0.2065,0.1926,0.1754,0.1626,0.1827,0.257,0.0,0.0,0.0,0.0,0.0,0.0,0.0,0.0,0.3842,0.5137,0.6087,0.0,0.0,0.0,0.0,0.0,0.0,0.0,0.0,0.0,0.0,0.0,0.0,0.0,0.0,0.0,0.0,0.0,0.0,0.0,0.0,0.0,1.3616,1.2693,1.2292,1.2097,1.1377,1.1023,1.0796,1.0364,0.0,0.0,0.0,0.0,0.0,0.0,0.0,0.0,0.0,0.0,0.0,0.0,0.0,0.0,0.0,0.0,0.0,0.0,0.0,0.0,0.0,0.0,0.0,0.0,-1.0403,-1.0227,-1.1984,-1.2348,-1.2664,-1.3315,-1.2942,-1.2327,-1.1444,-1.1734,-1.158,-1.0643,-1.0702,-1.0387,-0.9503,-0.911,-0.8475,-0.7605,-0.7326,-0.6789,-0.5937,-0.6431,-0.6268,-0.5445,-0.5555,-0.5496,-0.5269,-0.5285,-0.5289,-0.5344,-0.5673,-0.5778,-0.5727,-0.5778,-0.5496,-0.4886,0.0,0.0,0.0,0.0,-0.3633,-0.3577,0.2405,0.2432,0.2302,0.1699,0.1806,0.1789,0.1262,0.1325,0.1786,0.2729,0.0,0.0,0.0,0.0,0.0,0.0,0.0,0.0,0.0,0.0,0.0,0.0,0.0,0.0,0.0,0.0,0.0,0.0,0.0,0.0,0.0,0.0,0.0,0.0,0.0,0.0,0.0,0.0,0.0,0.0,0.0,0.0,1.5125,1.3813,1.3287,1.3172,1.2404,1.2118,1.2104,1.2054,0.0,0.0,0.0,0.0,0.0,0.0,0.0,0.0,0.0,0.0,0.0,0.0,0.0,0.0,0.0,0.0,0.0,0.0,0.0,0.0,0.0,0.0,0.0,0.0,-1.0427,-1.132,-1.2539,-1.2278,-1.2026,-1.2165,-1.1588,-1.1309,-1.1554,-1.0646,-0.9953,-0.9762,-0.9932,-0.9517,-0.8368,-0.8659,0.0,0.0,0.0,-0.6347,-0.5407,-0.5681,-0.5517,-0.4959,-0.5171,-0.4948,-0.434,-0.4948,-0.5226,-0.5226,-0.5828,-0.5837,-0.5521,-0.5555,-0.4999,-0.4119,-0.4453,-0.4284,-0.3843,-0.3352,-0.3244,-0.3416,0.211,0.1966,0.1751,0.1626,0.1384,0.1178,0.105,0.1076,0.1432,0.2382,0.2861,0.0,0.0,0.0,0.0,0.0,0.0,0.0,0.0,0.0,0.0,0.0,0.0,0.0,0.0,0.0,0.0,0.0,0.0,0.0,0.0,0.0,0.0,0.0,0.0,0.0,0.0,0.0,0.0,0.0,0.0,0.0,1.6232,1.546,1.5044,1.4697,1.3416,1.3202,1.3436,1.2884,1.2526,1.2302,1.2244,0.0,0.0,0.0,0.0,0.0,0.0,0.0,0.0,0.0,0.0,0.0,0.0,0.0,0.0,0.0,0.0,0.0,0.0,0.0,0.0,-1.1173,-1.1121,-1.0758,-1.0399,-0.9463,-0.9144,-1.0124,-0.9368,-0.8795,-0.8847,-0.8926,-0.911,-0.928,-0.9093,-0.8567,-0.7711,-0.7004,-0.6568,-0.6411,-0.5923,-0.5769,-0.605,-0.6105,-0.6209,-0.6362,-0.566,0.0,-0.5214,-0.4842,-0.468,-0.468,-0.5007,-0.5143,-0.5201,-0.5337,-0.5062,-0.4519,-0.391,-0.3577,-0.3522,-0.3524,-0.3527,-0.3596,0.1514,0.1551,0.1394,0.0883,0.0717,0.0532,0.0203,0.0117,0.0329,0.0965,0.1143,0.0,0.0,0.0,0.0,0.0,0.0,0.0,0.0,0.0,0.0,0.0,0.0,0.0,0.0,0.0,0.0,0.0,0.0,0.0,0.0,0.0,0.0,0.0,0.0,0.0,0.0,0.0,0.0,0.0,0.0,0.0,1.8029,1.6916,1.6122,1.5526,1.4887,1.4475,1.4204,1.3904,1.3416,1.295,1.2956,1.1979,1.0824,0.0,0.0,0.0,0.0,0.0,0.0,0.0,0.0,0.0,0.0,0.0,0.0,0.0,0.0,-0.6927,-0.8165,0.0,-0.9486,-1.0097,-0.9773,-0.9321,-0.9153,-0.818,-0.7558,-0.7751,-0.826,-0.8193,-0.7132,-0.818,-0.8613,-0.7947,-0.7576,-0.7261,-0.695,-0.6298,-0.5869,-0.5832,-0.5058,-0.4944,-0.5555,-0.5273,-0.516,-0.5269,-0.5035,-0.4794,-0.4512,-0.4589,-0.4622,-0.468,-0.5201,-0.5482,-0.5557,-0.5347,-0.5197,-0.4915,-0.3809,-0.3545,-0.3675,-0.3738,-0.3759,-0.3767,0.0768,0.0968,0.0904,0.0098,0.0011,-0.0137,-0.0674,-0.0809,-0.0737,-0.0437,-0.0721,-0.0759,-0.0273,-0.1057,-0.162,0.0,0.0,0.0,0.0,0.0,0.0,0.0,0.0,0.0,0.0,0.0,0.0,0.0,0.0,0.0,0.0,0.0,0.0,0.0,0.0,0.0,0.0,0.0,0.0,0.0,0.0,0.0,1.9575,1.8159,1.7004,1.6156,1.6121,1.5376,1.4433,1.4672,1.4061,1.3254,1.3417,1.2738,1.1768,1.1468,1.1647,0.0,0.0,0.0,0.0,0.0,0.0,0.0,0.0,0.0,0.2526,0.0162,-0.1766,-0.3965,-0.6947,-0.7584,-0.7832,-0.8357,-0.8034,-0.7747,-0.7806,-0.732,-0.6455,-0.5273,-0.702,-0.7647,-0.6009,-0.7317,-0.7629,-0.6225,-0.595,-0.5729,-0.5579,-0.5285,-0.4978,-0.4723,-0.4073,-0.3969,-0.4538,-0.3969,-0.3634,-0.3583,-0.3914,-0.3848,-0.3443,-0.4128,-0.4594,-0.4779,-0.5419,-0.5658,-0.5449,-0.5114,-0.4921,-0.4655,-0.3643,-0.3479,-0.3773,-0.3785,-0.3872,-0.4,-0.0076,-0.012,-0.012,-0.0164,-0.0557,-0.0879,-0.0956,-0.0977,-0.0925,-0.076,-0.1194,-0.1458,-0.133,-0.1952,-0.2635,-0.3284,0.0,0.0,0.0,0.0,0.0,0.0,0.0,0.0,0.0,0.0,0.0,0.0,0.0,0.0,0.0,0.0,0.0,0.0,0.0,0.0,0.0,0.0,0.0,0.0,0.0,0.0,1.9793,1.9019,1.805,1.7063,1.6431,1.5125,1.3831,1.4602,1.4319,1.3737,1.4344,1.3996,1.3304,1.3092,0.0,1.2148,1.2465,1.2345,1.168,0.9838,0.8762,0.8039,0.0,0.0,0.2558,0.4253,0.1615,-0.1568,-0.3284,-0.3191,-0.3933,-0.7256,-0.7393,-0.663,-0.5245,-0.5729,-0.5404,-0.3128,-0.433,-0.5362,-0.5366,-0.5194,-0.491,-0.4474,-0.4419,-0.3926,-0.2717,-0.2626,-0.2611,-0.2729,-0.2628,-0.2786,-0.3267,-0.273,-0.255,-0.279,-0.2321,-0.245,-0.3125,-0.3256,-0.3747,-0.4549,-0.4672,-0.4341,-0.3689,-0.3919,-0.3525,-0.2895,-0.2786,-0.281,-0.2921,-0.3283,-0.3747,-0.42,-0.0613,-0.0932,-0.1116,-0.1127,-0.1279,-0.1471,-0.1665,-0.1957,-0.223,-0.2399,-0.324,-0.3891,-0.41,-0.5237,-0.6278,-0.7029,-0.4304,0.0,0.0,0.0,0.0,0.0,0.0,0.0,0.0,0.0,0.0,0.0,0.0,0.0,0.0,0.0,0.0,0.0,0.0,0.0,0.0,0.0,0.0,0.0,0.0,0.0,2.0002,1.9231,1.8388,1.7483,1.6663,1.519,0.0,0.0,1.4437,1.3844,1.468,1.4294,1.3506,1.33,1.32,0.0,1.4942,0.0,0.0,0.0,1.2109,1.0895,1.0073,0.8362,0.667,0.5653,0.4177,0.2237,-0.0608,-0.1986,-0.3284,0.0,-0.5739,-0.5788,-0.5089,-0.4816,-0.433,-0.3463,-0.3292,-0.3398,-0.3846,-0.4149,-0.4027,-0.3277,-0.2722,-0.2354,-0.2343,-0.2147,-0.2242,-0.2582,-0.2073,-0.2025,-0.2575,-0.1842,-0.1659,-0.2151,-0.2067,-0.221,-0.2589,-0.3213,-0.3756,-0.421,-0.4262,-0.3861,-0.3301,-0.3407,-0.327,-0.2916,-0.2427,-0.2505,-0.29,-0.2992,-0.3107,-0.3374,-0.108,-0.1419,-0.1696,-0.1874,-0.1964,-0.2065,-0.226,-0.2686,-0.3145,-0.3541,-0.4842,-0.6079,-0.6976,-0.8155,-0.9108,-0.9689,-0.7147,-0.3951,0.0,0.0,0.0,0.0,0.0,0.0,0.0,0.0,0.0,0.0,0.0,0.0,0.0,0.0,0.0,0.0,0.0,0.0,0.0,0.0,0.0,0.0,0.0,0.0,1.9776,1.8744,1.7815,1.6992,1.6324,1.4898,0.0,0.0,1.3667,1.3053,1.3946,1.3646,1.2984,1.307,1.3535,1.437,1.59,0.0,0.0,1.5321,1.4739,1.3481,1.1929,1.1298,1.0254,0.7351,0.6759,0.5632,0.1956,0.016,-0.1235,-0.2688,-0.3271,-0.3526,-0.3586,-0.3046,-0.2558,-0.2449,-0.1839,-0.1506,-0.1845,-0.2658,-0.2817,-0.1953,-0.1229,-0.1077,-0.1578,-0.1418,-0.1507,-0.1862,-0.1193,-0.1073,-0.1576,-0.101,-0.0948,-0.1391,-0.1613,-0.1887,-0.2148,-0.3189,-0.3689,-0.3758,-0.3758,-0.342,-0.2882,-0.2882,-0.2815,-0.2547,-0.1945,-0.2014,-0.2485,-0.2284,-0.2485,-0.282,-0.1505,-0.1536,-0.1647,-0.2108,-0.2509,-0.2709,-0.252,-0.2778,-0.3143,-0.3555,-0.5324,-0.7379,-0.9548,-0.9824,-0.9925,-1.0073,-0.8398,-0.527,-0.041,0.1547,0.0,0.0,0.0,0.0,0.0,0.0,0.0,0.0,0.0,0.0,0.0,0.0,0.0,0.0,0.0,0.0,0.0,0.0,0.0,0.0,0.0,0.0,1.8954,1.7302,1.6081,1.5257,1.5092,0.0,0.0,0.0,1.1616,1.1027,1.1757,1.1831,0.0,1.2573,1.356,0.0,0.0,0.0,1.5933,1.5209,1.564,1.5513,1.289,1.2268,1.1795,1.0163,0.9533,0.8195,0.4548,0.4645,0.3851,-0.0325,0.0055,0.0884,0.072,0.0221,0.0277,0.1279,0.0666,0.0277,0.0723,-0.0279,-0.0783,-0.028,-0.0224,-0.0057,0.0294,0.0364,0.0313,0.0129,0.0199,0.0134,-0.0067,-0.0202,-0.0336,-0.0336,-0.0471,-0.1008,-0.1942,-0.2813,-0.3215,-0.3215,-0.3215,-0.2815,-0.2147,-0.2147,-0.1745,-0.1143,-0.1143,-0.1143,-0.1143,-0.1143,-0.1949,-0.3023,-0.2377,-0.2656,-0.2878,-0.3043,-0.3211,-0.3309,-0.3238,-0.355,-0.4042,-0.4703,-0.6586,0.0,0.0,0.0,0.0,0.0,-0.8529,-0.5557,-0.0872,0.1797,0.0,0.0,0.0,0.0,0.0,0.0,0.0,0.0,0.0,0.0,0.0,0.0,0.0,0.0,0.0,0.0,0.0,0.0,0.0,0.0,0.0,0.0,1.8117,1.6976,1.5924,1.4883,0.0,0.0,0.0,0.0,0.0,0.0,1.1522,0.0,0.0,1.205,0.0,0.0,0.0,0.0,1.738,1.7635,1.7368,1.6718,1.5452,1.4328,1.3047,1.1239,1.0401,0.9274,0.6974,0.5436,0.3971,0.2432,0.1572,0.1051,0.0942,0.0775,0.0831,0.1113,0.1224,0.0,0.0,0.1114,0.0,0.1116,0.1483,0.1699,0.1754,0.1747,0.1671,0.1455,0.147,0.1344,0.1076,0.1009,0.0673,0.0067,-0.0472,-0.1144,-0.2012,-0.2347,-0.248,-0.248,-0.248,-0.2079,-0.1411,-0.1411,-0.1276,-0.1076,-0.1076,-0.1076,-0.1076,-0.1076,-0.1344,-0.1746,-0.2967,-0.3262,-0.3469,-0.3469,-0.3635,0.0,0.0,0.0,0.0,0.0,0.0,0.0,0.0,0.0,0.0,0.0,0.0,-0.6698,-0.2645,0.0,0.0,0.0,0.0,0.0,0.0,0.0,0.0,0.0,0.0,0.0,0.0,0.0,0.0,0.0,0.0,0.0,0.0,0.0,0.0,0.0,0.0,0.0,1.6733,1.5506,1.4422,0.0,0.0,0.0,0.0,0.0,0.0,0.0,0.0,0.0,0.0,0.0,0.0,1.4213,0.0,1.6888,1.7485,1.825,1.7807,1.6922,1.5954,1.4911,1.36,1.164,1.0544,0.9531,0.8114,0.6137,0.4641,0.4399,0.3366,0.2561,0.2378,0.2384,0.2386,0.2223,0.2587,0.2834,0.0,0.0,0.0,0.2011,0.2361,0.2498,0.2273,0.2277,0.2215,0.2078,0.208,0.1947,0.1614,0.1547,0.1143,0.0336,-0.0336,-0.0942,-0.1477,-0.1678,-0.1745,-0.1745,-0.1745,-0.1478,-0.1076,-0.1076,-0.1076,-0.1076,-0.1076,-0.1076,-0.1076,-0.1076,-0.1076,-0.1076,-0.3275,-0.341,-0.3463,0.0,0.0,0.0,0.0,0.0,0.0,0.0,0.0,0.0,0.0,0.0,0.0,0.0,0.0,0.0,0.0,0.0,0.0,0.0,0.0,0.0,1.0474,1.1196,0.0,0.0,0.0,0.0,0.0,0.0,0.0,0.0,0.0,0.0,0.0,0.0,0.0,0.0,0.0,0.0,1.4853,1.3062,0.0,0.0,0.0,0.0,0.0,0.0,0.0,0.0,0.0,0.0,0.0,0.0,0.0,1.4967,1.6111,1.6385,1.6491,1.7169,1.7076,1.6343,1.4642,1.4171,1.3594,1.1537,1.0225,0.9081,0.0,0.0,0.5937,0.5538,0.5379,0.5246,0.4984,0.4959,0.4857,0.0,0.0,0.0,0.0,0.0,0.0,0.248,0.2429,0.2387,0.2157,0.222,0.2283,0.2211,0.228,0.2082,0.1748,0.1479,0.1075,0.0538,0.0,-0.0202,-0.0269,-0.0806,-0.1076,-0.1076,-0.1076,-0.1076,-0.1076,-0.1076,-0.1076,-0.1076,-0.1076,-0.1076,-0.1076,-0.1076,-0.1076,-0.1076,0.0,0.0,0.0,0.0,0.0,0.0,0.0,0.0,0.0,0.0,0.0,0.0,0.0,0.0,0.0,0.0,0.0,0.0,0.0,0.0,0.0,0.0,0.0,0.0,0.0,0.0,0.0,0.0,0.0,0.0,0.0,0.0,0.0,0.0,0.0,0.0,0.0,0.0,0.0,0.0,0.0,0.0,1.2823,0.0,0.0,0.0,0.0,0.0,0.0,0.0,0.0,0.0,0.0,0.0,1.3406,0.0,0.0,1.6097,1.6821,1.7384,1.7799,1.7985,1.7407,1.6655,1.6157,1.5452,1.425,1.189,1.0465,0.894,0.6732,0.0,0.0,0.5477,0.5622,0.0,0.5991,0.5785,0.0,0.6041,0.0,0.5688,0.5688,0.6096,0.0,0.0,0.4168,0.3939,0.3748,0.4246,0.4323,0.3758,0.4489,0.442,0.3222,0.2484,0.1946,0.1543,0.1008,0.0739,0.0739,-0.0134,-0.047,-0.0538,-0.0941,-0.1076,-0.1076,-0.1076,-0.1076,-0.1076,-0.1076,-0.1076,-0.1076,-0.1076,-0.1076,-0.1076,0.0,0.0,0.0,0.0,0.0,0.0,0.0,0.0,0.0,0.0,0.0,0.0,0.0,0.0,0.0,0.0,0.0,0.0,0.0,0.0,0.0,0.0,0.0,0.0,0.0,0.0,0.0,0.0,0.0,0.0,0.0,0.0,0.0,0.0,0.0,0.0,0.0,0.0,0.0,0.0,0.0,0.0,0.0,0.0,0.0,0.0,0.0,0.0,0.0,0.0,0.0,1.287,1.39,1.4543,1.5063,1.5608,0.0,1.678,1.7268,1.7676,1.7908,1.7666,1.6841,1.5905,1.5205,1.4313,1.3026,1.0825,0.9531,0.0,0.6224,0.0,0.0,0.0,0.0,0.0,0.646,0.6384,0.6397,0.0,0.6543,0.0,0.6537,0.6838,0.6814,0.0,0.5662,0.5286,0.5121,0.5473,0.5491,0.5219,0.569,0.5422,0.4486,0.3549,0.3015,0.2813,0.2013,0.1612,0.1411,0.0672,0.0202,0.0,-0.0538,-0.0739,-0.0739,-0.1008,-0.1076,-0.1076,-0.1076,-0.0941,-0.0739,-0.0739,-0.0605,-0.0403,0.0,0.0,0.0,0.0,0.0,0.0,0.0,0.0,0.0,0.0,0.0,0.0,0.0,0.0,0.0,0.0,0.0,0.0,0.0,0.0,0.0,0.0,0.0,0.0,0.0,0.0,0.0,0.0,0.0,0.0,0.0,0.0,0.0,0.0,0.0,0.0,0.0,0.0,0.0,0.0,0.0,0.0,0.0,0.0,0.0,0.0,0.0,0.0,0.0,0.0,1.3508,1.4313,1.5226,1.6117,1.6839,1.684,1.6979,1.7192,1.7585,1.7584,1.7393,1.6892,1.5935,1.4739,1.3304,1.2184,1.0953,0.9089,0.0,0.7044,0.602,0.5412,0.5227,0.5711,0.0,0.6342,0.6742,0.6941,0.6981,0.6897,0.714,0.7336,0.7361,0.7428,0.7443,0.7302,0.6958,0.6606,0.6291,0.6128,0.6214,0.6531,0.6148,0.5752,0.5408,0.4547,0.4148,0.4082,0.3017,0.2348,0.2079,0.1411,0.0941,0.0605,0.0067,-0.0202,-0.0202,-0.0672,-0.0874,-0.0874,-0.0874,-0.0605,-0.0202,-0.0202,0.0067,0.047,0.0,0.0,0.0,0.0,0.0,0.0,0.0,0.0,0.0,0.0,0.0,0.0,0.0,0.0,0.0,0.0,0.0,0.0,0.0,0.0,0.0,0.0,0.0,0.0,0.0,0.0,0.0,0.0,0.0,0.0,0.0,0.0,0.0,0.0,0.0,0.0,0.0,0.0,0.0,0.0,0.0,0.0,0.0,0.0,0.0,0.0,0.0,0.0,0.0,0.0,1.4341,1.6702,1.7789,1.7893,1.7683,1.8072,1.7905,1.7599,1.7693,1.7556,1.7391,1.7308,1.5964,1.4502,1.3679,1.1783,0.0,0.0,0.0,0.5799,0.5064,0.4664,0.0,0.5941,0.0,0.0,0.0,0.0,0.7494,0.0,0.0,0.0,0.0,0.0,0.0,0.0,0.8264,0.804,0.6872,0.6915,0.7068,0.7326,0.6412,0.5951,0.5943,0.5282,0.4755,0.4489,0.3491,0.3023,0.2956,0.1814,0.121,0.1143,0.0605,0.0336,0.0336,0.0269,0.0202,0.0202,0.0202,0.0269,0.0336,0.0336,0.0403,0.047,0.0,0.0,0.0,0.0,0.0,0.0,0.0,-0.671,-0.7459,-0.8817,-0.9356,0.0,0.0,0.0,0.0,0.0,0.0,0.0,0.0,0.0,0.0,0.0,0.0,0.0,0.0,0.0,0.0,0.0,0.0,0.0,0.0,0.0,0.0,0.0,0.0,0.0,0.0,0.0,0.0,0.0,0.0,0.0,0.0,0.0,0.0,0.0,0.0,0.0,0.0,0.0,1.3243,1.5823,1.7218,1.776,1.787,1.7657,1.765,1.7679,1.7569,1.7487,1.7363,1.7308,1.5684,1.3792,1.276,0.0,0.0,0.0,0.0,0.4985,0.4302,0.0,0.0,0.0,0.0,0.0,0.0,0.0,0.0,0.0,0.0,0.0,0.0,0.0,0.9285,0.8829,0.9087,0.8888,0.8037,0.7917,0.7857,0.7787,0.7068,0.6741,0.6798,0.621,0.5818,0.5554,0.4821,0.409,0.3491,0.2887,0.2284,0.1748,0.1143,0.0941,0.0874,0.0605,0.047,0.047,0.047,0.0672,0.0941,0.0941,0.1143,0.1412,0.0,0.0,0.0,0.0,0.0,0.0,0.0,-0.722,-0.8015,-0.9129,-0.9822,-1.0206,-1.0194,-1.0183,-1.0167,0.0,0.0,0.0,0.0,0.0,0.0,0.0,0.0,0.0,0.0,0.0,0.0,0.0,0.0,0.0,0.0,0.0,0.0,0.0,0.0,0.0,0.0,0.0,0.0,0.0,0.0,0.0,0.0,0.0,0.0,0.0,0.0,0.0,0.0,0.0,1.143,1.3352,1.5088,1.6463,1.7356,1.6791,1.7008,1.7437,1.7406,1.7363,1.7308,1.7157,1.5417,1.3323,1.1777,0.9375,0.0,0.0,0.0,0.4364,0.3886,0.0,0.0,0.0,0.0,0.0,0.0,0.0,0.0,0.0,0.0,0.0,0.0,0.0,0.0,0.9484,0.9414,0.9221,0.8894,0.8641,0.8317,0.7922,0.7657,0.7521,0.7521,0.6999,0.6609,0.6482,0.5818,0.5017,0.409,0.3956,0.3489,0.2688,0.2014,0.1679,0.1679,0.1075,0.0874,0.0874,0.0874,0.1143,0.148,0.148,0.1817,0.2221,0.0,0.0,0.0,0.0,0.0,0.0,0.0,-0.764,-0.8298,-0.9964,-1.0196,-1.0196,-1.0193,-1.0147,-1.0117,0.0,0.0,0.0,0.0,0.0,0.0,0.0,0.0,0.0,0.0,0.0,0.0,0.0,0.0,0.0,0.0,0.0,0.0,0.0,0.0,0.0,0.0,0.0,0.0,0.0,0.0,0.0,0.0,0.0,0.0,0.0,0.0,0.0,0.0,0.0,0.0,0.9751,1.1791,1.3952,1.5743,1.5946,0.0,0.0,1.7246,1.7308,1.7157,1.696,1.5542,1.3647,1.1658,0.0,0.0,0.0,0.4306,0.3915,0.4037,0.409,0.0,0.0,0.0,0.0,0.0,0.0,0.0,0.0,0.0,0.0,0.0,0.0,0.9484,0.9484,0.9215,0.8894,0.8576,0.8511,0.8187,0.7591,0.7526,0.7521,0.7521,0.6999,0.6675,0.6675,0.5617,0.515,0.5143,0.455,0.4284,0.4212,0.3416,0.3015,0.295,0.2285,0.2018,0.2018,0.2018,0.2087,0.2087,0.2087,0.2154,0.2221,0.0,0.0,0.0,0.0,0.0,0.0,0.0,-0.7701,-0.8317,-1.0012,-1.0226,-1.0207,-1.0207,-1.0188,-1.016,0.0,0.0,0.0,0.0,0.0,0.0,0.0,0.0,0.0,0.0,0.0,0.0,0.0,0.0,0.0,0.0,0.0,0.0,0.0,0.0,0.0,0.0,0.0,0.0,0.0,0.0,0.0,0.0,0.0,0.0,0.0,0.0,0.0,0.0,0.0,0.0,0.0,0.8907,1.0451,0.0,0.0,1.529,1.6111,1.6638,1.6991,1.7157,1.696,1.503,1.2843,1.1486,0.0,0.6172,0.5045,0.4256,0.3822,0.385,0.3942,0.424,0.0,0.0,0.0,0.0,0.0,0.0,0.0,0.0,0.0,0.0,0.0,0.9484,0.9484,0.9215,0.8829,0.8511,0.8317,0.8052,0.7787,0.7591,0.7521,0.7521,0.726,0.7134,0.7003,0.6539,0.6079,0.5477,0.5216,0.4815,0.435,0.382,0.3687,0.3818,0.2887,0.2621,0.2753,0.2354,0.2221,0.2221,0.2221,0.2221,0.2221,0.0,0.0,0.0,0.0,0.0,-0.5598,-0.7088,-0.7538,-0.8216,-0.9657,-0.9844,-0.9937,-1.0191,-0.9774,-0.9561,-0.9815,0.0,0.0,0.0,0.0,0.0,0.0,0.0,0.0,0.0,0.0,0.0,0.0,0.0,0.0,0.0,0.0,0.0,0.0,0.0,0.0,0.0,0.0,0.0,0.0,0.0,0.0,0.0,0.0,0.0,0.0,0.0,0.0,0.0,0.0,0.0,0.0,0.0,0.0,0.0,0.0,1.3715,1.4961,1.5789,1.6452,1.6922,1.6703,1.4641,1.2399,0.0,0.0,0.5788,0.4951,0.4263,0.378,0.3689,0.386,0.4157,0.0,0.4792,0.5248,0.6253,0.0,0.0,0.0,0.0,0.0,0.0,0.9436,0.9484,0.935,0.9022,0.8765,0.8511,0.8117,0.7852,0.7852,0.7591,0.7521,0.7521,0.7521,0.7456,0.7265,0.7199,0.6802,0.6141,0.6013,0.5679,0.5147,0.4553,0.4486,0.4619,0.362,0.3151,0.3151,0.2887,0.2555,0.2221,0.2421,0.2354,0.2221,0.0,0.0,0.0,0.0,0.0,0.0,0.0,-0.7146,-0.8008,-0.8906,-0.9014,-0.9349,-1.0191,-0.8754,-0.8082,-0.8929,0.0,0.0,0.0,0.0,0.0,0.0,0.0,0.0,0.0,0.0,0.0,0.0,0.0,0.0,0.0,0.0,0.0,0.0,0.0,0.0,0.0,0.0,0.0,0.0,0.0,0.0,0.0,0.0,0.0,0.0,0.0,0.0,0.0,0.0,0.0,0.0,0.0,0.0,0.0,0.0,1.1446,1.3243,1.4626,1.5698,1.6349,1.6057,1.4608,1.2703,0.0,0.8337,0.6153,0.4933,0.4223,0.3759,0.3633,0.3815,0.409,0.4355,0.4896,0.5551,0.6279,0.0,0.0,0.0,0.0,0.0,0.9083,0.9322,0.935,0.9017,0.8705,0.8517,0.8517,0.7857,0.7521,0.7521,0.7521,0.7521,0.7521,0.7521,0.7521,0.7521,0.7265,0.7265,0.7456,0.7073,0.7012,0.7138,0.6013,0.5613,0.5547,0.4619,0.3885,0.3282,0.4018,0.3422,0.2287,0.2952,0.2753,0.2221,0.0,0.0,0.0,0.0,0.0,0.0,0.0,-0.6638,-0.7129,-0.7988,-0.8105,-0.822,-0.8493,-0.804,-0.7813,-0.8094,0.0,0.0,0.0,0.0,0.0,0.0,0.0,0.0,0.0,0.0,0.0,0.0,0.0,0.0,0.0,0.0,0.0,0.0,0.0,0.0,0.0,0.0,0.0,0.0,0.0,0.0,0.0,0.0,0.0,0.0,0.0,0.0,0.0,0.0,0.0,0.0,0.0,0.0,0.0,0.6377,0.8419,0.0,1.1552,1.2269,1.2663,1.2152,1.1044,0.9733,0.8535,0.6928,0.5452,0.4595,0.4088,0.378,0.3682,0.3694,0.4012,0.4886,0.0,0.0,0.0,0.0,0.0,0.0,0.0,0.0,0.0,0.0,0.9215,0.935,0.8635,0.8376,0.8829,0.784,0.7447,0.7852,0.7591,0.7521,0.7521,0.7521,0.7521,0.7521,0.7456,0.7396,0.7265,0.7138,0.7077,0.6942,0.6276,0.6079,0.6276,0.5147,0.4683,0.468,0.4417,0.3754,0.2885,0.3151,0.2751,0.2221,0.0,0.0,0.0,0.0,0.0,0.0,0.0,-0.6188,-0.6602,-0.7129,-0.7207,-0.7343,-0.7672,-0.7121,-0.6856,-0.7185,0.0,0.0,0.0,0.0,0.0,0.0,0.0,0.0,0.0,0.0,0.0,0.0,0.0,0.0,0.0,0.0,0.0,0.0,0.0,0.0,0.0,0.0,0.0,0.0,0.0,0.0,0.6333,0.0,0.0,0.0,0.0,0.0,0.0,0.0,0.0,0.0,0.0,0.0,0.0,0.0,0.5995,0.7738,0.0,1.0077,1.051,1.0109,0.912,0.8057,0.7281,0.5987,0.4814,0.4388,0.4061,0.3793,0.3682,0.3716,0.4008,0.483,0.0,0.0,0.0,0.0,0.0,0.0,0.0,0.0,0.0,0.9168,0.918,0.915,0.8499,0.8202,0.8555,0.7608,0.7283,0.7729,0.7419,0.7267,0.7407,0.7412,0.7445,0.7521,0.7521,0.7456,0.733,0.733,0.7204,0.7012,0.6609,0.6544,0.0,0.5745,0.5411,0.5411,0.515,0.4483,0.3618,0.3949,0.3618,0.3023,0.0,0.0,0.0,0.0,0.0,0.0,0.0,0.0,0.0,-0.6309,-0.6309,-0.6619,-0.7433,-0.6071,-0.5425,-0.6247,0.0,0.0,0.0,0.0,0.0,0.0,0.0,0.0,0.0,0.0,0.0,0.0,0.0468,0.2723,0.4892,0.0,0.0,0.0,0.0,0.0,0.0,0.0,0.0,0.0,0.55,0.543,0.0,0.0,0.0,0.0,0.0,0.0,0.0,0.0,0.0,0.0,0.0,0.0,0.0,0.0,0.0,0.0,0.0,0.8661,0.9397,0.9288,0.835,0.7298,0.6732,0.5407,0.0,0.427,0.4068,0.3842,0.3688,0.3857,0.4111,0.4454,0.0,0.0,0.0,0.0,0.0,0.0,0.0,0.0,0.8705,0.916,0.9214,0.864,0.8309,0.8088,0.7871,0.719,0.7007,0.7359,0.6992,0.6913,0.7197,0.7197,0.7302,0.7502,0.7502,0.7507,0.7521,0.7521,0.7396,0.7204,0.7012,0.6811,0.6675,0.6482,0.6017,0.5547,0.6148,0.555,0.4486,0.5147,0.4948,0.4287,0.0,0.0,0.0,0.0,0.0,0.0,0.0,0.0,0.0,0.0,-0.541,-0.5485,-0.5686,-0.535,-0.5187,0.0,0.0,0.0,0.0,0.0,0.0,0.0,0.0,0.0,0.0,0.0,0.0,-0.3387,-0.0038,0.1874,0.2508,0.6111,0.0,0.0,0.0,0.0,0.0,0.0,0.0,0.0,0.6753,0.6678,0.0,0.0,0.0,0.0,0.5592,0.5624,0.0,0.0,0.0,0.0,0.0,0.0,0.0,0.0,0.3722,0.3995,0.438,0.0,0.5511,0.5189,0.51,0.5014,0.0,0.4426,0.4251,0.0,0.0,0.3923,0.4305,0.4157,0.4354,0.0,0.0,0.0,0.0,0.0,0.0,0.0,0.8661,0.8753,0.8956,0.891,0.8757,0.8676,0.8115,0.7909,0.8145,0.7391,0.7014,0.7192,0.6629,0.6496,0.6862,0.6862,0.7026,0.7293,0.7293,0.7374,0.7521,0.7521,0.7456,0.7396,0.7073,0.6881,0.6815,0.6548,0.6284,0.6148,0.635,0.5881,0.5147,0.5345,0.4948,0.4287,0.0,0.0,0.0,0.0,0.0,0.0,0.0,0.0,0.0,0.0,0.0,0.0,0.0,0.0,0.0,0.0,0.0,0.0,0.0,0.0,0.0,0.0,0.0,0.0,0.0,0.0,0.0,0.0,0.0,0.0357,0.0,0.0,0.0,0.0,0.0,0.0,0.0,0.0,0.0,0.0,0.6348,0.0,0.0,0.0,0.0,0.0,0.5444,0.5436,0.0,0.4623,0.4356,0.4304,0.0,0.0,0.0,0.0,0.3387,0.3569,0.3147,0.3729,0.4385,0.4174,0.4252,0.4371,0.4324,0.0,0.0,0.0,0.0,0.0,0.4142,0.0,0.0,0.0,0.0,0.0,0.0,0.0,0.0,0.0,0.8423,0.8555,0.0,0.858,0.8425,0.834,0.786,0.758,0.7581,0.7119,0.6784,0.6677,0.6344,0.6328,0.6641,0.6646,0.6809,0.7017,0.7111,0.7278,0.7383,0.7383,0.7255,0.7127,0.687,0.6681,0.6557,0.6449,0.642,0.642,0.642,0.6148,0.5881,0.5881,0.5617,0.5219,0.0,0.0,0.0,0.0,0.0,0.0,0.0,0.0,0.0,0.0,0.0,0.0,0.0,0.0,0.0,0.0,0.0,0.0,0.0,0.0,0.0,0.0,0.0,0.0,0.0,0.0,0.0,0.0,0.0,0.0,0.0,0.0,0.0,0.0,0.0,0.0,0.0,0.0,0.0,0.0,0.4506,0.0,0.0,0.0,0.0,0.0,0.0,0.0,0.0,0.4231,0.3877,0.3762,0.3235,0.0,0.0,0.0,0.0,0.0,0.2807,0.3552,0.4462,0.446,0.4494,0.4575,0.4684,0.0,0.0,0.0,0.0,0.0,0.0,0.0,0.0,0.0,0.0,0.0,0.0,0.0,0.0,0.0,0.8153,0.0,0.8229,0.8253,0.8155,0.7852,0.7605,0.7234,0.6766,0.6701,0.6544,0.6232,0.6178,0.6257,0.6426,0.6431,0.6534,0.6744,0.6979,0.7078,0.7111,0.7111,0.6987,0.667,0.6608,0.6433,0.6223,0.6314,0.6392,0.642,0.642,0.642,0.642,0.642,0.642,0.6284,0.0,0.0,0.0,0.0,0.0,0.0,0.0,0.0,0.0,0.0,0.0,0.0,0.0,0.0,0.0,0.0,0.0,0.0,0.0,0.0,0.0,0.0,0.0,0.0,0.0,0.0,0.0,0.0,0.0,0.0,-0.1056,0.0755,0.2604,0.0,0.0,0.0,0.0,0.0,0.0,0.2936,0.0598,0.0,0.0,0.0,0.0,0.0,0.0,0.0,0.0,0.3933,0.3675,0.3889,0.24,0.0,0.0,0.0,0.0,0.0,0.2578,0.3225,0.3923,0.3841,0.4251,0.4605,0.0,0.0,0.0,0.0,0.0,0.0,0.0,0.0,0.0,0.0,0.0,0.0,0.0,0.0,0.7258,0.7806,0.0,0.8229,0.8004,0.7983,0.784,0.7595,0.7301,0.7122,0.7031,0.681,0.6544,0.6232,0.6178,0.6192,0.622,0.622,0.6323,0.6524,0.661,0.666,0.6708,0.6833,0.6717,0.6415,0.6415,0.6384,0.6346,0.624,0.6278,0.642,0.642,0.642,0.642,0.642,0.642,0.6218,0.0,0.0,0.0,0.0,0.0,0.0,0.0,0.0,0.0,0.0,0.0,0.0,0.0,0.0,0.0,0.0,0.0,0.0,0.0,0.0,0.0,0.0,0.0,0.0,0.0,0.0,0.0,0.0,0.0,-0.1868,-0.198,-0.0535,0.0483,0.1151,0.0,0.0,0.0,0.0,0.0,0.0677,0.0,0.0,0.0,0.0,0.0,0.0,0.0,0.0,0.0,0.0,0.2199,0.3407,0.1901,0.0,0.0,0.0,0.0,0.0,0.2215,0.2829,0.3457,0.3124,0.3593,0.4068,0.0,0.0,0.0,0.0,0.0,0.0,0.0,0.0,0.0,0.0,0.0,0.5023,0.5202,0.6032,0.6836,0.0,0.0,0.7802,0.7692,0.7576,0.7367,0.709,0.6977,0.6815,0.6603,0.6652,0.6544,0.6232,0.6178,0.6178,0.6178,0.6178,0.6225,0.6314,0.6421,0.6524,0.6555,0.6506,0.6452,0.6213,0.6099,0.6087,0.6142,0.617,0.6254,0.642,0.642,0.642,0.642,0.642,0.5885,0.5153,0.0,0.0,0.0,0.0,0.0,0.0,0.0,0.0,0.0,0.0,0.0,0.0,0.0,0.0,0.0,0.0,0.0,0.0,0.0,0.0,0.0,0.0,0.0,0.0,0.0,0.0,0.0,-0.3909,-0.3091,-0.2732,-0.2785,-0.2244,-0.1836,0.0,0.0,0.0,0.0,0.0,0.0,-0.2089,0.0,0.0,0.0,0.0,0.0,0.0,0.0,0.0,0.0,0.0,0.0,0.0,0.0,0.0,0.0,0.1265,0.1598,0.1879,0.1799,0.2381,0.2864,0.2394,0.0,0.3544,0.0,0.0,0.0,0.0,0.0,0.0,0.0,0.0,0.0,0.0,0.4162,0.4512,0.4181,0.5214,0.614,0.647,0.6966,0.7246,0.7139,0.7085,0.6918,0.6701,0.6652,0.6495,0.6337,0.6495,0.644,0.6232,0.6178,0.6178,0.6178,0.6178,0.6178,0.6178,0.6332,0.6403,0.6403,0.6294,0.6124,0.5949,0.584,0.5773,0.5831,0.5965,0.6128,0.6298,0.6339,0.6379,0.642,0.642,0.5484,0.4287,0.0,0.0,0.0,0.0,0.0,0.0,0.0,0.0,0.0,0.0,0.0,0.0,0.0,0.0,0.0,0.0,0.0,0.0,0.0,0.0,0.0,0.0,0.0,0.0,0.0,-0.5529,-0.4782,-0.2457,-0.2377,-0.249,-0.2823,-0.4047,-0.3374,0.0,0.0,0.0,0.0,0.0,0.0,-0.5539,-0.7616,0.0,0.0,0.0,0.0,0.0,0.0,0.0,0.0,0.0,0.0,0.0,0.0,0.0,0.0511,0.0779,0.1048,0.1295,0.1413,0.1747,0.2015,0.1658,0.0,0.0,0.0,0.0,0.0,0.0,0.0,0.0,0.0,0.0,0.0,0.0,0.3732,0.3852,0.3852,0.0,0.4948,0.5386,0.6036,0.6367,0.6109,0.6485,0.6701,0.6701,0.6386,0.6337,0.6652,0.6386,0.6232,0.6178,0.6178,0.6178,0.6178,0.6178,0.6178,0.6178,0.6192,0.6142,0.6023,0.6023,0.5859,0.5644,0.5639,0.5634,0.5632,0.5644,0.5758,0.5941,0.6166,0.627,0.642,0.642,0.5484,0.4287,0.0,0.0,0.0,0.0,0.0,0.0,0.0,0.0,0.0,0.0,0.0,0.0,0.0,0.0,0.0,0.0,0.0,0.0,0.0,0.0,0.0,0.0,0.0,-0.8392,-0.6683,-0.7022,-0.6763,-0.5847,-0.4965,-0.4392,-0.4129,-0.5553,0.0,0.0,0.0,0.0,0.0,0.0,0.0,0.0,-0.8957,-0.8448,0.0,0.0,0.0,0.0,0.0,0.0,0.0,0.0,-0.1195,0.1074,0.0,-0.0089,-0.0022,0.0426,0.0627,0.075,0.0915,0.1073,0.119,0.1141,0.0,0.0,0.0,0.0,0.0,0.0,0.0,0.0,0.0,0.0,0.0,0.0,0.3294,0.3299,0.3132,0.3685,0.4343,0.4838,0.5382,0.5769,0.6,0.6164,0.6273,0.6386,0.6282,0.6228,0.6391,0.6282,0.6178,0.6178,0.6178,0.6178,0.6178,0.6178,0.6178,0.6178,0.6178,0.6119,0.6,0.5896,0.5791,0.5567,0.5458,0.5505,0.5612,0.5612,0.5722,0.5896,0.5957,0.6091,0.625,0.5732,0.5075,0.422,0.0,0.0,0.0,0.0,0.0,0.0,0.0,0.0,0.0,0.0,0.0,0.0,0.0,0.0,0.0,0.0,0.0,0.0,0.0,0.0,0.0,0.0,0.0,-0.8236,-0.8154,-0.8201,-0.7936,-0.7344,-0.5942,-0.5254,-0.5239,0.0,0.0,0.0,0.0,0.0,0.0,0.0,0.0,0.0,-0.9314,-0.8967,0.0,0.0,0.0,0.0,0.0,0.0,0.0,0.0,-0.2722,0.0,0.0,0.0,-0.0471,0.0,0.0206,0.0303,0.0394,0.0561,0.0693,0.0,0.0,0.0,0.0,0.0,0.0,0.0,0.0,0.0,0.0,0.0,0.0,0.0,0.3074,0.3132,0.2747,0.3299,0.391,0.4291,0.4732,0.5117,0.5614,0.5782,0.595,0.6178,0.6178,0.6178,0.6178,0.6178,0.6178,0.6178,0.6178,0.6178,0.6178,0.6178,0.6178,0.6178,0.6173,0.6114,0.6,0.5845,0.5681,0.5567,0.5407,0.5365,0.5531,0.5531,0.5636,0.5803,0.5803,0.5941,0.6144,0.5639,0.4964,0.422,0.0,0.0,0.0,0.0,0.0,0.0,0.0,0.0,0.0,0.0,0.0,0.0,0.0,0.0,0.0,0.0,0.0,0.0,0.0,0.0,0.0,0.0,0.0,-0.7811,-0.8683,-0.8699,-0.7797,-0.5942,-0.4615,-0.4632,-0.5928,0.0,0.0,0.0,0.0,0.0,0.0,0.0,0.0,0.0,0.0,-0.8655,-0.8576,0.0,0.0,0.0,0.0,0.0,0.0,0.0,-0.2679,-0.0122,0.0,0.0,0.0,-0.0494,-0.0214,-0.0025,-0.0176,0.0239,0.0,0.0,0.0,0.0,0.0,0.0,0.0,0.0,0.0,0.0,0.0,0.0,0.0,0.2961,0.3299,0.336,0.2802,0.3193,0.3585,0.3585,0.3962,0.4401,0.4842,0.5344,0.5786,0.6178,0.6178,0.6178,0.6178,0.6178,0.6178,0.6178,0.6178,0.6178,0.6178,0.6178,0.6178,0.6178,0.6059,0.6,0.6,0.5732,0.5622,0.5567,0.5407,0.5297,0.5297,0.5297,0.5398,0.5608,0.5608,0.5827,0.6203,0.6203,0.541,0.4284,0.0,0.0,0.0,0.0,0.0,0.0,0.0,0.0,0.0,0.0,0.0,0.0,0.0,0.0,0.0,0.0,0.0,0.0,0.0,0.0,0.0,0.0,0.0,0.0,0.0,0.0,-0.9351,-0.8788,-0.838,-0.7913,0.0,0.0,0.0,-0.7667,0.0,0.0,0.0,0.0,0.0,0.0,0.0,-0.8919,-0.8565,0.0,0.0,0.0,0.0,0.0,0.0,0.0,0.0,0.0,0.0,0.0,0.0,-0.0796,-0.0615,-0.0653,-0.0678,-0.0626,0.0,0.0,0.0,0.0,0.0,0.0,0.0,0.0,0.0,0.0,0.0,0.0,0.0,0.2575,0.2631,0.2633,0.2691,0.2858,0.3137,0.353,0.3691,0.3965,0.4346,0.4842,0.5285,0.5732,0.6064,0.6178,0.6178,0.6178,0.6178,0.6178,0.6178,0.6178,0.6178,0.6178,0.6173,0.6059,0.59,0.5845,0.5845,0.5677,0.5513,0.5407,0.5352,0.5297,0.5297,0.5297,0.5329,0.5374,0.5374,0.5571,0.5711,0.5173,0.4607,0.3987,0.0,0.0,0.0,0.0,0.0,0.0,0.0,0.0,0.0,0.0,0.0,0.0,0.0,0.0,0.0,0.0,0.0,0.0,0.0,0.0,0.0,0.0,0.0,0.0,0.0,-0.866,-0.914,0.0,0.0,0.0,0.0,0.0,0.0,-0.8733,0.0,0.0,0.0,0.0,0.0,0.0,0.0,-0.9036,-0.8603,0.0,0.0,0.0,0.0,0.0,0.0,0.0,0.0,0.0,0.0,0.0,0.0,-0.1358,-0.1184,-0.1221,-0.1291,0.0,0.0,0.0,0.0,0.0,0.0,0.0,0.0,0.0,0.0,0.0,0.179,0.1621,0.0,0.224,0.224,0.2184,0.2465,0.2689,0.2968,0.3357,0.3527,0.3747,0.4177,0.4622,0.512,0.5567,0.5955,0.6178,0.6178,0.6178,0.6178,0.6178,0.6178,0.6178,0.6178,0.6178,0.6119,0.6,0.5845,0.5795,0.5736,0.5572,0.5407,0.5297,0.5297,0.5297,0.5297,0.5297,0.5297,0.5297,0.5297,0.5402,0.5554,0.5089,0.4657,0.4186,0.0,0.0,-0.414,-0.414,0.0,0.0,0.0,0.0,0.0,0.0,0.0,0.0,0.0,0.0,0.0,-0.4684,0.0,0.0,0.0,0.0,0.0,0.0,0.0,0.0,0.0,0.0,0.0,0.0,0.0,0.0,0.0,0.0,-0.8798,-0.9909,0.0,-0.9854,0.0,0.0,0.0,0.0,-0.934,-0.905,-0.8658,-0.8253,0.0,0.0,0.0,0.0,0.0,0.0,0.0,0.0,-0.2911,-0.2538,-0.2458,-0.2056,-0.1859,-0.1775,0.0,0.0,0.0,0.0,0.0,0.0,0.0,0.0,0.0,0.0,0.0,0.0336,0.1736,0.1342,0.1062,0.1903,0.1959,0.1903,0.2127,0.2629,0.3019,0.3074,0.3413,0.3747,0.4125,0.4567,0.5011,0.5454,0.5841,0.6119,0.6123,0.6178,0.6178,0.6178,0.6178,0.6178,0.6178,0.6178,0.6119,0.6005,0.5845,0.5681,0.5567,0.5407,0.5297,0.5297,0.5297,0.5297,0.5297,0.5297,0.5297,0.5297,0.5297,0.5394,0.5588,0.5588,0.5217,0.48,0.0,0.0,-0.3727,-0.3727,0.0,0.0,0.0,0.0,0.0,-0.4253,-0.4206,-0.4196,-0.4381,-0.4461,0.0,-0.4475,-0.4401,0.0,0.0,0.0,0.0,0.0,0.0,0.0,0.0,0.0,0.0,0.0,0.0,0.0,0.0,0.0,0.0,-0.9907,0.0,-0.9868,0.0,0.0,0.0,0.0,-0.9181,-0.8912,-0.8658,-0.8253,-0.7753,0.0,0.0,0.0,0.0,0.0,0.0,0.0,-0.3235,-0.2883,-0.2792,-0.2349,-0.2189,-0.2206,0.0,0.0,0.0,0.0,0.0,0.0,0.0,0.0,0.0,0.0,0.0,-0.0505,0.0168,0.0168,0.0224,0.0728,0.0784,0.0952,0.1623,0.2014,0.2462,0.3019,0.3413,0.3638,0.3747,0.391,0.4181,0.4453,0.5003,0.5445,0.5732,0.6009,0.6178,0.6178,0.6178,0.6178,0.6178,0.6119,0.5955,0.5845,0.5732,0.5572,0.5352,0.5297,0.5297,0.5297,0.5297,0.5297,0.5297,0.5297,0.5297,0.5297,0.5297,0.5321,0.5353,0.5353,0.5039,0.4575,0.0,0.0,0.0,0.0,0.0,0.0,0.0,0.0,0.0,-0.386,-0.3902,-0.3973,-0.4134,-0.4296,0.0,0.0,-0.428,-0.4263,0.0,0.0,0.0,0.0,0.0,0.0,0.0,0.0,0.0,0.0,0.0,0.0,0.0,0.0,0.0,-0.9907,0.0,-0.9862,0.0,0.0,0.0,-0.9385,-0.9109,-0.883,-0.8485,-0.7825,-0.7414,-0.7152,-0.6816,0.0,0.0,0.0,0.0,0.0,0.0,0.0,-0.2844,-0.2535,-0.2343,-0.2242,0.0,0.0,0.0,0.0,0.0,0.0,0.0,0.0,0.0,0.0,-0.1344,-0.1064,-0.0112,-0.028,-0.0336,0.028,0.0224,0.0336,0.0952,0.1286,0.1621,0.2068,0.2348,0.2629,0.2912,0.3125,0.3456,0.3959,0.4508,0.5062,0.5563,0.5786,0.6009,0.6178,0.6178,0.6173,0.6119,0.6059,0.5896,0.5681,0.5622,0.5517,0.5297,0.5297,0.5297,0.5297,0.5297,0.5297,0.5297,0.5297,0.5297,0.5297,0.5297,0.5297,0.5297,0.5297,0.5132,0.4864,0.0,0.0,0.0,0.0,0.0,0.0,0.0,0.0,0.0,-0.3419,-0.3623,-0.3781,-0.3847,-0.4121,-0.4248,0.0,0.0,0.0,-0.4125,0.0,0.0,0.0,0.0,0.0,0.0,0.0,0.0,0.0,0.0,0.0,0.0,0.0,0.0,-0.9908,0.0,0.0,0.0,0.0,0.0,-0.9035,-0.8699,-0.836,-0.7968,-0.71,-0.693,-0.702,-0.6005,-0.5811,-0.592,-0.5049,0.0,0.0,0.0,0.0,-0.276,-0.259,-0.2327,-0.2151,0.0,0.0,0.0,0.0,0.0,0.0,0.0,0.0,0.0,0.0,-0.1846,-0.1399,-0.0056,-0.0393,-0.0673,0.0056,-0.0112,-0.0168,0.0224,0.0559,0.0894,0.1174,0.1341,0.1621,0.224,0.2512,0.2896,0.3574,0.4018,0.457,0.5234,0.5508,0.5732,0.6064,0.6123,0.6119,0.6,0.5946,0.5841,0.5622,0.5567,0.5462,0.5297,0.5297,0.5297,0.5297,0.5297,0.5297,0.5352,0.5352,0.5352,0.5352,0.5352,0.5352,0.5297,0.5297,0.5297,0.5297,0.0,0.0,0.0,0.0,0.0,0.0,0.0,0.0,0.0,0.0,0.0,-0.3559,-0.3628,-0.3833,-0.3964,-0.3935,-0.3788,-0.3722,0.0,0.0,0.0,0.0,0.0,0.0,0.0,0.0,0.0,0.0,0.0,0.0,0.0,0.0,0.0,0.0,0.0,0.0,0.0,0.0,0.0,-0.8084,-0.7132,-0.6758,-0.6687,-0.6102,-0.6315,-0.6769,-0.5483,-0.5553,-0.6059,-0.4673,-0.422,0.0,0.0,0.0,-0.2734,-0.2426,-0.2235,0.0,0.0,0.0,0.0,0.0,0.0,0.0,0.0,0.0,0.0,0.0,-0.1959,-0.1567,-0.0841,-0.0842,-0.0842,-0.0729,-0.0785,-0.0673,-0.0168,0.0112,0.0614,0.1454,0.1734,0.2071,0.2577,0.2408,0.2406,0.28,0.3239,0.3624,0.4018,0.5011,0.5622,0.5677,0.5896,0.6005,0.6,0.5786,0.5622,0.5622,0.5407,0.5352,0.5297,0.5297,0.5297,0.5297,0.5297,0.5407,0.5567,0.5567,0.5567,0.5567,0.5567,0.5462,0.5297,0.5297,0.5297,0.5297,0.0,0.0,0.0,0.0,0.0,0.0,0.0,0.0,0.0,0.0,0.0,-0.3306,-0.3525,-0.3626,-0.3727,-0.3884,-0.3825,0.0,0.0,0.0,0.0,0.0,0.0,0.0,0.0,0.0,0.0,0.0,0.0,0.0,0.0,-0.99,-1.0449,0.0,0.0,0.0,0.0,0.0,0.0,-0.8055,-0.6833,-0.6292,0.0,0.0,-0.5336,-0.5611,0.0,0.0,0.0,-0.3895,-0.3536,-0.3363,-0.2794,0.0,0.0,0.0,0.0,0.0,0.0,0.0,0.0,0.0,0.0,0.0,0.0,0.0,0.0,-0.2296,-0.2015,-0.168,-0.1234,-0.1122,-0.1122,-0.1122,-0.1122,-0.1066,-0.0842,-0.056,-0.0224,0.028,0.056,0.1008,0.1513,0.1736,0.2071,0.2635,0.3019,0.3458,0.4015,0.4512,0.5066,0.5567,0.5614,0.5673,0.59,0.5677,0.5567,0.5407,0.5462,0.5407,0.5301,0.5407,0.5407,0.5301,0.5407,0.5513,0.5622,0.5622,0.5622,0.5567,0.5458,0.5352,0.5297,0.5297,0.5297,0.5297,0.0,0.0,0.0,0.0,0.0,0.0,0.0,0.0,0.0,0.0,0.0,-0.31,-0.3348,0.0,0.0,0.0,-0.3855,0.0,0.0,0.0,0.0,0.0,0.0,0.0,0.0,0.0,0.0,0.0,0.0,0.0,-0.9011,-0.9754,-1.0872,0.0,-1.1664,0.0,0.0,0.0,0.0,0.0,-0.6449,-0.5497,-0.4654,-0.4168,-0.43,-0.4563,0.0,0.0,0.0,0.0,0.0,0.0,0.0,0.0,0.0,0.0,0.0,0.0,0.0,0.0,0.0,0.0,0.0,0.0,0.0,0.0,-0.2824,0.0,-0.2114,-0.1847,-0.157,-0.1402,-0.1291,-0.1291,-0.1291,-0.1291,-0.1291,-0.1066,-0.0842,-0.0617,-0.0336,0.0056,0.0729,0.1232,0.1736,0.2411,0.2742,0.3128,0.368,0.3843,0.4343,0.523,0.5171,0.534,0.5736,0.5626,0.5462,0.5297,0.5462,0.5458,0.5407,0.5513,0.5517,0.5407,0.5567,0.5622,0.5677,0.5677,0.5677,0.5622,0.5462,0.5352,0.5297,0.5297,0.5297,0.5297,0.0,0.0,0.0,0.0,0.0,0.0,0.0,0.0,0.0,0.0,0.0,-0.3003,-0.3021,-0.3306,-0.3509,-0.3525,-0.3751,0.0,0.0,0.0,0.0,0.0,0.0,0.0,0.0,0.0,0.0,0.0,0.0,0.0,-0.8743,-0.987,-1.0995,-1.2112,-1.2204,-1.1427,-1.0026,0.0,0.0,0.0,-0.533,-0.3612,-0.1268,-0.2231,-0.3294,-0.4016,0.0,0.0,0.0,0.0,0.0,0.0,0.0,0.0,-0.192,0.0,0.0,0.0,0.0,0.0,0.0,0.0,0.0,0.0,0.0,0.0,0.0,-0.2615,-0.2355,-0.2183,-0.2183,-0.1682,-0.1291,-0.1291,-0.1291,-0.1291,-0.1291,-0.1066,-0.0729,-0.028,-0.0224,0.0112,0.101,0.1122,0.1346,0.1797,0.2074,0.2238,0.2294,0.2956,0.3622,0.4233,0.4563,0.5007,0.5622,0.5407,0.5301,0.5297,0.5301,0.5407,0.5567,0.5622,0.5677,0.574,0.5677,0.5727,0.5946,0.5845,0.5795,0.5795,0.5622,0.5458,0.5297,0.5297,0.5297,0.5297,0.0,0.0,0.0,0.0,0.0,0.0,0.0,0.0,0.0,0.0,0.0,0.0,0.0,-0.3109,-0.3247,-0.3419,0.0,0.0,0.0,0.0,0.0,0.0,0.0,0.0,0.0,0.0,0.0,0.0,0.0,-0.5623,-0.795,-0.8692,-0.9378,-1.0,-1.0656,-0.9788,-0.7723,-0.6114,0.0,0.0,0.0,-0.134,0.0,0.0,-0.2099,-0.2361,0.0,0.0,0.0,0.0,0.0,0.0,0.0,-0.161,-0.1588,-0.1433,0.0,0.0,0.0,0.0,0.0,0.0,0.0,0.0,0.0,-0.2534,-0.2616,-0.2584,-0.2364,-0.2128,-0.2174,-0.2017,-0.1905,-0.1905,-0.1737,-0.1624,-0.1624,-0.1233,-0.0842,-0.0673,-0.0393,-0.0056,0.0224,0.0952,0.1568,0.1905,0.2462,0.2796,0.2796,0.3016,0.3292,0.3622,0.4015,0.4629,0.5407,0.5352,0.5297,0.5297,0.5407,0.5513,0.5622,0.5681,0.5736,0.5795,0.5736,0.5791,0.5845,0.5736,0.5681,0.5677,0.5462,0.5352,0.5297,0.5297,0.5297,0.5297,0.0,0.0,0.0,-0.2685,0.0,-0.2665,-0.2665,-0.2665,0.0,0.0,0.0,0.0,0.0,0.0,0.0,0.0,0.0,0.0,0.0,0.0,0.0,0.0,0.0,0.0,0.0,0.0,0.0,0.0,0.0,0.0,0.0,0.0,-0.8232,-0.861,-0.8977,0.0,0.0,0.0,0.0,-0.0167,0.0,0.0,0.0167,0.0,-0.1394,0.0,0.0,0.0,0.0,0.0,0.0,0.0,0.0,-0.1351,-0.141,-0.141,0.0,0.0,0.0,0.0,0.0,0.0,0.0,0.0,0.0,0.0,-0.2377,-0.244,-0.2208,-0.205,-0.2209,-0.213,-0.2099,-0.2179,-0.2071,-0.1902,-0.179,-0.1345,-0.101,-0.0898,-0.0617,-0.0336,0.0,0.0728,0.1455,0.2015,0.2464,0.2687,0.2796,0.2687,0.2796,0.3067,0.3793,0.4463,0.5018,0.5187,0.5297,0.5297,0.5458,0.5567,0.5681,0.574,0.585,0.5845,0.5795,0.5795,0.5795,0.5677,0.5622,0.5567,0.5407,0.5297,0.5297,0.5297,0.5297,0.5297,-0.2666,-0.2666,-0.2646,-0.2735,-0.2696,-0.2647,-0.2637,-0.2637,0.0,0.0,0.0,0.0,0.0,0.0,0.0,0.0,0.0,0.0,0.0,0.0,0.0,0.0,0.0,0.0,0.0,0.0,0.0,0.0,0.0,0.0,0.0,0.0,-0.7716,0.0,-0.735,-0.6505,-0.5644,0.0,-0.3116,-0.0139,0.0,-0.0486,0.1122,0.0,0.0,0.0,-0.0251,-0.0389,0.0,-0.0505,0.0,0.0,0.0,-0.1243,-0.1388,-0.1388,0.0,0.0,0.0,0.0,0.0,0.0,0.0,0.0,-0.2224,0.0,-0.2202,-0.2176,-0.1952,-0.1854,-0.2315,-0.2073,-0.1877,-0.2166,-0.2181,-0.2071,-0.1846,-0.1513,-0.1178,-0.0954,-0.0898,-0.0561,0.028,0.0393,0.0896,0.2073,0.1964,0.1908,0.2183,0.1964,0.213,0.2736,0.3904,0.4519,0.4519,0.5018,0.5297,0.5297,0.5297,0.5462,0.5795,0.5795,0.5845,0.6005,0.5845,0.5795,0.5795,0.5622,0.5567,0.5567,0.5352,0.5297,0.5297,0.5297,0.5297,0.5297,-0.2971,-0.3042,-0.3186,-0.363,-0.3695,-0.363,-0.3496,-0.347,0.0,0.0,0.0,0.0,0.0,0.0,0.0,0.0,0.0,0.0,0.0,0.0,0.0,0.0,0.0,0.0,0.0,0.0,0.0,0.0,0.0,0.0,0.0,0.0,0.0,0.0,-0.7262,-0.5553,-0.2712,-0.1916,0.0,0.0,0.1616,0.1161,0.0,0.0,0.0,0.0,0.0,-0.0112,-0.0249,0.0,-0.0425,-0.053,0.0,0.0,0.0,-0.1072,-0.1311,0.0,-0.1491,0.0,0.0,0.0,0.0,0.0,0.0,0.0,-0.1992,-0.2038,-0.1962,-0.2003,-0.2331,-0.2029,-0.1845,-0.228,-0.2113,-0.1902,-0.179,-0.1345,-0.101,-0.0898,-0.0898,-0.0673,-0.0112,0.0224,0.0784,0.1679,0.1961,0.2128,0.2184,0.235,0.2905,0.3959,0.4349,0.4684,0.5077,0.5242,0.5297,0.5297,0.5297,0.5462,0.5795,0.5681,0.5736,0.5845,0.5736,0.5572,0.5407,0.5407,0.5407,0.5352,0.5297,0.5297,0.5297,0.5297,0.5297,0.5297,-0.3485,-0.3535,-0.3615,-0.4026,-0.4053,-0.3982,-0.3862,-0.3848,-0.3848,0.0,0.0,0.0,0.0,0.0,0.0,0.0,0.0,0.0,0.0,0.0,0.0,0.0,-0.3501,0.0,0.0,0.0,0.0,0.0,0.0,0.0,0.0,0.0,0.0,0.0,0.0,-0.461,-0.1919,-0.0938,0.0,0.0,0.2244,0.0,0.0,0.0143,-0.0114,0.0,0.0,0.0,-0.0039,-0.0194,-0.0393,0.0,0.0,-0.0998,-0.1344,-0.1072,0.0,0.0,0.0,0.0,0.0,0.0,0.0,0.0,-0.1458,-0.1526,-0.1627,0.0,-0.1408,-0.1432,-0.1706,-0.1361,-0.1247,-0.1681,-0.1484,-0.1402,-0.1697,-0.1262,-0.0828,-0.0616,-0.0617,-0.0336,0.028,0.0561,0.1008,0.179,0.1961,0.2018,0.2018,0.246,0.3014,0.3738,0.4239,0.4629,0.4963,0.5187,0.5297,0.5297,0.5297,0.5462,0.5736,0.5622,0.5622,0.5736,0.5622,0.5458,0.5297,0.5297,0.5297,0.5297,0.5297,0.5297,0.5297,0.5297,0.5297,0.5297,0.0,-0.4038,-0.4044,-0.4212,-0.4164,-0.4064,-0.4035,-0.4035,-0.4059,0.0,0.0,0.0,0.0,0.0,0.0,0.0,0.0,0.0,0.0,0.0,0.0,-0.346,-0.3549,-0.3485,0.0,0.0,0.0,0.0,0.0,0.0,0.0,0.0,0.0,0.0,-0.4993,-0.3891,-0.2477,-0.1604,0.0,0.1474,0.1303,0.0752,0.0,0.0,-0.0205,0.0,0.0,0.0,0.0,0.0,-0.0347,0.0,0.0,-0.0916,-0.148,-0.118,-0.1333,0.0,0.0,0.0,0.0,0.0,-0.1721,0.0,-0.1379,-0.1299,-0.1188,0.0,-0.0652,-0.0613,-0.08,-0.0538,-0.0394,-0.0877,-0.0658,-0.0654,-0.1422,-0.1112,-0.0643,-0.0221,-0.0166,0.0166,0.0998,0.1058,0.1394,0.2115,0.1903,0.1853,0.1908,0.2462,0.2847,0.2903,0.4015,0.4574,0.4574,0.5077,0.5297,0.5297,0.5297,0.5407,0.5622,0.5567,0.5567,0.5622,0.5567,0.5458,0.5297,0.5297,0.5297,0.5297,0.5297,0.5297,0.5297,0.5297,0.5297,0.5297,-0.4183,-0.4382,-0.4624,-0.5141,-0.5203,-0.5103,-0.4891,-0.4855,0.0,0.0,0.0,0.0,0.0,0.0,0.0,0.0,0.0,0.0,0.0,0.0,-0.4265,-0.3742,-0.3651,-0.3555,-0.3442,0.0,0.0,0.0,0.0,0.0,0.0,0.0,0.0,0.0,-0.5079,-0.4309,-0.2742,-0.2648,0.0,-0.0414,0.0082,0.0,0.0,-0.0077,-0.0042,0.0,0.0,0.0,0.0,0.0128,-0.0081,-0.0337,0.0,-0.039,-0.0508,-0.0951,-0.0958,-0.088,-0.1198,-0.1512,-0.1681,-0.1423,0.0,0.0,-0.111,-0.1083,-0.11,0.0,-0.0911,-0.0952,-0.1159,-0.0841,-0.0686,-0.1143,-0.0412,0.0,-0.0553,-0.0357,0.0,0.0154,0.0206,0.0412,0.0876,0.1005,0.1238,0.1777,0.1825,0.2018,0.2516,0.307,0.3624,0.4128,0.4794,0.5132,0.5132,0.5242,0.5297,0.5297,0.5297,0.5407,0.5622,0.5407,0.5462,0.5567,0.5407,0.5352,0.5297,0.5297,0.5297,0.5297,0.5297,0.5297,0.5297,0.5297,0.5297,0.5297,-0.4811,-0.4977,-0.5139,-0.5451,-0.5492,-0.5454,-0.531,-0.5291,0.0,0.0,0.0,0.0,0.0,0.0,0.0,0.0,0.0,0.0,0.0,0.0,-0.4733,-0.3938,-0.4122,-0.4174,-0.4002,-0.3709,0.0,0.0,0.0,0.0,0.0,0.0,0.0,0.0,0.0,0.0,0.0,0.0,-0.225,-0.1357,-0.0403,0.0,0.0,0.0,0.013,0.0314,0.009,0.0,0.0045,0.0214,0.0,0.0,0.0,-0.0214,-0.0425,0.0,-0.0799,-0.0827,-0.1228,-0.1413,-0.1405,-0.1275,0.0,0.0,0.0,-0.0824,-0.0876,-0.0604,-0.06,-0.0646,-0.0655,-0.0447,-0.0315,-0.056,-0.0038,0.0289,0.0,0.014,0.0345,0.0553,0.0554,0.0756,0.121,0.1283,0.14,0.1609,0.1689,0.1986,0.2615,0.3212,0.3836,0.446,0.5018,0.5297,0.5297,0.5297,0.5297,0.5297,0.5297,0.5352,0.5462,0.5352,0.5352,0.5462,0.5352,0.5297,0.5297,0.5297,0.5297,0.5297,0.5297,0.5297,0.5297,0.5297,0.5297,0.5301,-0.5397,-0.5492,-0.5492,-0.5492,-0.5492,-0.5492,-0.5492,-0.5492,0.0,0.0,0.0,0.0,0.0,0.0,0.0,0.0,0.0,0.0,0.0,0.0,0.0,-0.4363,-0.4827,-0.5006,-0.4818,-0.4279,0.0,0.0,0.0,0.0,0.0,0.0,0.0,0.0,0.0,0.0,0.0,0.0,0.0,-0.1818,0.0,-0.0068,0.0,0.0,0.0263,0.0569,0.0223,0.009,0.0089,0.0299,0.0042,-0.0294,0.0038,-0.0154,0.0,0.0,0.0,0.0,0.0,0.0,0.0,0.0,0.0,-0.0845,0.0,0.0,0.0,-0.0222,-0.029,0.0,0.0,0.0,0.0,0.0,0.0,0.0,0.0214,0.037,0.0552,0.0713,0.0865,0.1114,0.1416,0.1465,0.1528,0.1612,0.1642,0.1912,0.2523,0.3221,0.3862,0.4412,0.5003,0.5297,0.5297,0.5297,0.5297,0.5297,0.5297,0.5297,0.5297,0.5297,0.5297,0.5297,0.5297,0.5297,0.5297,0.5297,0.5297,0.5297,0.5297,0.5297,0.5297,0.5297,0.5297,0.5297,-0.531,-0.5416,-0.5492,-0.5492,-0.5492,-0.5492,-0.5492,-0.5492,0.0,0.0,0.0,0.0,0.0,0.0,0.0,0.0,0.0,0.0,-0.7319,0.0,0.0,-0.5525,-0.5686,-0.5833,-0.5905,-0.5111,-0.4953,0.0,0.0,0.0,0.0,0.0,-0.5144,-0.4345,-0.4098,0.0,0.0,0.0,-0.1813,0.0,-0.0989,-0.038,0.0,0.0,0.012,0.0282,0.035,0.036,0.0357,0.0,0.0172,-0.0175,0.0,0.0,-0.0173,-0.0629,0.0,0.0,0.0,0.0,0.0,0.0,-0.1007,0.0,0.0,0.0,-0.0926,-0.0381,0.0,0.0,0.0,0.0,0.0,0.0,0.0,0.0,-0.0063,0.0175,0.0378,0.0532,0.095,0.1197,0.0987,0.1074,0.126,0.1554,0.1748,0.2014,0.2323,0.3488,0.4134,0.4256,0.4938,0.5297,0.5297,0.5297,0.5297,0.5297,0.5297,0.5297,0.5297,0.5297,0.5297,0.5297,0.5297,0.5297,0.5297,0.5297,0.5297,0.5297,0.5297,0.5297,0.5297,0.5297,0.5297,0.5297,-0.553,-0.5549,-0.5558,-0.5558,-0.553,-0.5511,-0.5541,-0.5549,0.0,0.0,0.0,0.0,0.0,0.0,0.0,0.0,0.0,-0.7879,0.0,0.0,0.0,-0.5914,-0.6261,-0.6557,-0.674,-0.5686,-0.5554,0.0,-0.5156,0.0,0.0,0.0,-0.5002,-0.3955,-0.4347,0.0,-0.3368,0.0,-0.2278,0.0,0.0,0.0,0.0,0.0,0.0085,0.0257,0.0753,0.0718,0.0402,0.0,0.0433,0.0,0.0,0.0,0.0,-0.0291,0.0,0.0,0.0,0.0,0.0,0.0,0.0,0.0,-0.0579,0.0,-0.0675,0.0,0.0,0.0,0.0,0.0,0.0,0.0,-0.0294,0.0,0.0,0.0,0.0323,0.0415,0.0675,0.0845,0.089,0.097,0.1206,0.1659,0.1738,0.2154,0.2993,0.3726,0.4295,0.4707,0.5093,0.5297,0.5297,0.5297,0.5297,0.5297,0.5297,0.5297,0.5297,0.5297,0.5297,0.5297,0.5297,0.5297,0.5297,0.5297,0.5297,0.5297,0.5297,0.5297,0.5297,0.5297,0.5297,0.5297,-0.5748,0.0,0.0,0.0,-0.5568,-0.5541,-0.557,-0.5587,-0.5986,0.0,0.0,0.0,-0.7589,-0.942,0.0,0.0,-0.9401,-0.9166,0.0,0.0,-0.7645,-0.6974,-0.7095,-0.7388,-0.7793,-0.6638,-0.642,-0.7242,-0.6003,0.0,0.0,0.0,0.0,-0.4337,0.0,-0.452,-0.3375,0.0,-0.2669,-0.1535,-0.1456,-0.0823,0.0067,0.0081,0.0176,0.0359,0.0942,0.0853,0.0491,0.0642,0.0564,0.0401,0.0641,0.0608,0.0446,0.0,0.0,0.0,-0.0741,0.0,0.0,0.0,-0.055,-0.0309,-0.0507,-0.0549,-0.0536,-0.0353,0.0,0.0,0.0,0.0,0.0,0.0,0.0,-0.03,0.0,-0.0104,0.0,0.0,0.029,0.0467,0.073,0.0723,0.0953,0.1641,0.1685,0.2214,0.3397,0.3925,0.4416,0.4952,0.5181,0.5297,0.5297,0.5297,0.5297,0.5297,0.5297,0.5297,0.5297,0.5297,0.5297,0.5297,0.5297,0.5297,0.5297,0.5297,0.5297,0.5297,0.5297,0.5297,0.5297,0.5297,0.5297,0.5297,-0.5793,-0.5748,0.0,0.0,0.0,-0.557,-0.5511,-0.5558,-0.6318,0.0,0.0,0.0,0.0,0.0,0.0,0.0,0.0,-1.1229,-1.0811,0.0,-0.8786,-0.927,-0.8437,-0.8384,0.0,-0.8215,-0.7771,-0.8057,-0.7488,-0.7152,0.0,0.0,0.0,0.0,0.0,-0.5439,-0.4491,-0.3661,-0.2673,-0.1694,-0.147,-0.0779,0.022,0.0,0.0418,0.0494,0.0674,0.0719,0.067,0.0684,0.039,0.0089,0.0554,0.039,0.0089,0.0403,0.0,0.0,-0.009,-0.0224,-0.0264,-0.0523,-0.055,-0.046,-0.0415,-0.0618,-0.0643,-0.0206,-0.0509,-0.0754,0.0,0.0,0.0,0.0,0.0,0.0,0.0,0.0,0.0,0.0,0.0,0.0,0.0402,0.0234,0.0487,0.1331,0.1518,0.205,0.307,0.3905,0.4443,0.4618,0.5063,0.5297,0.5297,0.5297,0.5297,0.5297,0.5297,0.5297,0.5297,0.5297,0.5297,0.5297,0.5297,0.5297,0.5297,0.5297,0.5297,0.5297,0.5297,0.5297,0.5297,0.5297,0.5297,0.5297,0.0,0.0,0.0,0.0,0.0,-0.5617,-0.5511,-0.6693,-0.7834,0.0,0.0,0.0,0.0,-0.962,-1.1138,0.0,0.0,-1.2217,-1.1547,-1.022,0.0,0.0,0.0,-0.9418,0.0,-0.9068,-0.8442,-0.8165,-0.7545,-0.7182,0.0,0.0,0.0,0.0,0.0,-0.5124,0.0,0.0,0.0,0.0,0.0,-0.0083,0.0359,0.0435,0.0482,0.0539,0.0674,0.0719,0.0718,0.0708,0.0577,0.0493,0.0663,0.0577,0.0449,0.0449,0.045,0.0362,0.0046,0.0048,0.0095,-0.0308,-0.0215,-0.0083,-0.033,-0.0486,-0.0496,-0.0275,-0.0403,-0.0533,0.0,0.0,0.0,0.0,0.0,0.0,0.0,0.0,0.0,0.0,0.0,0.0,0.0,0.0318,0.0752,0.1548,0.192,0.2462,0.326,0.402,0.4483,0.461,0.4944,0.523,0.5297,0.5297,0.5297,0.5297,0.5297,0.5297,0.5297,0.5297,0.5297,0.5297,0.5297,0.5297,0.5297,0.5297,0.5297,0.5297,0.5297,0.5297,0.5297,0.5297,0.5297,0.5297,-0.5713,0.0,0.0,0.0,0.0,0.0,-0.6564,-0.7755,0.0,0.0,-0.9455,0.0,-1.0045,0.0,-1.1424,0.0,-1.347,-1.3127,-1.1992,-1.1401,0.0,-1.2207,-1.1411,0.0,0.0,0.0,-0.9892,-0.9026,-0.8737,-0.8354,0.0,0.0,0.0,0.0,0.0,-0.5538,-0.4048,0.0,-0.2955,0.0,0.0,0.0128,0.0,0.0494,0.0539,0.0584,0.0674,0.0719,0.0719,0.0719,0.0719,0.0719,0.0764,0.0772,0.078,0.0642,0.0603,0.0566,0.0242,0.0248,0.0298,-0.0047,0.0046,0.0133,-0.0194,-0.0158,-0.004,0.0145,0.0,-0.0039,0.0415,0.0,0.0,0.0,0.0,0.0,0.0,-0.0372,0.0,0.0,0.0,0.0,0.0,0.0,0.0779,0.179,0.1992,0.2423,0.3299,0.3836,0.4268,0.4557,0.4884,0.5112,0.5297,0.5297,0.5297,0.5297,0.5297,0.5297,0.5297,0.5242,0.5242,0.5297,0.5242,0.5242,0.5297,0.5297,0.5297,0.5297,0.5297,0.5297,0.5297,0.5297,0.5297,0.5297,0.0,0.0,0.0,0.0,-0.6563,0.0,0.0,0.0,-0.8831,0.0,-1.1242,-1.2866,-1.2866,-1.2866,-1.3009,-1.3326,-1.4211,-1.401,-1.2317,-1.2941,0.0,0.0,-1.3041,-1.3269,-1.3155,0.0,0.0,0.0,-1.089,-1.0445,0.0,0.0,0.0,0.0,-0.7851,0.0,-0.4545,-0.5034,-0.4005,-0.198,-0.0908,-0.0134,0.0405,0.0494,0.0584,0.0719,0.0719,0.0719,0.0719,0.0719,0.0719,0.072,0.0856,0.0925,0.1,0.0906,0.0931,0.0908,0.0505,0.0404,0.0351,0.0194,0.0192,0.0279,0.0041,0.0255,0.0573,0.0885,0.0594,0.0652,0.1797,0.0733,0.0,0.0,0.0,0.0,0.0,0.0,0.0,0.0,0.0,0.0,0.0,0.0,0.0568,0.2071,0.1734,0.0,0.0,0.3464,0.3854,0.4436,0.4711,0.4994,0.5297,0.5297,0.5297,0.5297,0.5297,0.5297,0.5297,0.5183,0.5183,0.5297,0.5128,0.5183,0.5297,0.5297,0.5297,0.5297,0.5297,0.5297,0.5242,0.5242,0.5242,0.5187,-0.6003,-0.5849,-0.586,0.0,-0.63,-0.6717,0.0,0.0,0.0,0.0,-1.4559,-1.4977,-1.4977,-1.5311,-1.5545,-1.5627,-1.5411,0.0,0.0,0.0,0.0,-1.5706,-1.5258,-1.5057,-1.5236,-1.3763,0.0,-1.1845,0.0,0.0,-0.9588,0.0,0.0,0.0,0.0,0.0,-0.4705,-0.4452,-0.3257,-0.1518,-0.0754,-0.009,0.0405,0.0584,0.0674,0.0719,0.0719,0.0719,0.0719,0.0719,0.0719,0.0723,0.0792,0.0853,0.0864,0.0838,0.085,0.0863,0.0782,0.0788,0.0734,0.0467,0.0406,0.0392,0.0277,0.0284,0.0383,0.0442,0.0365,0.0369,0.0622,0.0195,-0.0147,0.0,0.0,0.0,0.0,0.0,0.0,-0.0456,0.0,0.0,0.0,0.0549,0.1121,0.17,0.1998,0.2427,0.3043,0.3135,0.3469,0.4124,0.439,0.4662,0.5011,0.5124,0.5128,0.5128,0.5242,0.5242,0.5128,0.5128,0.5069,0.5011,0.5069,0.5128,0.5183,0.5242,0.5297,0.5297,0.5297,0.5073,0.4684,0.4684,0.4684,0.4629,-0.6613,0.0,0.0,-0.8513,0.0,0.0,-0.8753,-0.9821,0.0,-1.3435,-1.494,0.0,-1.5792,-1.6219,-1.6693,-1.7073,-1.6383,0.0,-1.489,0.0,0.0,-1.6766,-1.7339,-1.7387,-1.6846,-1.5474,0.0,-1.2776,0.0,0.0,-0.9601,0.0,0.0,0.0,0.0,-0.6269,-0.4965,-0.4066,-0.3078,-0.1966,-0.1073,-0.0362,0.0,0.06,0.0747,0.0757,0.0757,0.075,0.0741,0.0753,0.0757,0.0761,0.0875,0.0892,0.0957,0.1232,0.1097,0.1009,0.1245,0.109,0.0926,0.1034,0.0858,0.0678,0.0742,0.0645,0.0598,0.0763,0.0667,0.0716,0.1214,0.0553,-0.0113,0.0,0.0,0.0,0.0,0.0,0.0,0.0,-0.0367,0.0,-0.0114,0.0552,0.1188,0.1665,0.1903,0.2267,0.2712,0.2816,0.3174,0.3911,0.4197,0.4488,0.4793,0.4922,0.5014,0.5014,0.5069,0.5069,0.5014,0.4959,0.4904,0.4897,0.4904,0.4959,0.5014,0.5069,0.4959,0.468,0.4457,0.4181,0.3956,0.3627,0.3738,0.4015,-0.733,0.0,0.0,0.0,0.0,0.0,0.0,-0.9243,0.0,-1.0559,0.0,-1.5748,-1.5513,-1.58,-1.6355,-1.7256,0.0,-1.6196,-1.5764,-1.7483,-1.8131,-1.7231,-1.9259,-1.9763,-1.8354,-1.7546,-1.5995,0.0,0.0,0.0,0.0,0.0,0.0,0.0,0.0,0.0,0.0,-0.3969,-0.3133,-0.2563,-0.1533,-0.074,-0.0096,0.0529,0.0785,0.0807,0.0811,0.0795,0.0822,0.0798,0.0806,0.0807,0.0963,0.1039,0.1172,0.1658,0.1423,0.1178,0.1568,0.1288,0.1009,0.1568,0.1288,0.0994,0.1243,0.1124,0.0971,0.1276,0.1117,0.1253,0.2377,0.131,0.0115,0.0,0.0,0.0,0.0,0.0,0.0,0.0,0.0,0.0,-0.0094,0.0393,0.099,0.1647,0.1622,0.1807,0.2365,0.2534,0.2954,0.3702,0.4026,0.4329,0.461,0.4768,0.4901,0.4901,0.4897,0.4897,0.4846,0.4743,0.4743,0.4846,0.4739,0.4739,0.4736,0.4787,0.4453,0.384,0.3231,0.3065,0.3067,0.235,0.2571,0.3236,0.0,0.0,0.0,0.0,0.0,-1.1645,-1.1639,-1.1757,-1.1122,-0.9259,-1.2971,-1.5334,-1.4129,-1.3705,-1.3742,-1.4329,-1.5129,0.0,0.0,0.0,0.0,-2.0296,-2.0782,-2.0908,-2.0631,-1.9155,-1.7258,-1.4977,-1.3047,-1.1329,0.0,0.0,0.0,0.0,0.0,0.0,-0.4769,-0.4443,-0.3194,-0.1459,-0.113,-0.0434,0.0449,0.07,0.0802,0.081,0.0887,0.0825,0.08,0.0805,0.0806,0.0811,0.0889,0.0901,0.0964,0.1047,0.1004,0.0954,0.1009,0.0953,0.0898,0.1009,0.0953,0.0895,0.0994,0.0936,0.0936,0.0991,0.0928,0.1124,0.1806,0.1557,0.0978,0.0115,0.0038,0.0,0.0,0.0,0.0,0.0,0.0,0.0197,0.0,0.0463,0.0916,0.121,0.1308,0.1634,0.2286,0.2131,0.2472,0.3368,0.3722,0.4017,0.4299,0.4609,0.4743,0.4743,0.4846,0.4846,0.4743,0.4688,0.4632,0.457,0.4688,0.4408,0.4015,0.4122,0.3785,0.3174,0.2569,0.2348,0.2294,0.1681,0.157,0.1681,0.0,0.0,0.0,0.0,0.0,0.0,-1.2687,-1.365,-1.3397,-1.1116,-1.2871,-1.3465,-1.127,-1.2361,-1.3248,-1.3248,-1.4014,-1.4788,-1.5595,-1.7722,-1.9697,-2.1426,-2.2501,-2.272,-2.1993,-2.0301,-1.85,-1.6596,-1.4124,-1.2102,0.0,0.0,0.0,0.0,0.0,-0.6027,0.0,-0.4409,-0.336,-0.2328,-0.1456,-0.0751,-0.0104,0.057,0.084,0.0855,0.087,0.0866,0.0854,0.0854,0.1067,0.1336,0.1359,0.1584,0.1807,0.1836,0.1623,0.1344,0.1344,0.1121,0.0953,0.1288,0.1344,0.1344,0.1344,0.1344,0.1288,0.0953,0.0898,0.0934,0.1123,0.1041,0.0753,0.0255,0.0119,0.0116,0.0,0.0,0.0,0.0,0.0,0.0,0.0,0.0192,0.0482,0.0,0.0,0.145,0.2122,0.1992,0.229,0.3175,0.3595,0.39,0.4076,0.4405,0.4577,0.4577,0.4684,0.4684,0.4577,0.4577,0.4574,0.4463,0.4239,0.3962,0.3627,0.3067,0.2676,0.2345,0.1734,0.1569,0.1569,0.1234,0.1122,0.1178,0.0,-1.1559,0.0,0.0,-1.0795,-1.1213,-1.3309,-1.4501,-1.464,-1.3113,-1.3248,-1.248,-0.9814,-1.1975,-1.343,-1.3065,-1.3296,-1.4283,-1.6299,-1.8076,-1.9968,-2.196,-2.3639,-2.4018,-2.2973,-2.1399,-1.9727,-1.7976,-1.5394,-1.3157,-1.1274,-0.9905,-0.8961,-0.8348,-0.6802,-0.6002,-0.57,-0.4354,-0.3537,-0.3115,-0.1757,-0.1039,-0.0644,0.0484,0.0877,0.0898,0.0898,0.0898,0.0898,0.0898,0.1288,0.179,0.1623,0.2014,0.2458,0.2347,0.1958,0.1623,0.1623,0.1288,0.1009,0.1511,0.1623,0.1623,0.1623,0.1623,0.1456,0.1009,0.1009,0.0988,0.0614,0.0633,0.0608,0.0362,0.0249,0.0199,0.0212,0.0,0.0,0.0,0.0,0.0,0.008,0.0027,0.0156,0.0554,0.0,0.1208,0.1928,0.1858,0.2168,0.2956,0.3393,0.3721,0.3873,0.4297,0.4519,0.4519,0.4519,0.4519,0.4519,0.4519,0.4408,0.4294,0.3793,0.3458,0.3125,0.2068,0.1623,0.1568,0.1065,0.0954,0.1066,0.0954,0.0954,0.1066,0.0,0.0,0.0,0.0,0.0,-1.333,-1.3542,-1.3344,-1.3113,-1.2929,-1.4455,-1.4767,-1.2702,-1.3142,-1.3563,-1.3525,-1.321,-1.3248,-1.3884,-1.8496,-2.1649,-2.2594,-2.3226,-2.36,-2.3772,-2.2734,-2.0987,-1.8523,-1.6507,-1.4312,-1.1993,-1.1164,-0.9849,-0.813,-0.7707,-0.6514,-0.4823,-0.4656,-0.3765,-0.2316,-0.1529,-0.0808,-0.0167,0.0613,0.0895,0.0898,0.0898,0.0898,0.0898,0.0898,0.1288,0.1679,0.1177,0.14,0.179,0.1232,0.1009,0.1009,0.1009,0.0954,0.0898,0.0953,0.1009,0.1009,0.1009,0.1009,0.0953,0.0898,0.1344,0.1535,0.0868,0.1269,0.1423,0.0783,0.0733,0.0784,0.0673,0.0,0.0693,0.0583,0.0,0.0,0.0283,0.0264,0.0252,0.0248,0.0444,0.092,0.178,0.1579,0.1812,0.2606,0.2916,0.316,0.334,0.4141,0.4519,0.4519,0.4519,0.4519,0.4519,0.4519,0.4184,0.3683,0.3627,0.2959,0.1902,0.1232,0.1009,0.0953,0.0898,0.0898,0.0898,0.0898,0.0898,0.0898,-1.1177,-1.2745,-1.3615,-1.2258,-1.2904,-1.3621,-1.3621,-1.343,-1.32,-1.2929,-1.3573,-1.4316,-1.4983,-1.4201,-1.3941,-1.4812,-1.3941,-1.4517,-1.7437,-2.1468,-2.3675,-2.3546,-2.427,-2.4683,-2.4736,-2.3751,-2.2475,-2.0877,-1.8459,-1.6491,-1.4929,-1.2774,-1.0837,-0.9058,-0.7551,-0.643,-0.5669,-0.482,-0.3849,-0.2768,-0.1793,-0.1159,-0.0615,0.0392,0.0842,0.0898,0.0898,0.0898,0.0898,0.0898,0.1568,0.2235,0.1623,0.2125,0.2736,0.2179,0.1734,0.1456,0.1456,0.1177,0.0898,0.0898,0.1177,0.1344,0.1009,0.1177,0.1344,0.0953,0.1065,0.1167,0.092,0.1063,0.1092,0.0854,0.0811,0.0785,0.0746,0.0,0.0,0.0614,0.0,0.0,0.0,0.014,-0.0055,-0.0028,0.0148,0.0549,0.1223,0.1468,0.1732,0.2101,0.3025,0.3407,0.3325,0.4082,0.4519,0.4519,0.4519,0.4519,0.4463,0.4125,0.3458,0.2514,0.2514,0.2012,0.1232,0.1009,0.0898,0.0898,0.0898,0.0898,0.0898,0.0898,0.0898,0.0898,-1.251,-1.2861,-1.32,-1.3525,-1.3621,-1.3621,-1.3621,-1.4071,-1.434,-1.4025,-1.3978,-1.4387,-1.5522,-1.5186,-1.5276,-1.6337,-1.591,-1.6937,-2.01,-2.3241,-2.4845,-2.4501,-2.5006,-2.5309,-2.533,-2.4302,-2.3445,-2.2757,-1.9916,-1.8073,-1.7128,-1.4117,-1.1703,-0.9842,-0.797,-0.6725,-0.5893,-0.479,-0.3946,-0.3243,-0.227,-0.162,-0.1119,-0.0056,0.0561,0.0785,0.0842,0.0842,0.0842,0.0898,0.1567,0.2347,0.1958,0.2514,0.3236,0.2625,0.2124,0.1734,0.1567,0.1232,0.0898,0.0898,0.1232,0.14,0.1009,0.1232,0.14,0.1009,0.0898,0.0898,0.0898,0.0862,0.0832,0.0879,0.078,0.0744,0.0785,0.0693,0.0,0.0473,0.0439,0.0407,0.035,-0.006,-0.0266,-0.0157,0.0,0.0268,0.0728,0.1145,0.1434,0.1652,0.2667,0.3053,0.2848,0.357,0.3959,0.3959,0.3959,0.3959,0.3959,0.3347,0.2625,0.179,0.1623,0.1288,0.0898,0.0898,0.0898,0.0898,0.0898,0.0898,0.0898,0.0898,0.0898,0.0898,-1.3478,-1.3573,-1.361,-1.3621,-1.3621,-1.3621,-1.3621,-1.5242,-1.6479,-1.6479,-1.6479,-1.5744,-1.3847,-1.6145,-1.7842,-1.7882,-1.9295,-2.022,-2.0304,-2.2934,-2.4783,-2.5352,-2.5012,-2.4981,-2.5382,-2.4288,-2.3668,-2.3588,-2.0572,-1.8687,-1.7824,-1.4995,-1.2436,-1.0143,-0.9462,-0.7621,-0.4968,-0.4494,-0.4003,-0.3527,-0.2792,-0.2122,-0.151,-0.0672,-0.0056,0.0449,0.0617,0.0729,0.0729,0.0842,0.1288,0.179,0.179,0.2235,0.2569,0.2014,0.179,0.1679,0.1065,0.0898,0.0898,0.0898,0.0898,0.0898,0.0898,0.0898,0.0898,0.0898,0.0898,0.0898,0.0898,0.0897,0.0868,0.0829,0.0788,0.0775,0.073,0.0648,0.0,0.0157,0.0034,0.0,0.0,-0.0255,0.0,-0.0033,0.0,0.0105,0.0387,0.0472,0.0771,0.1286,0.1585,0.1745,0.1708,0.2374,0.2736,0.2736,0.2736,0.2736,0.2681,0.2125,0.179,0.179,0.1177,0.0898,0.0898,0.0898,0.0898,0.0898,0.0898,0.0898,0.0898,0.0898,0.0898,0.0898,-1.3573,-1.3621,-1.3621,-1.3621,-1.3621,-1.3621,-1.3621,-1.5242,-1.6522,-1.6522,-1.6522,-1.6497,-1.6544,-1.7338,-1.8333,-1.9457,-2.001,-2.0304,-2.0304,-2.3293,-2.5149,-2.5394,-2.5309,-2.5273,-2.5263,-2.4775,-2.4371,-2.4083,-2.1834,-1.9446,-1.6908,-1.5133,-1.3269,-1.1293,-1.0262,-0.8657,-0.6632,-0.5833,-0.4953,-0.4132,-0.307,-0.2456,-0.2122,-0.1008,-0.0393,-0.0056,0.0505,0.0673,0.0729,0.0842,0.1009,0.1232,0.1679,0.1958,0.2068,0.1846,0.1512,0.1232,0.1456,0.1233,0.0898,0.0898,0.0898,0.0898,0.0898,0.0898,0.0898,0.0898,0.0898,0.0898,0.0898,0.0898,0.0765,0.0402,0.06,0.0684,0.0267,0.0466,0.0619,0.0536,0.0385,0.0295,0.0411,0.0072,-0.0248,-0.0521,-0.0575,-0.0393,0.0106,0.0685,0.0947,0.0819,0.1721,0.204,0.1709,0.2374,0.2681,0.2681,0.2681,0.2458,0.2069,0.1902,0.1567,0.1177,0.1009,0.0898,0.0898,0.0898,0.0898,0.0898,0.0898,0.0898,0.0898,0.0898,0.0898,0.0898,-1.3621,-1.3621,-1.3621,-1.3621,-1.3621,-1.38,-1.4351,-1.592,-1.7031,-1.7031,-1.7031,-1.724,-1.7842,-1.897,-2.0104,-2.1118,-2.0646,-2.0545,-2.115,-2.375,-2.5339,-2.5475,-2.5492,-2.5427,-2.5284,-2.5077,-2.4799,-2.4456,-2.2495,-1.9988,-1.702,-1.6128,-1.4358,-1.1968,-1.1372,-0.963,-0.7171,-0.646,-0.5487,-0.4405,-0.3408,-0.285,-0.2512,-0.1733,-0.1064,-0.0505,0.0,0.0336,0.0505,0.0673,0.0785,0.0897,0.1288,0.14,0.1512,0.1734,0.1512,0.1288,0.14,0.1177,0.0898,0.0898,0.0898,0.0898,0.0898,0.0898,0.0842,0.0617,0.0729,0.0785,0.028,0.0392,0.0384,-0.0153,-0.005,0.0098,-0.0045,0.0,0.0126,0.0337,-0.0123,-0.036,-0.0039,-0.044,-0.0809,-0.0964,-0.1089,-0.0957,-0.0542,0.0156,0.0486,0.0434,0.1265,0.1604,0.1311,0.1807,0.2014,0.2014,0.2014,0.1846,0.1456,0.1456,0.1232,0.0898,0.0898,0.0898,0.0898,0.0898,0.0898,0.0898,0.0898,0.0898,0.0898,0.0898,0.0898,0.0898,-1.3621,-1.361,-1.3668,-1.3668,-1.3668,-1.4129,-1.5558,-1.6905,-1.7788,-1.7882,-1.7882,-1.7963,-1.8029,-2.0751,-2.2588,-2.2738,-2.1337,-2.1071,-2.2535,-2.4239,-2.5321,-2.558,-2.554,-2.5469,-2.539,-2.5195,-2.4911,-2.4524,-2.2474,-2.0239,-1.7892,-1.7598,-1.5588,-1.2203,-1.2551,-1.0589,-0.695,-0.6607,-0.5751,-0.4574,-0.386,-0.3244,-0.2736,-0.2736,-0.1958,-0.0953,-0.0785,-0.0336,0.0224,0.0336,0.0561,0.0673,0.0673,0.0785,0.1009,0.1568,0.1734,0.1623,0.1065,0.0898,0.0898,0.0842,0.0785,0.0785,0.0842,0.0785,0.0617,0.0056,0.0392,0.0448,-0.0671,-0.0448,-0.0219,-0.0766,-0.0908,-0.0834,-0.0362,-0.078,-0.0889,-0.034,-0.1234,-0.1633,-0.1081,-0.1601,-0.1796,-0.1405,-0.1504,-0.1572,-0.1473,-0.0983,-0.0433,0.0151,0.0419,0.0596,0.0673,0.0842,0.0898,0.0898,0.0898,0.0898,0.0898,0.0898,0.0898,0.0898,0.0898,0.0898,0.0898,0.0898,0.0898,0.0898,0.0898,0.0898,0.0898,0.0898,0.0898,0.0898,-1.3668,-1.3952,-1.4186,-1.4186,-1.4186,-1.4558,-1.5659,-1.6088,-1.668,-1.7747,-1.7882,-1.8372,-1.9603,-2.0413,-2.1505,-2.301,-2.2527,-2.201,-2.1794,-2.4083,-2.5486,-2.5584,-2.5572,-2.5455,-2.5184,-2.5116,-2.4346,-2.2776,-2.1167,-1.9541,-1.7972,-1.7258,-1.5548,-1.3002,-1.3097,-1.1527,-0.8712,-0.741,-0.6392,-0.5546,-0.4132,-0.3527,-0.3357,-0.285,-0.2235,-0.1512,-0.0897,-0.0336,0.0224,0.0336,0.0561,0.0673,0.0505,0.0617,0.0785,0.1065,0.1121,0.1065,0.0954,0.0898,0.0785,0.0336,-0.0112,-0.0336,0.0112,-0.0168,-0.0503,-0.0671,-0.0559,-0.0559,-0.0838,-0.0783,-0.0875,-0.1375,-0.1109,-0.0981,-0.1355,-0.123,-0.1018,-0.0834,-0.1329,-0.154,-0.119,-0.1377,-0.1648,-0.1896,-0.1888,-0.195,-0.2087,-0.1952,-0.1426,-0.0367,-0.0265,0.0,0.0449,0.0673,0.0785,0.0898,0.0898,0.0898,0.0898,0.0898,0.0898,0.0898,0.0898,0.0898,0.0898,0.0898,0.0898,0.0898,0.0898,0.0898,0.0898,0.0898,0.0898,0.0898,-1.1458,-1.3034,-1.4373,-1.4373,-1.4743,-1.5198,-1.5703,-1.5957,-1.6824,-1.8755,-1.9011,-1.9332,-2.02,-2.0844,-2.1688,-2.2927,-2.2891,-2.2757,-2.2685,-2.4441,-2.5527,-2.5593,-2.5623,-2.5469,-2.505,-2.5048,-2.4197,-2.2461,-2.1089,-1.9706,-1.8349,-1.7612,-1.5823,-1.3297,-1.3344,-1.1948,-0.951,-0.8357,-0.7245,-0.619,-0.4937,-0.4181,-0.3635,-0.3244,-0.2738,-0.2179,-0.1734,-0.1064,-0.028,-0.0224,0.0112,0.0449,0.0336,0.028,0.0224,0.028,0.0561,0.0729,0.0449,0.0449,0.0336,-0.028,-0.0671,-0.0838,-0.0504,-0.0671,-0.1006,-0.1229,-0.1118,-0.1062,-0.1621,-0.1566,-0.1531,-0.2036,-0.1964,-0.1814,-0.1898,-0.1946,-0.1808,-0.1333,-0.1947,-0.2254,-0.1813,-0.219,-0.248,-0.2591,-0.267,-0.2745,-0.2804,-0.2855,-0.2331,-0.1116,-0.0757,-0.0385,0.0056,0.0561,0.0842,0.0898,0.0898,0.0898,0.0898,0.0898,0.0898,0.0898,0.0898,0.0898,0.0898,0.0898,0.0898,0.0898,0.0898,0.0898,0.0898,0.0898,0.0898,0.0898,-0.8804,-1.1926,-1.4704,-1.504,-1.5532,-1.5925,-1.5925,-1.6349,-1.7585,-1.9995,-2.046,-2.0595,-2.0595,-2.1617,-2.2405,-2.2685,-2.2911,-2.3335,-2.4055,-2.5013,-2.5559,-2.5618,-2.567,-2.5488,-2.5012,-2.4771,-2.4029,-2.2718,-2.1351,-2.0042,-1.8717,-1.8027,-1.6157,-1.3402,-1.3496,-1.2201,-0.9917,-0.9252,-0.8193,-0.6881,-0.5901,-0.4929,-0.4015,-0.3691,-0.3244,-0.2681,-0.2681,-0.1958,-0.1009,-0.1009,-0.0616,-0.0056,0.0,-0.0224,-0.0561,-0.0505,-0.0056,0.0224,-0.0224,-0.028,-0.0392,-0.0783,-0.1062,-0.1174,-0.1062,-0.1118,-0.1341,-0.1846,-0.151,-0.151,-0.2521,-0.2408,-0.2245,-0.2549,-0.2837,-0.2766,-0.2172,-0.2623,-0.2709,-0.1924,-0.2771,-0.3229,-0.2671,-0.3179,-0.3477,-0.3286,-0.3449,-0.352,-0.3433,-0.3528,-0.3149,-0.209,-0.1269,-0.0673,-0.0336,0.0449,0.0842,0.0898,0.0898,0.0898,0.0898,0.0898,0.0898,0.0898,0.0898,0.0898,0.0898,0.0898,0.0898,0.0898,0.0898,0.0898,0.0898,0.0898,0.0898,0.0898,-0.891,-1.2483,-1.616,-1.7977,-1.7251,-1.6392,-1.6392,-1.7115,-1.8305,-2.008,-2.1293,-2.1991,-2.1991,-2.218,-2.2405,-2.2685,-2.3305,-2.378,-2.4083,-2.5077,-2.5664,-2.5683,-2.5694,-2.5484,-2.5003,-2.3787,-2.2882,-2.2392,-2.0655,-1.9324,-1.8444,-1.7652,-1.6034,-1.3799,-1.3846,-1.2667,-1.0659,-0.9725,-0.903,-0.8351,-0.6318,-0.5412,-0.5093,-0.4018,-0.3244,-0.2681,-0.2681,-0.2235,-0.1679,-0.1679,-0.1511,-0.1231,-0.0841,-0.1064,-0.1343,-0.0953,-0.1008,-0.1174,-0.1007,-0.123,-0.1398,-0.1006,-0.1677,-0.2296,-0.179,-0.2071,-0.2465,-0.2521,-0.2465,-0.2465,-0.2691,-0.2747,-0.2741,-0.26,-0.2841,-0.2897,-0.2637,-0.2944,-0.3049,-0.2811,-0.325,-0.3492,-0.3306,-0.3358,-0.3455,-0.3523,-0.3466,-0.3466,-0.3553,-0.3574,-0.3519,-0.3335,-0.2232,-0.1064,0.0112,0.0336,0.0561,0.0729,0.0842,0.0842,0.0729,0.0842,0.0842,0.0729,0.0842,0.0898,0.0898,0.0898,0.0898,0.0898,0.0898,0.0898,0.0898,0.0898,0.0898,0.0898,-1.0386,-1.2072,-1.4874,-1.9175,-1.9019,-1.8292,-1.8292,-1.9134,-2.0413,-2.2232,-2.3731,-2.4678,-2.4678,-2.4849,-2.5526,-2.6841,-2.5607,-2.4803,-2.4894,-2.5337,-2.5629,-2.5698,-2.5411,-2.4985,-2.437,-2.3286,-2.2461,-2.1883,-2.0358,-1.9185,-1.838,-1.7585,-1.6003,-1.3893,-1.3752,-1.2725,-1.1074,-1.0482,-0.9835,-0.9096,-0.7276,-0.6152,-0.5462,-0.4125,-0.3413,-0.3188,-0.3188,-0.2794,-0.2291,-0.2291,-0.2012,-0.1679,-0.1456,-0.1734,-0.2124,-0.1956,-0.1902,-0.1846,-0.1621,-0.1902,-0.224,-0.1958,-0.2296,-0.2635,-0.2352,-0.2521,-0.2691,-0.2691,-0.2691,-0.2747,-0.2805,-0.2914,-0.2975,-0.2928,-0.3101,-0.3164,-0.2992,-0.3153,-0.3274,-0.3224,-0.3423,-0.3583,-0.3527,-0.3534,-0.3523,-0.358,-0.3531,-0.3526,-0.3583,-0.3585,-0.3585,-0.3585,-0.235,-0.1063,0.0168,0.0336,0.0449,0.0561,0.0729,0.0785,0.0729,0.0842,0.0842,0.0785,0.0898,0.0898,0.0898,0.0898,0.0898,0.0898,0.0898,0.0898,0.0898,0.0898,0.0898,0.0898,-1.2243,-1.2297,-1.4064,-1.9736,-2.0435,-2.0156,-2.0156,-2.114,-2.2512,-2.4078,-2.5389,-2.6315,-2.6808,-2.7105,-2.8204,-3.0423,-2.8267,-2.6786,-2.6786,-2.6015,-2.5597,-2.5675,-2.5155,-2.4523,-2.3823,-2.3074,-2.2258,-2.136,-2.0054,-1.9022,-1.8224,-1.7229,-1.5728,-1.3893,-1.347,-1.2531,-1.1276,-1.1166,-1.0664,-0.985,-0.8408,-0.7139,-0.5955,-0.4448,-0.3809,-0.3664,-0.3664,-0.3375,-0.2967,-0.2945,-0.2655,-0.2259,-0.2074,-0.2404,-0.2905,-0.2736,-0.2571,-0.2464,-0.2294,-0.2519,-0.28,-0.2691,-0.2747,-0.2747,-0.2691,-0.2691,-0.2691,-0.2691,-0.2691,-0.2747,-0.286,-0.3023,-0.3097,-0.3151,-0.3316,-0.3392,-0.3187,-0.3346,-0.3433,-0.3403,-0.3509,-0.3585,-0.3585,-0.3585,-0.3585,-0.3585,-0.3585,-0.3585,-0.3585,-0.3585,-0.3527,-0.3413,-0.2237,-0.1063,0.0168,0.028,0.0393,0.0393,0.0617,0.0673,0.0729,0.0842,0.0898,0.0842,0.0898,0.0898,0.0898,0.0898,0.0898,0.0898,0.0898,0.0898,0.0898,0.0898,0.0898,0.0898,-1.4028,-1.4267,-1.5651,-1.994,-2.1033,-2.1264,-2.1264,-2.2498,-2.3638,-2.4219,-2.4385,-2.5198,-2.7055,-2.7299,-2.8225,-3.0488,-3.0477,-3.0321,-3.0321,-2.7409,-2.5663,-2.5615,-2.5031,-2.4433,-2.3805,-2.3069,-2.2116,-2.0956,-1.9612,-1.8565,-1.7828,-1.6145,-1.4846,-1.3846,-1.3024,-1.2187,-1.1293,-1.1601,-1.1541,-1.1032,-0.9564,-0.8343,-0.7282,-0.5506,-0.4398,-0.3848,-0.3848,-0.3848,-0.3829,-0.372,-0.368,-0.3545,-0.2876,-0.3074,-0.3413,-0.285,-0.3019,-0.3246,-0.3077,-0.3019,-0.3021,-0.2745,-0.2802,-0.286,-0.2747,-0.2691,-0.2691,-0.2691,-0.2691,-0.2747,-0.286,-0.3023,-0.3094,-0.3043,-0.333,-0.3433,-0.3046,-0.3366,-0.3528,-0.3414,-0.3509,-0.3585,-0.3585,-0.3585,-0.3585,-0.3585,-0.3585,-0.3585,-0.3585,-0.3585,-0.3357,-0.2792,-0.2125,-0.1231,0.0,0.0168,0.028,0.0393,0.0617,0.0673,0.0729,0.0842,0.0842,0.0729,0.0842,0.0898,0.0898,0.0898,0.0898,0.0898,0.0898,0.0898,0.0898,0.0898,0.0898,0.0898,-1.4396,-1.4793,-1.5565,-1.7158,-1.9608,-2.1684,-2.2634,-2.3231,-2.3852,-2.463,-2.5556,-2.647,-2.7218,-2.8395,-2.954,-3.0614,-3.069,-3.0721,-3.0762,-2.9569,-2.8194,-2.6711,-2.6039,-2.5334,-2.4563,-2.3864,-2.2907,-2.1702,-2.0481,-1.9573,-1.8884,-1.7302,-1.5923,-1.4726,-1.3738,-1.2782,-1.1978,-1.2124,-1.1873,-1.1253,-0.9904,-0.8858,-0.7948,-0.599,-0.5093,-0.4904,-0.4786,-0.4485,-0.4114,-0.442,-0.4225,-0.3917,-0.4045,-0.3971,-0.3728,-0.3475,-0.3512,-0.3615,-0.3375,-0.3188,-0.3077,-0.2965,-0.2968,-0.3023,-0.2965,-0.2856,-0.2858,-0.2912,-0.2856,-0.2916,-0.3137,-0.3246,-0.345,-0.3842,-0.377,-0.366,-0.388,-0.3741,-0.3566,-0.352,-0.3555,-0.3585,-0.3585,-0.3585,-0.3585,-0.3585,-0.3585,-0.3585,-0.3585,-0.3585,-0.3302,-0.2736,-0.2458,-0.1789,-0.0561,-0.0505,-0.028,0.0168,0.0336,0.0393,0.0393,0.0673,0.0729,0.0729,0.0842,0.0898,0.0898,0.0898,0.0898,0.0898,0.0898,0.0898,0.0898,0.0898,0.0898,0.0898,-1.4793,-1.5313,-1.571,-1.571,-1.9144,-2.2249,-2.3421,-2.3739,-2.4036,-2.471,-2.6851,-2.8336,-2.8336,-2.9555,-3.0451,-3.0645,-3.0709,-3.0751,-3.0793,-3.0614,-2.9573,-2.7459,-2.6681,-2.6027,-2.5427,-2.4406,-2.3287,-2.1965,-2.0926,-1.9892,-1.8832,-1.7412,-1.6098,-1.4862,-1.3762,-1.2968,-1.2453,-1.2582,-1.2156,-1.131,-1.035,-0.9454,-0.8397,-0.6792,-0.6104,-0.5848,-0.579,-0.5359,-0.4915,-0.5297,-0.5034,-0.4716,-0.5161,-0.4844,-0.4221,-0.4189,-0.3988,-0.3784,-0.3553,-0.3408,-0.3286,-0.3137,-0.3132,-0.3188,-0.313,-0.3023,-0.297,-0.3077,-0.3023,-0.3023,-0.3357,-0.3524,-0.3855,-0.4405,-0.4298,-0.4298,-0.468,-0.4408,-0.4132,-0.4132,-0.4132,-0.4079,-0.3913,-0.386,-0.3805,-0.3641,-0.3585,-0.3585,-0.3585,-0.3585,-0.3413,-0.3019,-0.2963,-0.2516,-0.1456,-0.1288,-0.0841,-0.0224,-0.0112,0.0056,0.028,0.0505,0.0617,0.0729,0.0785,0.0842,0.0898,0.0898,0.0898,0.0898,0.0898,0.0898,0.0898,0.0898,0.0898,0.0898,-1.541,-1.5951,-1.6384,-1.6431,-2.0016,-2.3053,-2.3508,-2.3994,-2.4302,-2.4343,-2.7995,-3.0598,-3.0598,-3.0656,-3.0658,-3.0616,-3.0713,-3.0804,-3.0804,-3.0237,-2.9186,-2.7592,-2.6738,-2.6313,-2.6313,-2.4591,-2.2991,-2.1505,-2.0707,-1.9293,-1.7291,-1.5919,-1.482,-1.3961,-1.2885,-1.2453,-1.2645,-1.2874,-1.2397,-1.1398,-1.1152,-1.0127,-0.8667,-0.8057,-0.738,-0.6719,-0.6719,-0.6593,-0.6371,-0.6252,-0.6191,-0.6162,-0.605,-0.5574,-0.5029,-0.5029,-0.4482,-0.3909,-0.3848,-0.3812,-0.3666,-0.3212,-0.3244,-0.3357,-0.3188,-0.313,-0.313,-0.313,-0.313,-0.3188,-0.3357,-0.3852,-0.4291,-0.4463,-0.4952,-0.5277,-0.5281,-0.5277,-0.5277,-0.5277,-0.5277,-0.5117,-0.4574,-0.4519,-0.4242,-0.3638,-0.3585,-0.3585,-0.3585,-0.3585,-0.3585,-0.3585,-0.3585,-0.3302,-0.2736,-0.2125,-0.1455,-0.0729,-0.0729,-0.0336,0.0393,0.0393,0.0505,0.0673,0.0673,0.0785,0.0898,0.0898,0.0898,0.0898,0.0898,0.0898,0.0898,0.0898,0.0898,0.0898,-1.6019,-1.6259,-1.692,-1.8525,-2.1594,-2.3925,-2.4094,-2.4219,-2.5019,-2.7068,-2.9231,-3.0598,-3.0598,-3.0615,-3.0652,-3.0723,-3.0781,-3.0684,-3.0402,-3.0074,-2.9399,-2.826,-2.7707,-2.7293,-2.7,-2.5374,-2.4044,-2.3047,-2.1341,-1.994,-1.8781,-1.6966,-1.5704,-1.5057,-1.3929,-1.3421,-1.3429,-1.3365,-1.2606,-1.148,-1.1394,-1.0512,-0.922,-0.851,-0.8163,-0.7967,-0.7772,-0.7316,-0.6785,-0.7113,-0.6836,-0.6306,-0.6322,-0.6113,-0.5898,-0.5283,-0.4628,-0.4099,-0.4518,-0.4529,-0.4304,-0.4107,-0.4132,-0.4242,-0.4563,-0.456,-0.4505,-0.4618,-0.456,-0.456,-0.4732,-0.4842,-0.5113,-0.5605,-0.5496,-0.5445,-0.5878,-0.555,-0.5277,-0.5277,-0.5277,-0.5226,-0.5062,-0.5062,-0.4846,-0.4298,-0.386,-0.3585,-0.3585,-0.3585,-0.3585,-0.3585,-0.3585,-0.3527,-0.3357,-0.2738,-0.1902,-0.0842,-0.0842,-0.0505,0.0112,0.0336,0.0449,0.0505,0.0729,0.0842,0.0898,0.0898,0.0898,0.0898,0.0898,0.0898,0.0898,0.0898,0.0898,0.0898,-1.6316,-1.6976,-1.805,-2.0093,-2.2591,-2.4343,-2.4549,-2.5166,-2.655,-2.9052,-2.9874,-3.0317,-3.0569,-3.0615,-3.0651,-3.0723,-3.0761,-3.0608,-3.011,-2.9972,-2.9446,-2.8419,-2.7933,-2.7382,-2.6706,-2.5433,-2.4365,-2.3447,-2.1479,-1.985,-1.8513,-1.686,-1.5736,-1.505,-1.424,-1.389,-1.389,-1.37,-1.2826,-1.1516,-1.1516,-1.0717,-0.9484,-0.9017,-0.8882,-0.8818,-0.8689,-0.8231,-0.7772,-0.8037,-0.7712,-0.7256,-0.7256,-0.6859,-0.6379,-0.6149,-0.541,-0.4733,-0.5341,-0.535,-0.5296,-0.5419,-0.5106,-0.4897,-0.5226,-0.5222,-0.5218,-0.5277,-0.5222,-0.5218,-0.5277,-0.55,-0.5769,-0.6154,-0.61,-0.6154,-0.648,-0.6263,-0.5991,-0.5991,-0.5991,-0.5932,-0.5664,-0.566,-0.5445,-0.4846,-0.4298,-0.3968,-0.3968,-0.3749,-0.3585,-0.3585,-0.3585,-0.3585,-0.3585,-0.3244,-0.2571,-0.1623,-0.1623,-0.1176,-0.0336,-0.0112,0.0112,0.0393,0.0673,0.0842,0.0898,0.0898,0.0898,0.0898,0.0898,0.0898,0.0898,0.0898,0.0898,0.0898,-1.6441,-1.7897,-1.9656,-2.1264,-2.3084,-2.4508,-2.4926,-2.6437,-2.8222,-3.0101,-2.995,-2.9889,-3.0441,-3.0621,-3.068,-3.0615,-3.0683,-3.0517,-2.9945,-2.9842,-2.9288,-2.8192,-2.763,-2.6819,-2.5803,-2.4989,-2.4101,-2.3069,-2.1186,-1.9202,-1.7125,-1.6042,-1.505,-1.4327,-1.4139,-1.401,-1.401,-1.389,-1.2887,-1.1516,-1.1516,-1.0717,-0.9484,-0.9484,-0.9414,-0.9338,-0.9338,-0.921,-0.9017,-0.8835,-0.8641,-0.8517,-0.8517,-0.7587,-0.6662,-0.7326,-0.6531,-0.5508,-0.6129,-0.6329,-0.6403,-0.6908,-0.6271,-0.5542,-0.5474,-0.5466,-0.5462,-0.5445,-0.5441,-0.5441,-0.5441,-0.5932,-0.6263,-0.6263,-0.6756,-0.7085,-0.7085,-0.7085,-0.7085,-0.7085,-0.7085,-0.6864,-0.6317,-0.6209,-0.5937,-0.5332,-0.4787,-0.4463,-0.4408,-0.3913,-0.3585,-0.3585,-0.3585,-0.3585,-0.3585,-0.3585,-0.3299,-0.2681,-0.2681,-0.2069,-0.0953,-0.0785,-0.0336,0.0336,0.0561,0.0785,0.0898,0.0898,0.0898,0.0898,0.0898,0.0898,0.0898,0.0898,0.0898,0.0898,-1.6828,-1.8857,-2.0822,-2.2324,-2.3852,-2.4886,-2.4966,-2.5848,-2.6967,-2.8162,-2.9519,-3.0239,-2.9863,-3.0306,-3.0634,-3.0677,-3.0451,-3.0227,-2.9991,-2.9339,-2.858,-2.771,-2.7134,-2.6404,-2.5508,-2.5029,-2.4085,-2.2728,-2.0456,-1.871,-1.7467,-1.5613,-1.4625,-1.4446,-1.4327,-1.4139,-1.401,-1.389,-1.2887,-1.1516,-1.1516,-1.0717,-0.9484,-0.9484,-0.9484,-0.9478,-0.9478,-0.9344,-0.921,-0.8899,-0.8641,-0.8517,-0.8517,-0.7917,-0.7326,-0.7456,-0.6863,-0.6322,-0.7006,-0.7076,-0.7072,-0.7773,-0.7615,-0.7186,-0.7012,-0.6972,-0.6921,-0.6737,-0.6701,-0.6701,-0.6701,-0.681,-0.6918,-0.6918,-0.7031,-0.7085,-0.7085,-0.7085,-0.7085,-0.7085,-0.7085,-0.7031,-0.6918,-0.648,-0.5937,-0.5332,-0.4787,-0.4298,-0.3805,-0.3694,-0.3585,-0.3585,-0.3585,-0.3585,-0.3585,-0.3585,-0.3299,-0.2681,-0.2681,-0.2291,-0.1567,-0.0953,-0.0617,-0.0393,0.0336,0.0729,0.0729,0.0842,0.0898,0.0898,0.0898,0.0898,0.0898,0.0898,0.0898,0.0898,-1.8821,-2.0194,-2.1423,-2.2661,-2.4657,-2.6229,-2.6639,-2.6774,-2.7251,-2.8458,-2.8973,-2.9452,-3.0013,-3.0378,-3.052,-3.0334,-3.022,-3.0043,-2.9791,-2.9139,-2.8372,-2.7549,-2.685,-2.6073,-2.513,-2.4735,-2.3704,-2.1949,-2.0023,-1.8331,-1.6813,-1.5225,-1.4455,-1.4396,-1.4327,-1.4148,-1.389,-1.3511,-1.2642,-1.1447,-1.1149,-1.0415,-0.9484,-0.9484,-0.967,-0.9926,-0.9606,-0.9414,-0.9338,-0.946,-0.9145,-0.8705,-0.8641,-0.8177,-0.7652,-0.7917,-0.7456,-0.706,-0.7787,-0.7901,-0.7879,-0.826,-0.8231,-0.8048,-0.7698,-0.7618,-0.758,-0.7451,-0.75,-0.7527,-0.7257,-0.7323,-0.73,-0.7139,-0.7085,-0.7085,-0.7085,-0.7085,-0.7085,-0.7085,-0.7085,-0.7085,-0.7085,-0.681,-0.648,-0.6209,-0.5391,-0.4736,-0.4408,-0.3913,-0.3585,-0.3585,-0.3585,-0.3585,-0.3585,-0.3585,-0.3413,-0.313,-0.313,-0.2685,-0.179,-0.1231,-0.0672,-0.0112,0.0505,0.0785,0.0785,0.0898,0.0898,0.0898,0.0898,0.0898,0.0898,0.0898,0.0898,0.0898,-2.0957,-2.1568,-2.1949,-2.2752,-2.5347,-2.7544,-2.8255,-2.8174,-2.8446,-2.9614,-2.8743,-2.8698,-3.044,-3.0481,-3.0272,-2.996,-2.9937,-2.9791,-2.9419,-2.8897,-2.8221,-2.7337,-2.6589,-2.5713,-2.4735,-2.4369,-2.3171,-2.1104,-1.9761,-1.8065,-1.5985,-1.4942,-1.4455,-1.4267,-1.4207,-1.395,-1.358,-1.2887,-1.2143,-1.1274,-1.073,-1.011,-0.9484,-0.9484,-0.9919,-1.0421,-0.9734,-0.9414,-0.9402,-0.9958,-0.9582,-0.8958,-0.8835,-0.8371,-0.7907,-0.8382,-0.8117,-0.7787,-0.8317,-0.8517,-0.8517,-0.8517,-0.8576,-0.8537,-0.8133,-0.7947,-0.7909,-0.7925,-0.7982,-0.7949,-0.7676,-0.7638,-0.7578,-0.7307,-0.716,-0.7085,-0.7085,-0.7085,-0.7085,-0.7085,-0.7085,-0.7085,-0.7085,-0.7085,-0.7085,-0.6972,-0.6046,-0.5391,-0.5171,-0.4242,-0.3694,-0.3585,-0.3585,-0.3585,-0.3585,-0.3585,-0.3585,-0.3585,-0.3471,-0.291,-0.1956,-0.151,-0.0783,0.0224,0.0673,0.0842,0.0842,0.0898,0.0898,0.0898,0.0898,0.0898,0.0898,0.0898,0.0898,0.0898,-2.1313,-2.2091,-2.2752,-2.2888,-2.5347,-2.7345,-2.7469,-2.9018,-3.0244,-3.043,-2.9857,-2.9767,-3.0664,-3.0046,-2.9699,-3.0035,-2.9599,-2.9225,-2.9001,-2.8268,-2.7444,-2.6504,-2.5917,-2.5237,-2.4385,-2.3891,-2.2671,-2.0682,-1.9598,-1.8065,-1.5985,-1.4942,-1.4455,-1.4267,-1.37,-1.3268,-1.2887,-1.2205,-1.1406,-1.0611,-1.0548,-1.011,-0.9484,-0.9484,-0.9919,-1.0421,-0.9734,-0.9414,-0.9338,-0.9396,-0.9145,-0.8835,-0.8835,-0.8641,-0.8382,-0.8447,-0.8447,-0.8382,-0.8447,-0.8517,-0.8517,-0.8517,-0.8829,-0.9192,-0.9122,-0.8623,-0.8221,-0.8421,-0.8117,-0.7982,-0.8387,-0.7897,-0.7566,-0.8008,-0.7494,-0.7085,-0.7085,-0.7085,-0.7085,-0.7085,-0.7085,-0.7085,-0.7085,-0.7085,-0.6864,-0.6372,-0.6154,-0.5664,-0.468,-0.4463,-0.4135,-0.3641,-0.3585,-0.3585,-0.3585,-0.3585,-0.3585,-0.3585,-0.3074,-0.2736,-0.2569,-0.1845,-0.1175,-0.0505,0.0336,0.0729,0.0729,0.0842,0.0898,0.0898,0.0898,0.0898,0.0898,0.0898,0.0898,0.0898,-2.3405,-2.3872,-2.4205,-2.4105,-2.5931,-2.7452,-2.7526,-2.824,-2.8934,-2.942,-2.9907,-3.0165,-3.0032,-2.9658,-2.9454,-2.9583,-2.904,-2.8675,-2.8677,-2.7822,-2.6994,-2.6337,-2.557,-2.4902,-2.4302,-2.3565,-2.2306,-2.0611,-1.9267,-1.7399,-1.505,-1.4616,-1.4267,-1.4019,-1.3329,-1.2895,-1.2573,-1.1531,-1.0856,-1.0485,-1.011,-0.9983,-1.0047,-1.0047,-1.073,-1.1593,-1.1281,-1.0408,-0.9472,-0.9849,-0.9594,-0.9087,-0.8958,-0.877,-0.8641,-0.8517,-0.8517,-0.8517,-0.8517,-0.8517,-0.8517,-0.8517,-0.8705,-0.9022,-0.9582,-0.9243,-0.8817,-0.8951,-0.8882,-0.8722,-0.8414,-0.8387,-0.8281,-0.7802,-0.7471,-0.7241,-0.7106,-0.7085,-0.7085,-0.7085,-0.7085,-0.7085,-0.7085,-0.7085,-0.6972,-0.6701,-0.61,-0.5496,-0.4952,-0.4353,-0.386,-0.3585,-0.3585,-0.3585,-0.3585,-0.3585,-0.3413,-0.3074,-0.285,-0.2514,-0.2179,-0.1343,-0.0616,-0.0056,0.0561,0.0785,0.0842,0.0898,0.0898,0.0898,0.0898,0.0898,0.0898,0.0898,0.0898,0.0898]}]]